     2              Observation         GPS                 RINEX VERSION / TYPE
teqc 1998Oct22 19990510 17:53:37UTC                         PGM / RUN BY / DATE
                                                            COMMENT
Original Marker Name: CD14                                  COMMENT
Campaign Name: northern baja california 1999                COMMENT
4-Character Station Name: CD14                              COMMENT
6-Character Antenna Code: DMRCHT                            COMMENT
Vertical Measurement Point: BCR                             COMMENT
Vertical Offset to Rinex Ref. Point: 0.0349                 COMMENT
Radial Measurement Point: ECF                               COMMENT
Radial Offset to Rinex Ref. Point: 0.1896                   COMMENT
Antenna Height from Field Measurement: 1.2500 m             COMMENT
Additional Antenna Identification Info.:                    COMMENT
Turborogue and Ashtech Choke Ring                           COMMENT
Revised Rinex header created by UCSD GPS archive for        COMMENT
SCEC DC on 07-Jul-1999 (1999.188) 20:43:50 GMT              COMMENT
For assistance contact dagnew@ucsd.edu or hjohnson@ucsd.edu COMMENT
                                                            COMMENT
CD14                                                        MARKER NAME
JRO CICESE (ENSENADA)                                       OBSERVER / AGENCY
312 ASHTECH Z12-XII3 1F50                                   REC # / TYPE / VERS
653 DORNE-MARGOL. TYPE T                                    ANT # / TYPE
 -2287134.8914 -4879923.4185  3399846.8444                  APPROX POSITION XYZ
        1.2006        0.0000        0.0000                  ANTENNA: DELTA H/E/N
     1     1     0                                          WAVELENGTH FACT L1/2
     7    C1    L1    L2    P1    P2    S1    S2            # / TYPES OF OBSERV
     0                                                      INTERVAL
  1999     4    24     0     0   30.000000                  TIME OF FIRST OBS
  1999     4    24    14    45    0.000000                  TIME OF LAST OBS
                                                            END OF HEADER
 99  4 24  0  0 30.0000000  0  7G30G21G17G23G26G 6G22
  23687419.666     2384705.19549   1876736.49746  23687420.510    23687427.873
       222.000         165.000
  24907518.723    -5571584.61649  -3974532.46644  24907516.635    24907530.658
       202.000         131.000
  21323287.103   -27369834.63249 -20310165.93147  21323286.506    21323291.045
       241.000         206.000
  21578252.086   -20323760.62249 -15457023.44747  21578251.447    21578257.022
       241.000         204.000
  21778119.713   -16290933.06049 -12677888.22247  21778119.991    21778124.835
       234.000         189.000
  20254590.401   -24695495.79649 -19224895.48648  20254590.459    20254594.388
       248.000         216.000
  23588791.481   -12853051.37649  -9976946.66545  23588790.530    23588796.960
       215.000         161.000
 99  4 24  0  1  0.0000000  0  7G30G21G17G23G26G 6G22
  23706456.958     2484745.65949   1954689.88746  23706458.171    23706465.874
       222.000         164.000
  24890205.330    -5662565.47549  -4045426.15945  24890203.351    24890216.822
       209.000         139.000
  21317356.145   -27401001.86249 -20334452.06147  21317355.622    21317360.327
       241.000         206.000
  21567196.916   -20381855.70649 -15502292.28547  21567196.241    21567201.677
       241.000         204.000
  21772231.872   -16321873.81549 -12701997.84647  21772232.157    21772237.239
       234.000         190.000
  20257688.382   -24679215.95749 -19212209.91448  20257688.304    20257692.485
       248.000         216.000
  23584743.474   -12874324.01549  -9993522.75245  23584743.062    23584750.273
       216.000         161.000
 99  4 24  0  1 30.0000000  0  7G30G21G17G23G26G 6G22
  23725509.784     2584867.65849   2032706.81346  23725510.341    23725519.343
       221.000         165.000
  24872923.938    -5753377.22749  -4116188.17445  24872922.324    24872934.746
       207.000         141.000
  21311457.986   -27431996.81349 -20358603.94247  21311457.535    21311462.029
       241.000         205.000
  21556222.322   -20439527.29349 -15547231.11347  21556221.708    21556227.369
       241.000         204.000
  21766455.786   -16352227.23349 -12725649.81447  21766455.756    21766461.643
       233.000         190.000
  20260897.321   -24662352.79449 -19199069.79448  20260897.193    20260901.393
       248.000         216.000
  23580803.306   -12895030.10649 -10009657.36045  23580801.841    23580809.799
       215.000         161.000
 99  4 24  0  2  0.0000000  0  7G30G21G17G23G26G 6G22
  23744571.760     2685037.92249   2110761.32646  23744572.584    23744580.638
       221.000         164.000
  24855670.879    -5844039.59249  -4186833.71645  24855667.679    24855682.357
       206.000         142.000
  21305588.127   -27462842.93849 -20382639.85447  21305587.389    21305592.045
       241.000         205.000
  21545322.691   -20496804.75449 -15591862.83347  21545322.184    21545327.636
       241.000         204.000
  21760787.720   -16382012.97849 -12748859.44047  21760787.850    21760793.543
       232.000         190.000
  20264207.550   -24644957.31949 -19185514.88548  20264207.621    20264211.841
       248.000         216.000
  23576966.491   -12915192.48449 -10025368.29345  23576965.576    23576971.473
       216.000         160.000
 99  4 24  0  2 30.0000000  0  7G30G21G17G23G26G 6G22
  23763639.462     2785238.66249   2188839.60146  23763640.734    23763648.966
       217.000         163.000
  24838445.735    -5934555.09149  -4257364.81545  24838444.243    24838456.469
       208.000         141.000
  21299744.981   -27493548.79849 -20406566.47647  21299744.464    21299749.006
       241.000         206.000
  21534497.694   -20553690.51949 -15636189.34447  21534497.248    21534502.329
       241.000         205.000
  21755225.005   -16411244.88049 -12771637.50347  21755225.111    21755230.609
       233.000         189.000
  20267609.474   -24627080.02149 -19171584.53448  20267609.516    20267613.598
       247.000         216.000
  23573229.553   -12934828.66749 -10040669.21445  23573228.873    23573234.592
       216.000         160.000
 99  4 24  0  3  0.0000000  0  7G30G21G17G23G26G 6G22
  23782704.889     2885427.98349   2266908.94945  23782706.035    23782715.307
       217.000         161.000
  24821244.559    -6024945.74649  -4327798.66645  24821243.741    24821255.575
       212.000         144.000
  21293922.526   -27524146.06249 -20430408.47247  21293921.925    21293926.690
       243.000         206.000
  21523743.660   -20610202.98849 -15680224.96847  21523743.063    21523748.528
       241.000         205.000
  21749759.467   -16439966.89149 -12794018.25447  21749759.685    21749764.397
       234.000         189.000
  20271092.670   -24608775.65049 -19157321.40048  20271092.595    20271096.919
       247.000         216.000
  23569587.268   -12953968.60149 -10055583.44945  23569586.035    23569592.169
       218.000         161.000
 99  4 24  0  3 30.0000000  0  7G30G21G17G23G26G 6G22
  23801767.056     2985599.52849   2344964.46445  23801768.429    23801776.672
       218.000         160.000
  24804068.465    -6115205.88449  -4398130.80045  24804066.592    24804079.613
       209.000         146.000
  21288120.400   -27554636.46049 -20454167.19447  21288119.771    21288124.311
       242.000         207.000
  21513059.291   -20666349.35549 -15723975.31847  21513058.370    21513064.056
       240.000         205.000
  21744390.478   -16468181.25049 -12816003.42247  21744390.732    21744395.149
       235.000         190.000
  20274657.701   -24590041.28649 -19142723.19848  20274657.547    20274661.827
       247.000         216.000
  23566037.227   -12972624.47949 -10070120.48945  23566036.972    23566042.585
       219.000         162.000
 99  4 24  0  4  0.0000000  0  7G30G21G17G23G26G 6G22
  23820830.733     3085778.78449   2423025.99545  23820832.261    23820840.992
       218.000         161.000
  24786926.000    -6205288.37249  -4468324.47645  24786924.639    24786938.078
       210.000         147.000
  21282346.082   -27584980.68849 -20477812.02047  21282345.529    21282350.343
       242.000         207.000
  21502454.657   -20722076.56049 -15767399.05147  21502454.411    21502459.491
       241.000         205.000
  21739126.983   -16495841.16949 -12837556.55647  21739127.095    21739131.746
       234.000         190.000
  20278311.051   -24570842.88649 -19127763.41848  20278311.297    20278315.196
       248.000         216.000
  23562584.607   -12990768.80249 -10084258.90146  23562584.562    23562588.985
       219.000         163.000
 99  4 24  0  4 30.0000000  0  7G30G21G17G23G26G 6G22
  23839891.048     3185940.69949   2501074.00245  23839892.376    23839900.412
       215.000         159.000
  24769811.583    -6295223.63349  -4538403.45545  24769809.428    24769823.127
       207.000         142.000
  21276596.918   -27615192.66449 -20501353.79747  21276596.199    21276600.861
       241.000         207.000
  21491926.470   -20777402.86649 -15810510.40147  21491925.939    21491931.112
       241.000         205.000
  21733964.713   -16522969.05549 -12858695.13247  21733964.699    21733969.417
       233.000         190.000
  20282052.463   -24551182.07549 -19112443.31748  20282052.407    20282056.469
       248.000         216.000
  23559225.360   -13008421.71349 -10098014.40645  23559224.758    23559230.958
       219.000         162.000
 99  4 24  0  5  0.0000000  0  7G30G21G17G23G26G 6G22
  23858952.862     3286110.48749   2579128.13545  23858953.270    23858962.002
       216.000         158.000
  24752728.236    -6384994.47649  -4608354.26245  24752726.114    24752739.546
       210.000         141.000
  21270879.713   -27645236.18349 -20524764.32347  21270879.007    21270883.851
       241.000         206.000
  21481475.533   -20832322.58549 -15853304.92847  21481475.084    21481480.395
       241.000         206.000
  21728908.062   -16549541.45649 -12879400.86647  21728907.740    21728912.490
       231.000         190.000
  20285890.589   -24531012.55449 -19096726.82148  20285890.530    20285894.347
       248.000         216.000
  23555966.920   -13025544.36049 -10111356.71445  23555965.534    23555971.474
       219.000         161.000
 99  4 24  0  5 30.0000000  0  7G30G21G17G23G26G 6G22
  23878011.816     3386264.77549   2657170.19345  23878013.056    23878021.644
       217.000         157.000
  24735671.097    -6474629.24149  -4678199.10145  24735670.262    24735683.355
       214.000         146.000
  21265192.799   -27675120.92949 -20548051.12047  21265192.304    21265196.819
       241.000         206.000
  21471093.959   -20886877.79249 -15895815.41847  21471093.421    21471098.537
       241.000         205.000
  21723954.307   -16575572.41749 -12899684.69147  21723954.090    21723959.108
       231.000         189.000
  20289825.407   -24510334.91149 -19080614.38348  20289825.426    20289829.402
       248.000         216.000
  23552806.054   -13042154.44949 -10124299.62645  23552804.553    23552811.175
       217.000         161.000
 99  4 24  0  6  0.0000000  0  7G30G21G17G23G26G 6G22
  23897072.978     3486430.90749   2735221.49745  23897073.230    23897082.152
       217.000         155.000
  24718643.973    -6564105.45649  -4747920.34445  24718641.271    24718654.451
       210.000         146.000
  21259540.748   -27704822.45449 -20571195.14947  21259540.047    21259544.885
       242.000         207.000
  21460787.733   -20941036.83549 -15938017.21347  21460787.186    21460792.773
       241.000         205.000
  21719109.537   -16601031.28349 -12919522.73647  21719109.863    21719114.553
       234.000         189.000
  20293861.817   -24489123.40449 -19064085.95148  20293861.772    20293865.950
       247.000         215.000
  23549748.694   -13058220.86149 -10136818.88645  23549747.149    23549754.011
       217.000         160.000
 99  4 24  0  6 30.0000000  0  7G30G21G17G23G26G 6G22
  23916133.279     3586593.32749   2813269.86845  23916133.255    23916143.826
       216.000         155.000
  24701641.731    -6653450.29049  -4817539.21245  24701640.340    24701651.313
       212.000         140.000
  21253919.104   -27734364.51549 -20594214.91647  21253918.608    21253923.014
       243.000         207.000
  21450552.649   -20994822.02049 -15979927.68747  21450551.972    21450557.675
       241.000         205.000
  21714369.253   -16625941.92449 -12938933.58747  21714369.515    21714374.022
       235.000         190.000
  20297996.568   -24467394.93649 -19047154.68648  20297996.360    20298000.744
       247.000         215.000
  23546790.499   -13073765.88949 -10148931.88545  23546789.217    23546794.764
       218.000         159.000
 99  4 24  0  7  0.0000000  0  7G30G21G17G23G26G 6G22
  23935197.158     3686774.44049   2891332.82145  23935198.077    23935206.823
       218.000         155.000
  24684670.562    -6742633.64249  -4887032.34545  24684670.198    24684680.660
       216.000         139.000
  21248332.024   -27763724.79049 -20617093.03347  21248331.466    21248336.004
       242.000         207.000
  21440393.662   -21048207.73049 -16021526.88247  21440393.085    21440398.256
       241.000         206.000
  21709738.819   -16650275.03649 -12957894.41147  21709739.070    21709744.212
       234.000         190.000
  20302233.525   -24445129.35649 -19029804.89548  20302233.356    20302237.594
       247.000         215.000
  23543933.893   -13088777.17049 -10160628.98245  23543932.944    23543939.087
       216.000         158.000
 99  4 24  0  7 30.0000000  0  7G30G21G17G23G26G 6G22
  23954260.872     3786953.21449   2969393.95945  23954262.419    23954270.965
       220.000         155.000
  24667730.823    -6831652.36849  -4956397.13845  24667729.826    24667740.583
       219.000         147.000
  21242773.858   -27792932.75949 -20639852.47547  21242773.074    21242778.010
       242.000         207.000
  21430311.151   -21101191.32749 -16062812.74047  21430310.375    21430315.613
       242.000         206.000
  21705215.898   -16674043.32049 -12976415.09147  21705215.772    21705221.662
       232.000         190.000
  20306567.889   -24422352.12049 -19012056.40748  20306567.846    20306572.121
       247.000         215.000
  23541171.793   -13103291.52249 -10171938.87745  23541171.826    23541177.157
       216.000         158.000
 99  4 24  0  8  0.0000000  0  7G30G21G17G23G26G 6G22
  23973332.533     3887174.13049   3047487.94145  23973333.417    23973342.054
       216.000         154.000
  24650829.585    -6920467.72449  -5025603.45045  24650828.397    24650839.414
       215.000         148.000
  21237250.408   -27821958.45949 -20662469.88847  21237249.908    21237254.697
       241.000         206.000
  21420316.326   -21153714.28349 -16103739.66247  21420315.924    21420320.986
       242.000         206.000
  21700809.292   -16697199.54849 -12994458.85447  21700809.062    21700815.040
       231.000         190.000
  20311004.652   -24399037.10449 -18993888.87148  20311004.804    20311008.845
       247.000         215.000
  23538509.221   -13117283.35649 -10182841.62045  23538509.459    23538514.185
       217.000         159.000
 99  4 24  0  8 30.0000000  0  7G30G21G17G23G26G 6G22
  23992401.680     3987381.88449   3125571.65645  23992402.765    23992411.838
       216.000         152.000
  24633956.229    -7009135.85349  -5094695.07245  24633955.148    24633966.364
       212.000         145.000
  21231752.761   -27850848.44149 -20684981.54647  21231752.434    21231757.277
       242.000         207.000
  21410396.133   -21205845.03649 -16144360.96847  21410395.432    21410400.463
       241.000         206.000
  21696511.803   -16719782.28649 -13012055.74247  21696511.927    21696516.860
       233.000         190.000
  20315532.057   -24375245.54849 -18975349.99748  20315532.210    20315536.230
       247.000         215.000
  23535935.324   -13130810.33549 -10193382.12945  23535934.991    23535940.242
       218.000         160.000
 99  4 24  0  9  0.0000000  0  7G30G21G17G23G26G 6G22
  24011467.844     4087573.85949   3203643.05145  24011469.805    24011478.332
       215.000         150.000
  24617113.444    -7097643.69649  -5163661.84345  24617111.998    24617123.597
       214.000         144.000
  21226279.658   -27879610.04049 -20707393.16947  21226279.033    21226283.991
       242.000         208.000
  21400548.355   -21257594.98249 -16184685.53747  21400547.639    21400552.874
       241.000         206.000
  21692326.915   -16741774.22549 -13029192.29247  21692327.274    21692332.200
       236.000         191.000
  20320150.977   -24350972.81149 -18956436.18948  20320150.932    20320155.135
       246.000         214.000
  23533451.260   -13143864.58049 -10203554.28545  23533450.881    23533456.349
       219.000         161.000
 99  4 24  0  9 30.0000000  0  7G30G21G17G23G26G 6G22
  24030528.210     4187736.09549   3281691.30645  24030528.391    24030538.523
       212.000         148.000
  24600299.364    -7186000.71149  -5232511.10345  24600298.977    24600310.068
       212.000         143.000
  21220825.887   -27908269.79749 -20729725.43447  21220825.478    21220829.990
       242.000         208.000
  21390770.576   -21308977.09949 -16224723.48947  21390769.758    21390775.312
       241.000         206.000
  21688253.097   -16763182.86149 -13045874.31647  21688253.155    21688258.188
       235.000         192.000
  20324857.942   -24326237.56249 -18937161.97948  20324858.004    20324862.065
       246.000         214.000
  23531057.508   -13156443.76949 -10213356.24545  23531057.668    23531064.269
       218.000         162.000
 99  4 24  0 10  0.0000000  0  7G30G21G17G23G26G 6G22
  24049574.479     4287824.73049   3359682.17245  24049576.035    24049584.206
       212.000         148.000
  24583505.067    -7274253.91749  -5301279.46745  24583502.415    24583512.774
       209.000         139.000
  21215385.407   -27936859.79249 -20752003.33547  21215385.025    21215389.336
       242.000         208.000
  21381055.667   -21360028.74349 -16264503.92447  21381055.074    21381060.468
       242.000         207.000
  21684284.571   -16784037.36749 -13062124.53947  21684285.012    21684290.027
       234.000         192.000
  20329647.909   -24301066.14249 -18917547.89748  20329647.878    20329652.044
       246.000         213.000
  23528752.554   -13168556.59849 -10222794.81946  23528752.114    23528758.587
       220.000         164.000
 99  4 24  0 10 30.0000000  0  7G30G21G17G23G26G 6G22
  24068612.074     4387866.68949   3437636.69645  24068613.096    24068623.748
       212.000         149.000
  24566741.824    -7362344.01449  -5369920.71745  24566741.169    24566750.690
       213.000         143.000
  21209965.106   -27965343.37649 -20774198.32047  21209964.417    21209969.325
       242.000         208.000
  21371410.589   -21410713.47449 -16303998.46347  21371410.061    21371415.407
       242.000         207.000
  21680427.756   -16804305.02649 -13077917.47147  21680427.732    21680433.219
       234.000         192.000
  20334530.464   -24275407.98949 -18897554.54648  20334530.418    20334534.666
       246.000         213.000
  23526546.561   -13180149.73849 -10231828.42346  23526545.851    23526552.326
       219.000         165.000
 99  4 24  0 11  0.0000000  0  7G30G21G17G23G26G 6G22
  24087635.308     4487833.47649   3515532.60345  24087636.426    24087646.944
       212.000         151.000
  24550009.461    -7450271.76049  -5438435.47845  24550007.893    24550017.849
       208.000         142.000
  21204559.935   -27993747.46049 -20796331.34947  21204559.159    21204563.893
       242.000         207.000
  21361836.298   -21461026.64049 -16343203.46647  21361835.919    21361841.155
       243.000         207.000
  21676676.358   -16824018.40849 -13093278.50547  21676676.699    21676681.771
       233.000         191.000
  20339504.848   -24249267.42749 -18877185.29348  20339504.934    20339509.160
       246.000         213.000
  23524436.811   -13191236.43449 -10240467.42446  23524436.242    23524442.180
       221.000         166.000
 99  4 24  0 11 30.0000000  0  7G30G21G17G23G26G 6G22
  24106644.869     4587728.82649   3593372.86345  24106645.397    24106655.072
       213.000         153.000
  24533307.481    -7538038.08049  -5506824.41745  24533306.216    24533312.587
       204.000         137.000
  21199173.836   -28022051.50149 -20818386.42347  21199173.358    21199178.146
       242.000         208.000
  21352334.544   -21510958.68549 -16382111.49547  21352334.177    21352339.213
       242.000         208.000
  21673029.245   -16843183.87349 -13108212.59647  21673029.634    21673034.410
       233.000         190.000
  20344571.099   -24222644.17149 -18856439.91548  20344571.156    20344575.297
       246.000         214.000
  23522422.347   -13201822.60749 -10248716.39446  23522421.636    23522427.776
       219.000         165.000
 99  4 24  0 12  0.0000000  0  7G30G21G17G23G26G 6G22
  24125641.835     4687558.22149   3671161.71445  24125642.315    24125652.588
       212.000         153.000
  24516636.820    -7625640.64449  -5575085.77145  24516635.087    24516645.598
       211.000         140.000
  21193810.817   -28050234.44449 -20840347.13047  21193810.400    21193815.137
       243.000         208.000
  21342907.287   -21560499.02549 -16420714.29547  21342906.873    21342911.868
       243.000         208.000
  21669487.445   -16861796.27249 -13122715.72847  21669487.496    21669492.252
       234.000         190.000
  20349731.142   -24195528.36549 -18835310.73348  20349731.274    20349735.319
       247.000         214.000
  23520501.775   -13211915.20649 -10256580.76546  23520501.496    23520506.366
       221.000         165.000
 99  4 24  0 12 30.0000000  0  7G30G21G17G23G26G 6G22
  24144641.467     4787400.93349   3748960.92745  24144643.041    24144652.344
       216.000         155.000
  24500008.904    -7713019.52349  -5643172.83045  24500007.068    24500018.014
       210.000         145.000
  21188482.781   -28078233.58749 -20862164.61947  21188481.919    21188487.111
       243.000         208.000
  21333566.987   -21609582.56049 -16458961.14947  21333566.479    21333571.297
       242.000         208.000
  21666063.599   -16879788.21349 -13136735.38547  21666063.386    21666068.054
       234.000         190.000
  20354995.471   -24167864.23049 -18813754.28148  20354995.360    20354999.797
       246.000         214.000
  23518685.081   -13221461.84249 -10264019.73146  23518684.633    23518691.092
       221.000         164.000
 99  4 24  0 13  0.0000000  0  7G30G21G17G23G26G 6G22
  24163641.013     4887242.72349   3826759.45345  24163642.329    24163652.564
       218.000         157.000
  24483412.902    -7800229.87549  -5711128.54545  24483411.937    24483421.371
       205.000         141.000
  21183187.027   -28106062.75149 -20883849.66647  21183186.445    21183191.123
       243.000         209.000
  21324308.772   -21658234.64449 -16496871.81047  21324308.229    21324313.458
       242.000         208.000
  21662753.980   -16897180.52349 -13150287.79947  21662754.427    21662758.878
       234.000         191.000
  20360358.654   -24139680.63049 -18791793.05848  20360358.497    20360362.923
       246.000         214.000
  23516967.312   -13230489.36949 -10271054.18046  23516966.793    23516972.420
       220.000         164.000
 99  4 24  0 13 30.0000000  0  7G30G21G17G23G26G 6G22
  24182635.964     4987059.97649   3904538.85545  24182637.658    24182646.924
       220.000         159.000
  24466839.631    -7887321.30249  -5778991.58345  24466838.060    24466849.436
       209.000         143.000
  21177918.868   -28133747.05349 -20905421.83347  21177918.342    21177923.052
       242.000         209.000
  21315124.529   -21706497.77949 -16534479.39547  21315124.386    21315129.216
       243.000         208.000
  21659552.470   -16914004.15249 -13163397.08547  21659552.734    21659558.018
       234.000         192.000
  20365813.700   -24111014.03349 -18769455.47048  20365813.701    20365818.111
       246.000         214.000
  23515342.557   -13239027.79349 -10277707.51746  23515341.978    23515348.081
       220.000         164.000
 99  4 24  0 14  0.0000000  0  7G30G21G17G23G26G 6G22
  24201628.020     5086861.85449   3982306.26945  24201628.941    24201639.393
       218.000         160.000
  24450292.120    -7974278.68549  -5846750.20145  24450292.125    24450302.286
       213.000         149.000
  21172679.676   -28161279.16649 -20926875.40847  21172679.139    21172683.835
       243.000         209.000
  21306018.699   -21754349.30249 -16571766.24447  21306018.221    21306023.276
       242.000         208.000
  21656459.544   -16930257.51849 -13176062.00947  21656459.865    21656464.481
       235.000         192.000
  20371363.463   -24081850.04649 -18746730.30448  20371363.399    20371367.659
       246.000         214.000
  23513815.439   -13247052.24149 -10283960.35445  23513814.565    23513821.343
       218.000         162.000
 99  4 24  0 14 30.0000000  0  7G30G21G17G23G26G 6G22
  24220619.345     5186661.00049   4060071.54545  24220620.044    24220630.515
       217.000         160.000
  24433775.068    -8061076.13949  -5914384.18845  24433774.880    24433783.931
       211.000         149.000
  21167473.445   -28188638.28049 -20948194.18447  21167472.853    21167477.388
       243.000         209.000
  21296993.467   -21801776.71149 -16608722.61447  21296992.849    21296997.966
       242.000         209.000
  21653476.420   -16945933.87049 -13188277.32247  21653476.420    21653481.339
       234.000         192.000
  20377012.822   -24052162.23649 -18723596.97048  20377012.838    20377017.021
       246.000         214.000
  23512391.114   -13254536.15849 -10289791.99545  23512390.281    23512396.812
       218.000         162.000
 99  4 24  0 15  0.0000000  0  7G30G21G17G23G26G 6G22
  24239609.645     5286455.01749   4137832.81245  24239610.247    24239620.931
       217.000         160.000
  24417294.009    -8147683.29249  -5981869.91345  24417292.920    24417302.626
       212.000         150.000
  21162302.865   -28215809.58749 -20969366.61147  21162302.153    21162306.872
       243.000         209.000
  21288049.771   -21848775.92149 -16645345.32347  21288049.470    21288054.332
       243.000         209.000
  21650605.254   -16961021.56949 -13200033.93547  21650605.308    21650610.051
       233.000         191.000
  20382766.855   -24021924.52449 -18700035.13648  20382767.054    20382770.998
       247.000         214.000
  23511070.435   -13261476.58749 -10295200.12145  23511070.055    23511076.268
       219.000         162.000
 99  4 24  0 15 30.0000000  0  7G30G21G17G23G26G 6G22
  24258596.806     5386232.67149   4215581.33045  24258598.562    24258608.325
       215.000         158.000
  24400853.514    -8234077.42949  -6049189.66745  24400852.721    24400861.530
       216.000         151.000
  21157166.155   -28242803.14349 -20990400.53447  21157165.719    21157170.251
       243.000         209.000
  21279185.968   -21895355.42349 -16681640.99147  21279185.566    21279190.489
       243.000         209.000
  21647846.054   -16975520.98149 -13211332.13947  21647846.018    21647850.904
       234.000         190.000
  20388623.640   -23991147.00449 -18676052.67948  20388623.769    20388628.143
       247.000         215.000
  23509851.221   -13267884.52149 -10300193.31545  23509850.949    23509857.020
       220.000         162.000
 99  4 24  0 16  0.0000000  0  7G30G21G17G23G26G 6G22
  24277577.118     5485974.22949   4293301.72945  24277578.182    24277588.486
       215.000         156.000
  24384452.750    -8320262.78549  -6116346.71645  24384450.236    24384460.483
       215.000         154.000
  21152060.753   -28269632.00949 -21011306.12647  21152060.373    21152064.899
       243.000         209.000
  21270399.338   -21941529.39249 -16717620.66447  21270398.799    21270403.978
       243.000         209.000
  21645199.242   -16989429.19149 -13222169.67147  21645199.810    21645204.176
       235.000         190.000
  20394581.430   -23959838.75249 -18651656.66448  20394581.245    20394585.682
       246.000         215.000
  23508729.614   -13273779.14549 -10304786.53046  23508729.275    23508736.088
       221.000         163.000
 99  4 24  0 16 30.0000000  0  7G30G21G17G23G26G 6G22
  24296545.199     5585651.24249   4370971.85145  24296545.512    24296556.290
       214.000         153.000
  24368087.713    -8406260.17049  -6183357.32545  24368086.665    24368096.730
       217.000         158.000
  21146981.314   -28296324.65949 -21032105.57847  21146980.870    21146985.404
       243.000         209.000
  21261684.022   -21987328.47649 -16753308.21647  21261683.952    21261688.611
       243.000         209.000
  21642665.184   -17002745.99549 -13232546.36347  21642665.454    21642670.362
       236.000         192.000
  20400635.711   -23928022.97349 -18626865.16748  20400635.494    20400639.863
       245.000         214.000
  23507700.520   -13279187.26849 -10309000.66546  23507698.649    23507705.636
       220.000         163.000
 99  4 24  0 17  0.0000000  0  7G30G21G17G23G26G 6G22
  24315501.398     5685265.60149   4448593.11945  24315501.748    24315513.464
       212.000         151.000
  24351759.886    -8492061.95149  -6250215.53845  24351758.918    24351768.276
       218.000         157.000
  21141927.599   -28322882.03049 -21052799.61747  21141927.028    21141931.677
       242.000         209.000
  21253042.790   -22032738.32749 -16788692.46947  21253042.255    21253047.294
       243.000         209.000
  21640246.513   -17015456.33849 -13242450.49047  21640246.339    21640251.733
       235.000         193.000
  20406783.923   -23895713.80849 -18601689.21248  20406784.057    20406788.316
       246.000         214.000
  23506763.540   -13284110.56749 -10312837.00646  23506762.607    23506769.087
       221.000         164.000
 99  4 24  0 17 30.0000000  0  7G30G21G17G23G26G 6G22
  24334438.175     5784777.86749   4526134.81745  24334439.608    24334450.938
       210.000         148.000
  24335462.651    -8577702.59349  -6316948.21645  24335461.271    24335471.126
       216.000         155.000
  21136894.365   -28349331.62549 -21073409.67447  21136893.753    21136898.488
       242.000         209.000
  21244470.899   -22077783.72149 -16823792.73447  21244470.289    21244475.361
       243.000         210.000
  21637935.523   -17027600.32749 -13251913.30647  21637935.719    21637940.551
       234.000         193.000
  20413018.875   -23862949.20249 -18576158.36848  20413018.931    20413023.141
       247.000         214.000
  23505914.407   -13288572.21549 -10316313.61846  23505913.984    23505920.090
       221.000         164.000
 99  4 24  0 18  0.0000000  0  7G30G21G17G23G26G 6G22
  24353362.444     5884223.97449   4603625.00445  24353363.587    24353375.180
       208.000         146.000
  24319202.066    -8663150.83849  -6383530.95745  24319200.138    24319210.995
       216.000         157.000
  21131890.623   -28375626.38149 -21093899.07847  21131890.067    21131894.958
       243.000         209.000
  21235977.401   -22122417.00449 -16858571.87247  21235976.779    21235981.832
       243.000         210.000
  21635739.634   -17039139.72049 -13260905.00847  21635739.709    21635743.759
       235.000         192.000
  20419351.369   -23829671.86449 -18550227.99348  20419351.477    20419355.758
       247.000         214.000
  23505163.473   -13292518.82949 -10319388.89746  23505163.064    23505168.862
       221.000         164.000
 99  4 24  0 18 30.0000000  0  7G30G21G17G23G26G 6G22
  24372272.676     5983597.06149   4681058.26745  24372273.476    24372281.850
       205.000         140.000
  24302978.357    -8748405.65949  -6449962.98845  24302977.619    24302986.948
       218.000         156.000
  21126915.507   -28401770.71649 -21114271.27147  21126914.981    21126919.672
       243.000         209.000
  21227563.117   -22166633.85349 -16893026.52247  21227562.624    21227567.710
       244.000         210.000
  21633657.120   -17050082.76549 -13269432.03247  21633657.501    21633662.212
       234.000         192.000
  20425779.523   -23795891.68849 -18523905.80448  20425779.597    20425783.900
       247.000         214.000
  23504508.931   -13295958.71349 -10322069.32446  23504507.688    23504514.337
       222.000         165.000
 99  4 24  0 19  0.0000000  0  7G30G21G17G23G26G 6G22
  24391169.281     6082898.96949   4758436.05845  24391169.155    24391179.658
       205.000         134.000
  24286790.329    -8833473.65249  -6516249.47345  24286789.665    24286797.580
       217.000         155.000
  21121969.470   -28427762.50349 -21134524.59647  21121968.735    21121973.717
       243.000         210.000
  21219227.016   -22210440.13249 -16927161.24947  21219226.775    21219231.710
       243.000         210.000
  21631686.198   -17060439.88749 -13277502.49447  21631686.515    21631691.180
       235.000         192.000
  20432304.576   -23761602.31549 -18497186.83948  20432304.700    20432308.854
       246.000         214.000
  23503948.507   -13298903.86849 -10324364.24246  23503947.016    23503953.951
       221.000         165.000
 99  4 24  0 19 30.0000000  0  7G30G21G17G23G26G 6G22
  24410054.059     6182136.96649   4835764.10945  24410055.690    24410066.142
       205.000         133.000
  24270635.977    -8918364.64449  -6582398.03045  24270635.439    24270642.398
       214.000         155.000
  21117053.977   -28453593.26149 -21154652.44447  21117053.428    21117058.070
       243.000         210.000
  21210967.851   -22253842.45549 -16960981.20947  21210967.403    21210972.450
       243.000         210.000
  21629829.041   -17070199.33849 -13285107.23747  21629829.571    21629834.389
       236.000         192.000
  20438930.270   -23726783.91249 -18470055.64148  20438930.203    20438934.633
       246.000         214.000
  23503483.890   -13301345.21049 -10326266.59746  23503483.447    23503489.397
       221.000         165.000
 99  4 24  0 20  0.0000000  0  7G30G21G17G23G26G 6G22
  24428933.150     6281346.09949   4913069.61645  24428933.681    24428944.945
       209.000         134.000
  24254521.195    -9003047.40949  -6648384.31845  24254519.825    24254528.934
       214.000         154.000
  21112174.298   -28479236.27749 -21174633.99647  21112173.736    21112178.397
       243.000         210.000
  21202792.214   -22296805.68749 -16994459.01547  21202791.853    21202796.648
       244.000         211.000
  21628094.127   -17079316.30149 -13292211.33347  21628094.582    21628098.938
       236.000         192.000
  20445661.445   -23691411.62649 -18442492.83748  20445661.623    20445666.042
       246.000         214.000
  23503121.993   -13303247.11449 -10327748.63246  23503122.617    23503127.303
       221.000         165.000
 99  4 24  0 20 30.0000000  0  7G30G21G17G23G26G 6G22
  24447795.032     6380464.36249   4990304.30545  24447796.533    24447808.071
       213.000         139.000
  24238437.384    -9087567.74949  -6714244.08745  24238436.590    24238445.169
       218.000         155.000
  21107318.690   -28504752.42149 -21194516.68847  21107317.938    21107322.965
       243.000         210.000
  21194689.593   -22339385.28449 -17027637.88947  21194689.212    21194694.028
       244.000         211.000
  21626472.412   -17087838.65049 -13298852.08647  21626472.704    21626476.963
       236.000         192.000
  20452484.076   -23655558.93549 -18414555.68948  20452484.210    20452488.527
       246.000         213.000
  23502850.732   -13304673.19149 -10328859.86846  23502849.926    23502856.069
       219.000         164.000
 99  4 24  0 21  0.0000000  0  7G30G21G17G23G26G 6G22
  24466637.159     6479478.77749   5067458.10245  24466639.028    24466647.695
       215.000         142.000
  24222379.777    -9171950.46149  -6779996.61145  24222378.386    24222387.212
       215.000         154.000
  21102483.037   -28530163.87149 -21214317.79747  21102482.465    21102487.208
       243.000         210.000
  21186654.492   -22381609.92749 -17060540.16847  21186654.204    21186659.032
       244.000         211.000
  21624960.819   -17095782.53449 -13305042.09247  21624961.151    21624965.712
       236.000         191.000
  20459393.210   -23619251.42049 -18386264.13248  20459393.107    20459397.406
       246.000         213.000
  23502669.645   -13305624.43649 -10329601.10546  23502669.031    23502675.335
       218.000         163.000
 99  4 24  0 21 30.0000000  0  7G30G21G17G23G26G 6G22
  24485463.070     6578408.55649   5144545.94545  24485463.776    24485474.663
       216.000         145.000
  24206354.998    -9256160.16949  -6845614.32745  24206353.100    24206361.201
       214.000         151.000
  21097671.887   -28555446.49749 -21234018.52947  21097671.186    21097676.209
       242.000         210.000
  21178694.643   -22423439.24849 -17093134.40947  21178694.205    21178698.944
       244.000         211.000
  21623566.985   -17103107.04849 -13310749.47847  21623566.846    21623571.401
       235.000         191.000
  20466390.759   -23582478.99649 -18357610.31648  20466390.952    20466395.191
       247.000         214.000
  23502587.188   -13306056.99549 -10329938.18946  23502586.108    23502592.472
       217.000         163.000
 99  4 24  0 22  0.0000000  0  7G30G21G17G23G26G 6G22
  24504264.807     6677211.62949   5221535.05845  24504265.890    24504277.047
       217.000         147.000
  24190357.861    -9340223.28349  -6911117.87345  24190355.365    24190365.469
       210.000         149.000
  21092875.158   -28580653.13349 -21253660.04547  21092874.657    21092879.299
       242.000         209.000
  21170804.767   -22464900.85749 -17125442.12247  21170804.357    21170809.356
       244.000         211.000
  21622282.710   -17109855.47649 -13316007.94847  21622282.595    21622287.424
       235.000         191.000
  20473469.122   -23545282.15749 -18328625.79248  20473469.082    20473473.378
       247.000         214.000
  23502596.038   -13306009.32949 -10329901.07746  23502595.672    23502601.081
       220.000         163.000
 99  4 24  0 22 30.0000000  0  7G30G21G17G23G26G 6G22
  24523044.367     6775897.93549   5298433.19945  24523045.339    24523056.790
       219.000         148.000
  24174388.541    -9424140.11049  -6976507.39445  24174386.680    24174396.864
       210.000         148.000
  21088093.458   -28605780.97149 -21273240.16347  21088093.087    21088097.576
       243.000         209.000
  21162983.475   -22506001.72749 -17157468.73747  21162982.832    21162988.035
       244.000         211.000
  21621107.313   -17116032.03449 -13320820.81147  21621107.649    21621111.689
       235.000         192.000
  20480630.134   -23507650.75849 -18299302.65448  20480630.225    20480634.451
       247.000         213.000
  23502696.756   -13305480.57549 -10329489.07446  23502696.222    23502702.595
       222.000         164.000
 99  4 24  0 23  0.0000000  0  7G30G21G17G23G26G 6G22
  24541806.285     6874490.73949   5375258.44245  24541807.520    24541818.385
       219.000         152.000
  24158450.063    -9507894.81149  -7041770.58645  24158447.465    24158458.519
       209.000         145.000
  21083329.990   -28630813.16649 -21292745.75047  21083329.385    21083334.230
       243.000         209.000
  21155234.786   -22546720.67849 -17189197.75147  21155234.306    21155239.459
       243.000         211.000
  21620041.997   -17121630.13949 -13325182.93447  21620042.156    21620046.584
       237.000         192.000
  20487881.343   -23469545.64349 -18269610.38148  20487881.515    20487885.593
       247.000         213.000
  23502892.964   -13304450.54449 -10328686.47446  23502893.096    23502898.982
       221.000         165.000
 99  4 24  0 23 30.0000000  0  7G30G21G17G23G26G 6G22
  24560553.563     6973006.96049   5452024.00345  24560554.682    24560565.634
       217.000         153.000
  24142550.364    -9591445.62649  -7106874.92645  24142549.021    24142558.688
       208.000         144.000
  21078591.976   -28655711.46449 -21312147.00147  21078591.765    21078596.102
       244.000         210.000
  21147567.560   -22587012.05949 -17220593.59147  21147567.084    21147571.996
       244.000         211.000
  21619089.882   -17126633.63249 -13329081.71847  21619090.195    21619094.811
       236.000         193.000
  20495234.312   -23430905.86949 -18239501.48548  20495234.255    20495238.513
       246.000         213.000
  23503187.192   -13302905.03749 -10327482.20346  23503186.742    23503192.563
       221.000         165.000
 99  4 24  0 24  0.0000000  0  7G30G21G17G23G26G 6G22
  24579287.667     7071454.38949   5528735.95445  24579288.683    24579299.617
       217.000         156.000
  24126693.565    -9674772.13349  -7171804.47945  24126693.028    24126701.291
       212.000         145.000
  21073885.629   -28680443.75349 -21331418.89547  21073885.143    21073889.624
       244.000         210.000
  21139980.575   -22626881.49649 -17251660.64947  21139980.056    21139985.068
       244.000         212.000
  21618251.086   -17131041.33449 -13332516.24247  21618251.166    21618256.128
       236.000         193.000
  20502695.896   -23391694.79549 -18208947.42348  20502695.849    20502700.212
       246.000         213.000
  23503579.267   -13300844.71149 -10325876.76346  23503578.331    23503584.552
       221.000         165.000
 99  4 24  0 24 30.0000000  0  7G30G21G17G23G26G 6G22
  24598006.262     7169819.14249   5605383.47745  24598006.914    24598019.647
       215.000         158.000
  24110880.021    -9757873.12249  -7236558.31545  24110879.156    24110887.550
       211.000         144.000
  21069214.936   -28704988.22449 -21350544.43747  21069214.376    21069218.994
       243.000         210.000
  21132472.522   -22666336.42249 -17282404.71147  21132472.144    21132476.974
       244.000         212.000
  21617526.820   -17134847.32949 -13335481.90947  21617527.137    21617531.503
       237.000         192.000
  20510265.794   -23351914.39749 -18177949.73048  20510265.699    20510270.242
       246.000         213.000
  23504066.115   -13298286.00549 -10323882.97646  23504065.584    23504072.462
       220.000         165.000
 99  4 24  0 25  0.0000000  0  7G30G21G17G23G26G 6G22
  24616711.615     7268114.91249   5681977.23945  24616712.375    24616724.028
       212.000         155.000
  24095116.774    -9840708.80949  -7301105.39945  24095115.289    24095124.625
       214.000         147.000
  21064587.325   -28729306.46249 -21369493.69347  21064586.870    21064591.564
       243.000         210.000
  21125050.989   -22705336.81349 -17312794.59247  21125050.362    21125055.350
       244.000         212.000
  21616926.012   -17138004.45749 -13337941.97447  21616926.383    21616930.328
       236.000         192.000
  20517948.939   -23311539.20349 -18146488.56148  20517949.139    20517953.369
       247.000         214.000
  23504651.594   -13295209.31749 -10321485.56346  23504651.798    23504657.191
       223.000         165.000
 99  4 24  0 25 30.0000000  0  7G30G21G17G23G26G 6G22
  24635395.560     7366298.07049   5758483.26045  24635397.329    24635407.541
       211.000         152.000
  24079396.099    -9923320.26349  -7365477.76045  24079395.731    24079404.719
       213.000         150.000
  21059998.536   -28753420.71149 -21388284.00547  21059997.977    21060002.456
       242.000         209.000
  21117705.951   -22743935.06249 -17342871.11347  21117705.627    21117710.447
       244.000         212.000
  21616445.933   -17140526.79349 -13339907.39747  21616446.116    21616450.256
       235.000         191.000
  20525735.851   -23270618.84249 -18114602.58948  20525736.248    20525740.536
       247.000         214.000
  23505328.420   -13291653.75449 -10318714.98746  23505327.800    23505333.539
       222.000         166.000
 99  4 24  0 26  0.0000000  0  7G30G21G17G23G26G 6G22
  24654055.206     7464354.47149   5834890.45645  24654054.763    24654068.564
       203.000         149.000
  24063714.093   -10005729.66649  -7429692.67645  24063713.648    24063722.183
       214.000         149.000
  21055443.388   -28777358.00149 -21406936.42647  21055442.900    21055447.495
       243.000         209.000
  21110433.380   -22782152.53449 -17372650.92147  21110433.291    21110438.067
       244.000         212.000
  21616086.137   -17142417.01749 -13341380.27247  21616086.215    21616090.747
       236.000         191.000
  20533618.182   -23229197.39749 -18082326.16148  20533618.392    20533622.526
       247.000         213.000
  23506093.955   -13287630.57049 -10315580.04346  23506092.451    23506099.567
       222.000         166.000
 99  4 24  0 26 30.0000000  0  7G30G21G17G23G26G 6G22
  24672692.075     7562291.33449   5911204.51045  24672694.299    24672704.768
       204.000         146.000
  24048069.805   -10087941.08149  -7493753.34245  24048069.308    24048076.633
       216.000         150.000
  21050917.826   -28801139.97749 -21425467.82047  21050917.353    21050922.004
       243.000         210.000
  21103237.330   -22819968.26049 -17402117.68047  21103236.983    21103241.917
       244.000         212.000
  21615846.677   -17143675.03649 -13342360.51547  21615847.100    21615851.551
       236.000         192.000
  20541593.840   -23187285.24449 -18049667.35748  20541593.711    20541598.323
       246.000         213.000
  23506949.888   -13283132.20549 -10312074.81646  23506949.497    23506955.532
       220.000         165.000
 99  4 24  0 27  0.0000000  0  7G30G21G17G23G26G 6G22
  24691303.528     7660093.55549   5987413.65045  24691304.845    24691317.305
       200.000         144.000
  24032455.116   -10169996.37749  -7557692.30345  24032453.299    24032463.452
       212.000         153.000
  21046413.606   -28824809.94249 -21443911.93247  21046412.971    21046417.601
       244.000         210.000
  21096111.381   -22857415.23949 -17431297.10948  21096110.946    21096115.602
       244.000         213.000
  21615717.984   -17144351.30549 -13342887.45247  21615718.100    21615722.949
       236.000         193.000
  20549657.715   -23144909.16849 -18016647.05847  20549657.438    20549662.153
       246.000         212.000
  23507894.283   -13278168.33049 -10308206.87146  23507892.914    23507899.222
       219.000         165.000
 99  4 24  0 27 30.0000000  0  7G30G21G17G23G26G 6G22
  24709897.239     7757803.14749   6063550.60045  24709898.363    24709911.506
       200.000         140.000
  24016876.746   -10251859.33649  -7621481.39945  24016875.573    24016885.015
       214.000         153.000
  21041937.116   -28848333.98649 -21462242.33847  21041936.530    21041940.938
       244.000         211.000
  21089064.546   -22894446.33149 -17460152.46548  21089064.085    21089068.994
       244.000         213.000
  21615704.160   -17144423.84449 -13342943.95047  21615704.309    21615709.004
       236.000         193.000
  20557820.455   -23102013.23249 -17983221.67547  20557820.457    20557824.776
       246.000         212.000
  23508937.860   -13272683.12749 -10303932.68246  23508937.541    23508944.344
       219.000         164.000
 99  4 24  0 28  0.0000000  0  7G30G21G17G23G26G 6G22
  24728478.148     7855444.72149   6139634.54345  24728478.750    24728491.434
       201.000         138.000
  24001340.886   -10333499.77349  -7685097.10545  24001339.848    24001349.990
       214.000         155.000
  21037489.469   -28871706.55749 -21480454.71647  21037488.929    21037493.472
       244.000         211.000
  21082102.518   -22931031.76149 -17488660.55448  21082102.004    21082107.048
       244.000         213.000
  21615806.382   -17143886.61049 -13342525.30847  21615806.569    21615811.114
       235.000         193.000
  20566084.554   -23058585.20549 -17949381.68847  20566084.776    20566088.942
       246.000         212.000
  23510084.756   -13266655.85149 -10299236.09346  23510083.168    23510091.381
       214.000         163.000
 99  4 24  0 28 30.0000000  0  7G30G21G17G23G26G 6G22
  24747041.262     7952994.23849   6215646.77645  24747041.959    24747055.098
       208.000         140.000
  23985841.446   -10414949.36849  -7748564.12745  23985840.968    23985848.698
       215.000         156.000
  21033068.616   -28894938.25949 -21498557.31847  21033068.100    21033072.616
       243.000         210.000
  21075219.000   -22967204.47049 -17516847.03448  21075218.440    21075223.564
       245.000         213.000
  21616019.301   -17142767.33449 -13341653.12747  21616019.451    21616024.040
       235.000         192.000
  20574443.579   -23014658.91449 -17915153.43248  20574443.829    20574447.947
       247.000         213.000
  23511329.192   -13260115.28449 -10294139.53846  23511327.517    23511336.059
       216.000         163.000
 99  4 24  0 29  0.0000000  0  7G30G21G17G23G26G 6G22
  24765591.304     8050473.21349   6291604.02145  24765592.367    24765605.039
       211.000         141.000
  23970383.282   -10496181.89249  -7811862.00745  23970381.750    23970390.209
       214.000         155.000
  21028681.145   -28917994.33949 -21516523.07647  21028680.487    21028684.869
       242.000         210.000
  21068418.252   -23002942.50049 -17544694.80948  21068417.888    21068422.780
       245.000         213.000
  21616350.943   -17141024.55649 -13340295.09947  21616351.171    21616355.902
       235.000         192.000
  20582899.944   -22970220.94649 -17880526.46348  20582900.045    20582904.437
       246.000         213.000
  23512673.676   -13253048.55049 -10288633.00046  23512673.315    23512680.744
       215.000         163.000
 99  4 24  0 29 30.0000000  0  7G30G21G17G23G26G 6G22
  24784112.473     8147800.82349   6367443.36645  24784114.894    24784125.457
       214.000         140.000
  23954956.077   -10577251.13849  -7875032.63445  23954955.240    23954963.995
       216.000         157.000
  21024314.177   -28940942.62549 -21534404.84547  21024313.621    21024318.140
       243.000         209.000
  21061688.780   -23038306.04249 -17572250.77348  21061688.147    21061693.400
       245.000         213.000
  21616793.108   -17138700.95749 -13338484.49447  21616793.605    21616798.037
       235.000         192.000
  20591437.147   -22925357.42549 -17845567.89747  20591436.545    20591441.484
       245.000         212.000
  23514102.560   -13245539.58849 -10282781.87246  23514102.516    23514109.295
       218.000         163.000
 99  4 24  0 30  0.0000000  0  7G30G21G17G23G26G 6G22
  24802615.702     8245034.21549   6443209.29545  24802616.886    24802627.067
       212.000         135.000
  23939571.371   -10658097.69149  -7938029.73645  23939571.270    23939578.773
       216.000         157.000
  21019980.239   -28963717.41949 -21552151.42547  21019979.641    21019984.132
       242.000         209.000
  21055040.478   -23073242.92849 -17599474.28148  21055039.919    21055044.807
       244.000         214.000
  21617358.948   -17135727.46849 -13336167.46847  21617359.433    21617364.173
       236.000         192.000
  20600061.625   -22880034.80749 -17810251.60347  20600061.574    20600066.278
       244.000         211.000
  23515624.629   -13237541.09149 -10276549.28846  23515624.382    23515631.330
       216.000         163.000
 99  4 24  0 30 30.0000000  0  6G21G17G23G26G 6G22
  23924219.390   -10738773.11849  -8000893.53445  23924220.097    23924226.435
       219.000         158.000
  21015670.293   -28986366.25149 -21569799.86147  21015669.974    21015674.272
       242.000         210.000
  21048464.864   -23107797.79849 -17626400.12048  21048464.571    21048469.309
       245.000         213.000
  21618037.995   -17132159.18549 -13333386.96447  21618039.033    21618043.045
       237.000         192.000
  20608767.127   -22834286.57949 -17774603.66047  20608767.277    20608771.690
       245.000         211.000
  23517229.275   -13229109.63049 -10269979.31946  23517228.541    23517235.526
       215.000         163.000
 99  4 24  0 31  0.0000000  0  6G21G17G23G26G 6G22
  23908904.656   -10819252.26749  -8063604.37545  23908903.790    23908912.068
       218.000         159.000
  21011384.665   -29008887.34849 -21587348.75847  21011384.141    21011388.624
       243.000         210.000
  21041965.053   -23141954.46749 -17653015.66548  21041964.741    21041969.455
       245.000         214.000
  21618831.499   -17127989.51649 -13330137.84247  21618831.444    21618836.562
       237.000         193.000
  20617559.889   -22788080.90649 -17738599.26647  20617560.160    20617564.476
       246.000         211.000
  23518919.259   -13220228.38049 -10263058.87546  23518918.621    23518925.544
       217.000         163.000
 99  4 24  0 31 30.0000000  0  6G21G17G23G26G 6G22
  23893636.939   -10899484.13249  -8126122.52045  23893636.230    23893644.400
       217.000         160.000
  21007133.138   -29031229.12149 -21604757.92347  21007132.665    21007137.278
       243.000         211.000
  21035548.528   -23175673.35349 -17679290.08948  21035548.133    21035552.737
       245.000         214.000
  21619746.100   -17123182.98849 -13326392.46847  21619746.051    21619751.314
       237.000         193.000
  20626452.051   -22741352.82749 -17702187.81047  20626452.574    20626456.513
       246.000         211.000
  23520708.084   -13210828.08949 -10255733.97746  23520706.823    23520714.954
       217.000         163.000
 99  4 24  0 32  0.0000000  0  6G21G17G23G26G 6G22
  23878406.163   -10979521.06849  -8188488.79145  23878404.015    23878413.486
       217.000         160.000
  21002907.351   -29053435.86649 -21622061.87747  21002906.700    21002911.529
       243.000         211.000
  21029205.194   -23209007.89449 -17705265.02648  21029204.675    21029209.446
       245.000         214.000
  21620770.267   -17117801.05349 -13322198.72447  21620770.562    21620775.063
       235.000         192.000
  20635438.819   -22694127.31549 -17665388.73547  20635439.003    20635443.214
       245.000         211.000
  23522586.440   -13200957.03349 -10248042.23646  23522585.863    23522593.405
       217.000         163.000
 99  4 24  0 32 30.0000000  0  6G21G17G23G26G 6G22
  23863222.446   -11059310.58749  -8250662.27245  23863221.895    23863230.009
       216.000         159.000
  20998714.855   -29075467.47249 -21639229.35747  20998714.313    20998719.038
       243.000         211.000
  21022943.361   -23241913.81049 -17730905.96648  21022942.879    21022947.744
       245.000         214.000
  21621913.877   -17111791.00149 -13317515.54947  21621913.701    21621918.077
       234.000         192.000
  20644532.124   -22646341.68449 -17628153.20047  20644531.768    20644536.557
       243.000         211.000
  23524564.912   -13190560.06849 -10239940.72246  23524564.823    23524571.477
       218.000         164.000
 99  4 24  0 33  0.0000000  0  6G21G17G23G26G 6G22
  23848078.410   -11138891.81249  -8312673.44245  23848077.819    23848086.416
       218.000         160.000
  20994551.638   -29097344.96149 -21656276.74447  20994551.155    20994555.857
       243.000         210.000
  21016755.219   -23274432.35649 -17756245.06048  21016755.043    21016759.853
       245.000         214.000
  21623174.871   -17105163.74049 -13312351.43647  21623174.748    21623179.539
       234.000         191.000
  20653724.017   -22598037.45649 -17590513.56847  20653723.944    20653728.815
       244.000         210.000
  23526639.867   -13179657.21849 -10231445.00146  23526639.566    23526646.066
       218.000         164.000
 99  4 24  0 33 30.0000000  0  6G21G17G23G26G 6G22
  23832967.337   -11218300.56849  -8374550.21345  23832967.320    23832974.930
       221.000         161.000
  20990414.203   -29119087.26849 -21673218.79347  20990413.989    20990418.425
       242.000         210.000
  21010635.338   -23306592.37249 -17781304.78048  21010635.020    21010639.893
       245.000         214.000
  21624550.975   -17097932.12249 -13306716.38547  21624551.275    21624555.531
       233.000         191.000
  20663008.487   -22549247.24049 -17552495.24647  20663008.757    20663013.185
       245.000         211.000
  23528804.301   -13168284.31949 -10222583.00946  23528804.488    23528809.172
       222.000         165.000
 99  4 24  0 34  0.0000000  0  6G21G17G23G26G 6G22
  23817893.639   -11297513.80149  -8436274.63345  23817893.036    23817900.700
       220.000         161.000
  20986306.132   -29140675.44249 -21690040.74247  20986305.633    20986310.039
       242.000         209.000
  21004588.232   -23338370.02849 -17806066.57248  21004588.056    21004592.946
       245.000         214.000
  21626046.528   -17090072.88949 -13300592.30047  21626046.759    21626051.398
       235.000         192.000
  20672387.556   -22499960.07849 -17514089.70247  20672387.434    20672392.118
       245.000         210.000
  23531057.421   -13156445.24149 -10213357.77046  23531057.398    23531062.770
       220.000         165.000
 99  4 24  0 34 30.0000000  0  6G21G17G23G26G 6G22
  23802844.071   -11376600.21349  -8497900.23345  23802844.204    23802851.775
       220.000         162.000
  20982214.643   -29162176.13949 -21706794.52047  20982213.946    20982218.799
       242.000         209.000
  20998599.516   -23369840.76849 -17830589.19648  20998599.192    20998604.368
       245.000         214.000
  21627648.984   -17081652.11249 -13294030.63047  21627649.060    21627653.441
       236.000         192.000
  20681845.212   -22450259.72849 -17475362.19147  20681845.496    20681849.676
       245.000         210.000
  23533387.291   -13144202.93849 -10203818.32446  23533387.745    23533392.211
       219.000         164.000
 99  4 24  0 35  0.0000000  0  6G21G17G23G26G 6G22
  23787836.003   -11455467.37349  -8559354.96345  23787835.724    23787843.372
       219.000         162.000
  20978158.232   -29183492.63649 -21723404.76947  20978157.724    20978162.223
       242.000         210.000
  20992687.405   -23400909.31249 -17854798.43148  20992687.105    20992691.877
       245.000         215.000
  21629373.725   -17072588.52549 -13286968.07547  21629373.946    21629378.121
       236.000         192.000
  20691399.125   -22400054.08849 -17436240.94147  20691399.252    20691403.444
       245.000         210.000
  23535808.869   -13131477.79149 -10193902.62846  23535809.018    23535813.910
       220.000         164.000
 99  4 24  0 35 30.0000000  0  6G21G17G23G26G 6G22
  23772873.742   -11534094.09349  -8620622.36245  23772872.843    23772879.910
       219.000         162.000
  20974135.277   -29204633.25349 -21739877.97447  20974134.899    20974139.680
       243.000         210.000
  20986853.810   -23431564.86549 -17878685.85848  20986853.384    20986858.304
       245.000         215.000
  21631218.755   -17062892.66649 -13279412.83547  21631218.959    21631223.533
       236.000         192.000
  20701051.128   -22349332.61649 -17396717.74347  20701051.011    20701055.719
       243.000         209.000
  23538320.775   -13118278.09549 -10183617.17246  23538320.380    23538325.777
       220.000         164.000
 99  4 24  0 36  0.0000000  0  6G21G17G23G26G 6G22
  23757948.989   -11612523.54949  -8681736.04445  23757947.855    23757955.821
       217.000         161.000
  20970134.322   -29225658.46649 -21756261.25147  20970133.898    20970138.592
       244.000         211.000
  20981088.764   -23461860.00649 -17902292.44548  20981088.345    20981093.219
       245.000         214.000
  21633173.343   -17052620.94149 -13271408.87847  21633173.396    21633177.966
       236.000         192.000
  20710792.093   -22298143.03649 -17356829.78647  20710791.927    20710796.952
       243.000         209.000
  23540913.796   -13104652.55349 -10172999.88146  23540913.165    23540919.726
       221.000         164.000
 99  4 24  0 36 30.0000000  0  6G21G17G23G26G 6G22
  23743063.120   -11690747.66449  -8742689.73845  23743062.470    23743070.914
       219.000         161.000
  20966156.170   -29246564.01249 -21772551.28047  20966155.862    20966160.434
       243.000         212.000
  20975392.831   -23491792.20349 -17925616.21748  20975392.348    20975397.103
       245.000         214.000
  21635240.858   -17041755.88049 -13262942.57547  21635241.064    21635245.274
       236.000         191.000
  20720624.723   -22246472.02349 -17316566.68647  20720625.000    20720629.664
       244.000         209.000
  23543592.584   -13090576.57249 -10162031.58346  23543591.930    23543597.639
       221.000         165.000
 99  4 24  0 37  0.0000000  0  6G21G17G23G26G 6G22
  23728221.742   -11768739.22149  -8803462.20046  23728220.884    23728228.586
       220.000         163.000
  20962205.126   -29267326.84249 -21788730.10547  20962204.748    20962209.565
       245.000         212.000
  20969773.896   -23521319.51849 -17948624.49348  20969773.428    20969778.345
       245.000         214.000
  21637427.304   -17030265.97849 -13253989.38547  21637427.421    21637432.112
       234.000         191.000
  20730553.261   -22194297.57049 -17275911.30547  20730553.586    20730558.196
       245.000         210.000
  23546359.837   -13076034.61149 -10150700.19546  23546358.955    23546363.871
       219.000         164.000
 99  4 24  0 37 30.0000000  0  6G21G17G23G26G 6G22
  23713417.713   -11846534.11349  -8864081.42345  23713416.953    23713425.500
       217.000         162.000
  20958276.657   -29287970.94349 -21804816.41547  20958276.357    20958281.014
       245.000         212.000
  20964226.155   -23550472.91849 -17971341.40348  20964225.798    20964230.704
       247.000         215.000
  21639728.565   -17018172.83249 -13244566.13947  21639729.017    21639733.459
       234.000         190.000
  20740569.659   -22141661.72349 -17234896.39247  20740569.952    20740574.317
       245.000         210.000
  23549210.433   -13061054.37949 -10139027.28946  23549208.842    23549215.405
       219.000         164.000
 99  4 24  0 38  0.0000000  0  6G21G17G23G26G 6G22
  23698647.394   -11924152.10349  -8924562.82246  23698647.408    23698653.662
       220.000         163.000
  20954372.189   -29308488.92149 -21820804.44747  20954371.890    20954376.436
       245.000         211.000
  20958749.487   -23579253.02549 -17993767.43348  20958749.040    20958753.958
       247.000         215.000
  21642144.801   -17005475.29049 -13234671.93747  21642144.985    21642149.005
       233.000         190.000
  20750670.460   -22088581.95349 -17193535.56247  20750670.410    20750674.762
       244.000         209.000
  23552144.663   -13045634.66749 -10127011.93646  23552144.739    23552149.982
       220.000         165.000
 99  4 24  0 38 30.0000000  0  6G21G17G23G26G 6G22
  23683911.673   -12001588.06749  -8984902.36045  23683910.870    23683919.256
       219.000         162.000
  20950495.963   -29328858.72949 -21836677.01747  20950495.484    20950500.191
       245.000         211.000
  20953347.360   -23607641.01049 -18015887.91348  20953346.930    20953351.809
       247.000         215.000
  21644675.589   -16992175.71949 -13224308.62847  21644675.443    21644680.429
       234.000         191.000
  20760856.020   -22035056.21449 -17151827.22747  20760855.889    20760860.530
       243.000         208.000
  23555164.756   -13029763.60149 -10114644.89646  23555164.099    23555169.763
       220.000         165.000
 99  4 24  0 39  0.0000000  0  6G21G17G23G26G 6G22
  23669220.557   -12078789.54949  -9045059.18145  23669220.140    23669227.899
       218.000         161.000
  20946659.774   -29349018.07849 -21852385.59347  20946659.459    20946664.111
       244.000         211.000
  20948033.174   -23635567.33749 -18037648.65448  20948032.749    20948037.490
       246.000         215.000
  21647329.435   -16978229.66349 -13213441.55947  21647329.626    21647334.132
       235.000         191.000
  20771137.824   -21981024.77349 -17109724.83547  20771137.870    20771142.642
       243.000         208.000
  23558278.592   -13013400.31549 -10101894.29346  23558277.954    23558283.888
       219.000         165.000
 99  4 24  0 39 30.0000000  0  6G21G17G23G26G 6G22
  23654580.808   -12155721.09449  -9105005.67545  23654580.135    23654587.672
       221.000         162.000
  20942869.675   -29368935.12149 -21867905.35447  20942869.303    20942873.956
       245.000         211.000
  20942811.116   -23663009.30049 -18059031.97648  20942810.754    20942815.595
       246.000         215.000
  21650111.241   -16963611.05649 -13202050.42047  21650111.430    21650115.839
       235.000         192.000
  20781524.871   -21926440.50649 -17067191.66947  20781525.080    20781529.600
       244.000         208.000
  23561491.969   -12996514.47249 -10088736.49746  23561491.639    23561496.879
       223.000         166.000
 99  4 24  0 40  0.0000000  0  6G21G17G23G26G 6G22
  23639989.765   -12232396.69049  -9164752.72546  23639989.746    23639996.778
       218.000         163.000
  20939119.463   -29388642.58049 -21883261.80847  20939118.900    20939123.567
       245.000         211.000
  20937675.763   -23689995.70249 -18080060.31248  20937675.519    20937680.204
       246.000         215.000
  21653012.943   -16948362.57849 -13190168.48447  21653013.571    21653017.880
       236.000         193.000
  20792015.307   -21871313.19249 -17024235.35247  20792015.657    20792019.892
       244.000         209.000
  23564800.276   -12979130.00749 -10075190.18346  23564799.579    23564804.626
       222.000         167.000
 99  4 24  0 40 30.0000000  0  6G21G17G23G26G 6G22
  23625445.930   -12308824.70049  -9224306.84846  23625444.775    23625452.472
       220.000         163.000
  20935403.684   -29408168.92049 -21898477.12847  20935403.062    20935407.794
       244.000         211.000
  20932621.967   -23716553.68049 -18100754.80648  20932621.678    20932626.585
       246.000         215.000
  21656030.964   -16932502.80549 -13177810.20147  21656030.892    21656035.980
       236.000         193.000
  20802607.962   -21815648.74549 -16980860.49047  20802608.194    20802612.737
       244.000         209.000
  23568198.613   -12961272.08549 -10061274.92546  23568198.056    23568203.349
       222.000         168.000
 99  4 24  0 41  0.0000000  0  6G21G17G23G26G 6G22
  23610951.356   -12384993.57949  -9283659.09346  23610950.589    23610958.531
       220.000         163.000
  20931721.410   -29427519.40049 -21913555.42747  20931721.161    20931725.726
       244.000         212.000
  20927647.705   -23742693.46449 -18121123.44548  20927647.461    20927652.501
       247.000         216.000
  21659169.397   -16916010.00249 -13164958.65047  21659169.569    21659174.474
       235.000         192.000
  20813302.746   -21759447.27149 -16937067.17347  20813302.630    20813307.200
       243.000         209.000
  23571686.325   -12942944.04149 -10046993.35046  23571685.542    23571691.962
       222.000         168.000
 99  4 24  0 41 30.0000000  0  6G21G17G23G26G 6G22
  23596502.265   -12460922.71349  -9342824.48746  23596500.982    23596507.542
       218.000         163.000
  20928067.836   -29446719.42149 -21928516.47447  20928067.380    20928072.111
       245.000         212.000
  20922747.196   -23768445.74449 -18141190.12248  20922746.814    20922751.625
       247.000         216.000
  21662424.637   -16898903.70949 -13151629.05547  21662424.625    21662429.232
       234.000         191.000
  20824094.700   -21702735.04949 -16892875.85647  20824094.619    20824099.397
       242.000         208.000
  23575261.649   -12924154.97249 -10032352.52946  23575259.907    23575267.029
       219.000         167.000
 99  4 24  0 42  0.0000000  0  6G21G17G23G26G 6G22
  23582091.800   -12536648.91749  -9401831.76946  23582091.578    23582098.832
       221.000         163.000
  20924435.377   -29465808.05249 -21943390.73147  20924435.095    20924439.580
       245.000         212.000
  20917913.810   -23793845.23749 -18160981.90548  20917913.380    20917918.231
       246.000         216.000
  21665790.961   -16881213.23149 -13137844.25847  21665791.055    21665795.695
       233.000         190.000
  20834975.882   -21645554.02749 -16848319.24847  20834976.336    20834980.956
       243.000         207.000
  23578920.025   -12904928.05249 -10017370.53546  23578918.185    23578925.560
       219.000         166.000
 99  4 24  0 42 30.0000000  0  6G21G17G23G26G 6G22
  23567722.412   -12612160.68749  -9460671.99446  23567722.016    23567728.708
       220.000         163.000
  20920826.070   -29484775.43549 -21958170.50848  20920825.654    20920830.057
       245.000         213.000
  20913150.112   -23818878.38549 -18180488.23048  20913149.588    20913154.474
       247.000         216.000
  21669273.186   -16862913.86949 -13123585.00647  21669273.414    21669277.843
       232.000         189.000
  20845945.601   -21587908.21349 -16803400.46647  20845945.862    20845950.390
       244.000         208.000
  23582662.550   -12885260.66149 -10002045.32846  23582661.483    23582666.831
       220.000         166.000
 99  4 24  0 43  0.0000000  0  6G21G17G23G26G 6G22
  23553390.694   -12687473.77749  -9519357.37746  23553389.987    23553396.560
       221.000         163.000
  20917238.130   -29503629.97349 -21972862.34748  20917237.738    20917242.325
       245.000         213.000
  20908453.553   -23843558.64249 -18199719.56948  20908453.189    20908457.928
       247.000         216.000
  21672864.648   -16844040.27549 -13108878.29747  21672864.808    21672869.382
       233.000         189.000
  20856996.311   -21529836.67949 -16758149.95047  20856996.482    20857001.045
       244.000         208.000
  23586484.986   -12865173.48749  -9986392.99446  23586483.987    23586490.405
       219.000         165.000
 99  4 24  0 43 30.0000000  0  6G21G17G23G26G 6G22
  23539101.745   -12762562.21849  -9577867.73046  23539100.979    23539108.321
       221.000         164.000
  20913679.087   -29522332.81849 -21987435.97748  20913678.572    20913683.430
       245.000         213.000
  20903831.357   -23867848.27249 -18218646.52548  20903830.959    20903835.940
       247.000         216.000
  21676568.776   -16824574.98549 -13093710.52447  21676569.014    21676573.710
       233.000         189.000
  20868134.029   -21471307.71249 -16712542.98847  20868134.251    20868138.992
       243.000         208.000
  23590394.647   -12844627.57549  -9970383.22446  23590393.580    23590399.947
       219.000         164.000
 99  4 24  0 44  0.0000000  0  6G21G17G23G26G 6G22
  23524857.065   -12837418.02949  -9636196.82046  23524856.491    23524863.546
       220.000         165.000
  20910152.342   -29540865.88149 -22001877.31247  20910151.843    20910156.362
       244.000         212.000
  20899283.107   -23891749.34949 -18237270.72148  20899282.838    20899287.407
       247.000         216.000
  21680386.412   -16804513.08949 -13078077.86547  21680386.721    21680391.008
       233.000         190.000
  20879356.915   -21412331.09849 -16666587.21447  20879356.982    20879361.865
       242.000         208.000
  23594390.165   -12823629.90749  -9954021.41946  23594389.274    23594396.511
       216.000         163.000
 99  4 24  0 44 30.0000000  0  6G21G17G23G26G 6G22
  23510660.342   -12912021.41349  -9694329.21246  23510659.339    23510666.493
       220.000         166.000
  20906667.060   -29559180.86849 -22016148.71947  20906666.606    20906671.412
       244.000         212.000
  20894811.304   -23915248.78349 -18255581.94448  20894811.013    20894815.792
       247.000         216.000
  21684322.242   -16783830.06749 -13061961.21847  21684322.516    21684326.997
       234.000         191.000
  20890668.059   -21352890.58049 -16620269.95347  20890668.001    20890672.959
       242.000         207.000
  23598475.235   -12802161.61849  -9937292.90845  23598473.737    23598481.992
       216.000         162.000
 99  4 24  0 45  0.0000000  0  6G21G17G23G26G 6G22
  23496501.336   -12986426.51749  -9752307.09746  23496500.561    23496507.121
       221.000         165.000
  20903217.286   -29577309.67549 -22030275.05347  20903216.684    20903221.421
       244.000         212.000
  20890406.436   -23938396.50849 -18273619.10548  20890406.163    20890410.899
       247.000         216.000
  21688370.303   -16762557.46549 -13045385.15947  21688370.613    21688375.335
       235.000         192.000
  20902060.482   -21293022.85849 -16573619.81647  20902060.924    20902065.271
       244.000         207.000
  23602644.449   -12780251.58149  -9920220.14745  23602643.970    23602651.699
       219.000         162.000
 99  4 24  0 45 30.0000000  0  6G21G17G23G26G 6G22
  23482375.324   -13060658.66449  -9810150.22646  23482375.000    23482382.730
       220.000         166.000
  20899797.041   -29595282.85349 -22044280.11447  20899796.832    20899801.372
       245.000         212.000
  20886063.742   -23961217.25249 -18291401.47248  20886063.399    20886068.080
       247.000         216.000
  21692531.125   -16740692.30349 -13028347.36247  21692531.403    21692535.761
       235.000         193.000
  20913534.143   -21232728.78349 -16526637.45247  20913534.551    20913538.869
       243.000         207.000
  23606894.852   -12757914.95849  -9902815.00545  23606894.757    23606901.383
       219.000         161.000
 99  4 24  0 46  0.0000000  0  6G21G17G23G26G 6G22
  23468284.466   -13134706.60249  -9867849.79746  23468284.725    23468291.205
       221.000         167.000
  20896407.176   -29613096.63449 -22058160.96647  20896406.479    20896411.416
       244.000         212.000
  20881783.054   -23983712.25549 -18308930.02048  20881782.873    20881787.535
       247.000         217.000
  21696807.372   -16718220.09749 -13010836.53847  21696808.062    21696812.281
       235.000         193.000
  20925089.855   -21172003.65649 -16479319.20647  20925089.992    20925094.414
       243.000         207.000
  23611227.348   -12735147.91249  -9885074.47645  23611226.968    23611233.792
       217.000         161.000
 99  4 24  0 46 30.0000000  0  6G21G17G23G26G 6G22
  23454221.239   -13208609.69949  -9925436.50946  23454220.741    23454227.796
       222.000         168.000
  20893036.943   -29630807.02849 -22071961.26147  20893036.362    20893041.112
       245.000         212.000
  20877560.010   -24005904.37849 -18326222.56248  20877559.636    20877564.490
       247.000         217.000
  21701192.258   -16695177.39849 -12992881.17947  21701192.917    21701196.873
       235.000         193.000
  20936722.273   -21110874.71949 -16431686.30447  20936722.299    20936727.213
       242.000         207.000
  23615634.469   -12711989.17349  -9867028.72145  23615634.397    23615641.004
       216.000         161.000
 99  4 24  0 47  0.0000000  0  6G21G17G23G26G 6G22
  23440192.182   -13282332.82949  -9982883.01046  23440191.713    23440198.477
       221.000         168.000
  20889686.425   -29648413.89649 -22085680.89247  20889685.761    20889690.539
       245.000         212.000
  20873404.107   -24027743.63049 -18343240.13848  20873403.943    20873408.833
       247.000         217.000
  21705689.275   -16671545.59449 -12974466.78647  21705689.414    21705694.010
       234.000         192.000
  20948437.107   -21049312.90549 -16383716.10047  20948437.049    20948442.031
       242.000         207.000
  23620118.614   -12688425.29549  -9848667.27745  23620118.842    23620124.969
       219.000         162.000
 99  4 24  0 47 30.0000000  0  6G21G17G23G26G 6G22
  23426208.355   -13355817.35049 -10040143.56146  23426207.534    23426214.811
       221.000         169.000
  20886364.978   -29665867.86449 -22099281.37348  20886364.631    20886369.167
       244.000         213.000
  20869326.821   -24049169.86449 -18359935.88148  20869326.436    20869331.353
       247.000         217.000
  21710302.694   -16647301.64049 -12955575.38547  21710302.680    21710307.287
       233.000         191.000
  20960242.927   -20987272.70349 -16335373.10647  20960243.086    20960247.814
       242.000         206.000
  23624685.002   -12664429.01349  -9829968.87645  23624684.951    23624691.084
       220.000         162.000
 99  4 24  0 48  0.0000000  0  6G21G17G23G26G 6G22
  23412272.198   -13429051.57949 -10097209.11946  23412270.572    23412279.379
       220.000         169.000
  20883075.287   -29683155.42749 -22112752.20348  20883074.978    20883079.857
       245.000         213.000
  20865331.629   -24070164.59449 -18376295.39548  20865331.312    20865336.168
       247.000         217.000
  21715030.570   -16622456.41349 -12936215.46947  21715031.097    21715035.579
       233.000         190.000
  20972140.030   -20924753.06449 -16286656.54247  20972140.409    20972145.114
       242.000         206.000
  23629332.056   -12640009.13549  -9810940.41945  23629330.895    23629337.722
       220.000         162.000
 99  4 24  0 48 30.0000000  0  6G21G17G23G26G 6G22
  23398392.065   -13501990.91149 -10154044.85646  23398391.531    23398398.787
       221.000         169.000
  20879825.843   -29700231.30249 -22126058.08248  20879825.588    20879830.026
       245.000         213.000
  20861431.048   -24090662.28749 -18392267.60348  20861430.772    20861435.519
       247.000         217.000
  21719882.000   -16596961.97249 -12916349.65947  21719882.338    21719886.772
       233.000         189.000
  20984139.700   -20861694.75649 -16237520.23947  20984140.202    20984144.635
       243.000         207.000
  23634066.343   -12615129.93449  -9791554.04946  23634066.236    23634073.139
       219.000         163.000
 99  4 24  0 49  0.0000000  0  6G21G17G23G26G 6G22
  23384569.052   -13574631.25149 -10210647.62446  23384568.730    23384576.023
       222.000         170.000
  20876617.763   -29717090.22449 -22139194.90948  20876617.478    20876622.264
       244.000         214.000
  20857622.469   -24110676.43449 -18407863.02448  20857622.239    20857626.769
       247.000         217.000
  21724856.803   -16570819.49749 -12895978.90047  21724856.795    21724861.669
       232.000         188.000
  20996242.274   -20798095.83049 -16187962.68247  20996242.614    20996247.421
       242.000         206.000
  23638890.015   -12589782.37649  -9771802.73446  23638889.957    23638895.824
       223.000         165.000
 99  4 24  0 49 30.0000000  0  6G21G17G23G26G 6G22
  23370804.969   -13646962.15649 -10267009.26646  23370804.269    23370811.170
       223.000         170.000
  20873454.287   -29733714.35649 -22152148.77948  20873453.889    20873458.711
       244.000         214.000
  20853904.070   -24130216.86549 -18423089.31748  20853903.793    20853908.296
       246.000         217.000
  21729957.928   -16544012.85149 -12875090.60247  21729958.483    21729962.782
       233.000         188.000
  21008450.475   -20733941.29549 -16137972.18347  21008450.402    21008455.393
       241.000         206.000
  23643806.016   -12563950.14249  -9751673.75346  23643806.793    23643812.431
       222.000         166.000
 99  4 24  0 50  0.0000000  0  6G21G17G23G26G 6G22
  23357084.899   -13719061.67149 -10323190.60246  23357084.807    23357091.211
       223.000         171.000
  20870320.382   -29750183.17149 -22164981.62248  20870320.068    20870324.734
       244.000         213.000
  20850257.867   -24149377.73949 -18438019.84748  20850257.537    20850262.383
       247.000         217.000
  21735173.853   -16516602.91649 -12853732.19747  21735174.272    21735178.564
       233.000         189.000
  21020751.226   -20669300.27549 -16087602.60147  21020751.157    21020756.272
       241.000         205.000
  23648802.279   -12537695.60149  -9731215.68346  23648802.025    23648807.779
       222.000         166.000
 99  4 24  0 50 30.0000000  0  6G21G17G23G26G 6G22
  23343410.545   -13790920.25049 -10379184.20246  23343409.864    23343416.563
       223.000         170.000
  20867219.909   -29766476.08149 -22177677.40348  20867219.584    20867224.205
       244.000         213.000
  20846683.556   -24168160.80749 -18452655.99148  20846683.291    20846687.915
       247.000         217.000
  21740507.381   -16488575.06249 -12831892.31047  21740507.700    21740511.780
       234.000         189.000
  21033146.336   -20604163.65849 -16036846.84147  21033146.616    21033151.307
       242.000         205.000
  23653883.855   -12510991.99349  -9710407.69846  23653883.327    23653890.404
       221.000         166.000
 99  4 24  0 51  0.0000000  0  6G21G17G23G26G 6G22
  23329779.231   -13862552.39749 -10435001.37246  23329778.720    23329785.778
       223.000         170.000
  20864151.378   -29782601.38049 -22190242.58147  20864151.149    20864155.527
       244.000         212.000
  20843174.588   -24186600.40149 -18467024.49848  20843174.281    20843178.901
       247.000         217.000
  21745952.160   -16459962.51549 -12809596.81047  21745952.560    21745956.756
       234.000         190.000
  21045628.844   -20538567.78849 -15985733.22547  21045629.344    21045634.092
       242.000         205.000
  23659047.751   -12483855.70449  -9689262.55846  23659047.582    23659053.045
       221.000         166.000
 99  4 24  0 51 30.0000000  0  6G21G17G23G26G 6G22
  23316182.559   -13934002.37149 -10490676.57146  23316182.203    23316188.997
       223.000         171.000
  20861111.047   -29798578.66849 -22202692.41648  20861110.804    20861115.093
       244.000         213.000
  20839726.458   -24204720.43649 -18481143.99448  20839726.068    20839730.787
       247.000         217.000
  21751499.896   -16430808.90849 -12786879.70747  21751500.250    21751504.907
       234.000         191.000
  21058189.027   -20472563.90249 -15934301.67047  21058189.269    21058194.027
       241.000         205.000
  23664284.725   -12456335.31949  -9667818.14746  23664284.866    23664289.608
       222.000         166.000
 99  4 24  0 52  0.0000000  0  6G21G17G23G26G 6G22
  23302630.589   -14005218.39449 -10546169.48446  23302629.545    23302638.353
       223.000         171.000
  20858110.093   -29814348.67249 -22214980.73748  20858109.821    20858114.509
       245.000         213.000
  20836353.076   -24222447.58249 -18494957.33948  20836352.713    20836357.322
       247.000         217.000
  21757161.804   -16401055.23649 -12763695.02247  21757162.280    21757166.744
       233.000         192.000
  21070835.357   -20406107.17949 -15882517.26147  21070835.594    21070840.237
       241.000         205.000
  23669605.957   -12428372.46249  -9646028.94346  23669604.804    23669611.234
       221.000         166.000
 99  4 24  0 52 30.0000000  0  6G21G17G23G26G 6G22
  23289125.118   -14076190.14049 -10601472.05346  23289124.435    23289130.696
       225.000         171.000
  20855150.281   -29829902.58349 -22227100.67248  20855149.850    20855154.537
       245.000         213.000
  20833058.625   -24239759.84249 -18508447.40348  20833058.264    20833062.891
       247.000         217.000
  21762939.792   -16370691.69449 -12740035.12147  21762940.090    21762944.471
       234.000         192.000
  21083566.951   -20339202.06249 -15830383.45547  21083566.910    21083572.006
       240.000         204.000
  23675011.293   -12399966.52149  -9623894.49546  23675010.661    23675016.744
       220.000         165.000
 99  4 24  0 53  0.0000000  0  6G21G17G23G26G 6G22
  23275667.595   -14146910.15249 -10656578.43946  23275667.591    23275674.117
       224.000         170.000
  20852230.745   -29845244.99349 -22239055.79848  20852230.351    20852235.083
       244.000         213.000
  20829843.252   -24256656.72249 -18521613.78748  20829843.020    20829847.634
       247.000         217.000
  21768837.314   -16339699.89049 -12715885.66647  21768837.757    21768842.361
       233.000         192.000
  21096384.242   -20271846.52149 -15777898.66847  21096384.567    21096389.376
       240.000         204.000
  23680501.046   -12371118.12049  -9601415.26146  23680501.390    23680505.925
       221.000         165.000
 99  4 24  0 53 30.0000000  0  6G21G17G23G26G 6G22
  23262250.823   -14217415.53449 -10711517.60046  23262249.899    23262256.250
       223.000         169.000
  20849342.581   -29860422.41049 -22250882.35648  20849341.971    20849346.927
       244.000         213.000
  20826701.209   -24273168.41449 -18534480.02048  20826701.105    20826705.682
       248.000         217.000
  21774851.889   -16308092.85949 -12691256.81347  21774852.194    21774857.184
       233.000         191.000
  21109284.444   -20204055.71849 -15725074.71447  21109284.756    21109289.532
       241.000         204.000
  23686071.100   -12341847.93749  -9578607.36046  23686070.964    23686076.866
       221.000         165.000
 99  4 24  0 54  0.0000000  0  6G21G17G23G26G 6G22
  23248873.123   -14287714.70549 -10766296.07546  23248871.811    23248879.308
       222.000         169.000
  20846478.484   -29875473.14749 -22262610.21048  20846478.084    20846482.903
       243.000         213.000
  20823624.402   -24289337.26449 -18547079.10448  20823624.155    20823628.637
       247.000         217.000
  21780980.949   -16275884.33049 -12666159.26347  21780981.240    21780985.735
       232.000         191.000
  21122265.708   -20135839.13449 -15671918.97947  21122266.129    21122270.933
       241.000         204.000
  23691717.781   -12312174.93949  -9555485.57146  23691717.106    23691722.665
       219.000         164.000
 99  4 24  0 54 30.0000000  0  6G21G17G23G26G 6G22
  23235534.411   -14357809.00949 -10820914.91146  23235533.445    23235540.515
       222.000         169.000
  20843638.141   -29890399.27549 -22274240.95947  20843637.790    20843642.449
       243.000         212.000
  20820606.632   -24305195.91349 -18559436.47048  20820606.354    20820610.672
       247.000         217.000
  21787221.170   -16243091.56749 -12640606.46647  21787221.540    21787226.014
       232.000         190.000
  21135326.621   -20067203.87549 -15618436.99747  21135326.768    21135331.720
       240.000         204.000
  23697439.290   -12282107.76849  -9532056.64046  23697439.634    23697444.029
       222.000         164.000
 99  4 24  0 55  0.0000000  0  6G21G17G23G26G 6G22
  23222228.463   -14427731.82949 -10875400.13546  23222228.895    23222235.397
       225.000         170.000
  20840813.959   -29905240.26049 -22285805.36247  20840813.565    20840818.185
       243.000         212.000
  20817642.087   -24320774.87349 -18571575.90648  20817641.766    20817646.180
       247.000         218.000
  21793565.470   -16209752.26949 -12614627.79447  21793565.778    21793570.585
       232.000         190.000
  21148462.669   -19998173.47949 -15564647.12547  21148462.564    21148468.130
       240.000         203.000
  23703229.649   -12251679.82949  -9508346.60845  23703229.496    23703233.806
       222.000         162.000
 99  4 24  0 55 30.0000000  0  6G21G17G23G26G 6G22
  23208957.010   -14497473.77849 -10929744.40446  23208956.334    23208962.814
       223.000         170.000
  20838006.709   -29919992.34849 -22297300.49347  20838006.159    20838010.967
       243.000         212.000
  20814731.532   -24336069.87249 -18583494.06048  20814731.201    20814735.570
       248.000         217.000
  21800010.395   -16175883.92249 -12588236.87747  21800010.777    21800015.034
       232.000         189.000
  21161672.779   -19928753.77449 -15510553.88847  21161672.829    21161678.053
       240.000         203.000
  23709085.439   -12220907.72249  -9484368.35945  23709084.712    23709090.739
       221.000         161.000
 99  4 24  0 56  0.0000000  0  6G21G17G23G26G 6G22
  23195733.326   -14566964.60249 -10983892.99946  23195733.148    23195739.297
       224.000         172.000
  20835230.399   -29934581.95949 -22308669.02548  20835230.050    20835234.749
       244.000         213.000
  20811887.352   -24351016.00649 -18595140.38148  20811886.980    20811891.620
       247.000         218.000
  21806564.337   -16141442.56049 -12561399.45947  21806564.510    21806569.364
       232.000         188.000
  21174965.051   -19858902.27949 -15456124.19847  21174965.237    21174970.216
       240.000         203.000
  23715015.124   -12189747.76649  -9460087.94545  23715014.667    23715021.038
       221.000         162.000
 99  4 24  0 56 30.0000000  0  6G21G17G23G26G 6G22
  23182551.252   -14636236.74649 -11037871.20446  23182550.704    23182557.132
       223.000         171.000
  20832479.982   -29949035.83149 -22319931.77548  20832479.784    20832484.111
       245.000         213.000
  20809107.737   -24365622.78749 -18606522.25948  20809107.335    20809111.728
       248.000         217.000
  21813221.443   -16106459.43749 -12534139.88047  21813221.821    21813226.557
       233.000         188.000
  21188333.612   -19788650.51549 -15401382.60347  21188334.211    21188339.087
       241.000         203.000
  23721011.920   -12158234.91449  -9435532.49545  23721011.595    23721016.869
       219.000         162.000
 99  4 24  0 57  0.0000000  0  6G21G17G23G26G 6G22
  23169418.873   -14705247.15149 -11091645.46446  23169417.846    23169424.770
       223.000         172.000
  20829762.350   -29963316.99849 -22331059.95248  20829762.046    20829766.568
       244.000         213.000
  20806402.926   -24379836.47749 -18617597.83548  20806402.637    20806406.978
       247.000         218.000
  21819991.468   -16070882.53049 -12506417.60247  21819992.274    21819996.076
       233.000         188.000
  21201786.820   -19717953.91649 -15346294.39047  21201786.948    21201792.056
       240.000         203.000
  23727082.641   -12126332.37249  -9410673.41545  23727081.583    23727088.513
       218.000         161.000
 99  4 24  0 57 30.0000000  0  6G21G17G23G26G 6G22
  23156338.768   -14773982.14249 -11145205.11046  23156337.811    23156344.119
       223.000         172.000
  20827082.404   -29977400.09049 -22342033.78948  20827082.171    20827086.634
       244.000         213.000
  20803773.459   -24393654.25349 -18628364.91748  20803773.277    20803777.614
       247.000         218.000
  21826877.095   -16034698.72049 -12478222.42047  21826877.547    21826881.990
       234.000         188.000
  21215324.109   -19646814.94249 -15290861.47247  21215324.227    21215329.573
       240.000         202.000
  23733228.858   -12094032.72449  -9385504.89645  23733227.988    23733234.328
       218.000         161.000
 99  4 24  0 58  0.0000000  0  6G21G17G23G26G 6G22
  23143305.200   -14842473.49349 -11198574.92646  23143305.503    23143310.649
       224.000         173.000
  20824437.899   -29991297.07349 -22352862.60448  20824437.282    20824442.108
       244.000         213.000
  20801217.695   -24407084.82249 -18638830.27448  20801217.277    20801221.640
       247.000         218.000
  21833876.909   -15997914.59749 -12449559.46547  21833877.221    21833881.719
       233.000         188.000
  21228944.132   -19575241.32249 -15235089.86647  21228944.368    21228949.265
       239.000         201.000
  23739449.039   -12061344.52249  -9360033.61045  23739448.472    23739454.946
       219.000         160.000
 99  4 24  0 58 30.0000000  0  7G 3G21G17G23G26G 6G22
  24621506.661    -9259452.51049  -6458761.38445  24621506.566    24621513.309
       207.000         143.000
  23130321.276   -14910704.88949 -11251742.16046  23130321.072    23130327.373
       226.000         174.000
  20821835.769   -30004971.01549 -22363517.61348  20821835.233    20821840.324
       244.000         213.000
  20798739.465   -24420107.97149 -18648978.16448  20798739.222    20798743.595
       247.000         218.000
  21840997.736   -15960494.35649 -12420400.82747  21840997.832    21841002.279
       234.000         188.000
  21242654.682   -19503192.16049 -15178947.68747  21242654.596    21242660.193
       240.000         201.000
  23745750.647   -12028228.49149  -9334228.93845  23745750.139    23745756.844
       219.000         161.000
 99  4 24  0 59  0.0000000  0  7G 3G21G17G23G26G 6G22
  24601901.531    -9362478.70049  -6539041.48545  24601900.828    24601908.397
       206.000         143.000
  23117381.539   -14978703.72149 -11304728.18246  23117381.430    23117387.109
       226.000         175.000
  20819274.766   -30018428.91649 -22374004.28847  20819274.376    20819279.257
       243.000         212.000
  20796335.135   -24432742.80449 -18658823.47548  20796334.797    20796339.246
       247.000         218.000
  21848234.562   -15922464.44749 -12390767.12847  21848234.732    21848239.814
       233.000         188.000
  21256451.114   -19430691.46549 -15122453.68747  21256451.465    21256456.540
       240.000         201.000
  23752132.829   -11994689.63049  -9308094.81945  23752132.001    23752139.356
       219.000         161.000
 99  4 24  0 59 30.0000000  0  7G 3G21G17G23G26G 6G22
  24582313.130    -9465415.58649  -6619251.96745  24582312.239    24582319.764
       207.000         143.000
  23104477.738   -15046513.61149 -11357566.97546  23104476.714    23104482.903
       225.000         175.000
  20816748.106   -30031706.51549 -22384350.46347  20816747.665    20816752.401
       243.000         212.000
  20793998.530   -24445021.42449 -18668391.22048  20793998.155    20794002.556
       248.000         218.000
  21855575.586   -15883887.20149 -12360706.93247  21855576.050    21855580.598
       233.000         188.000
  21270325.996   -19357778.79349 -15065638.66147  21270326.280    21270331.390
       239.000         201.000
  23758587.945   -11960767.92049  -9281662.37745  23758586.863    23758593.938
       221.000         162.000
 99  4 24  1  0  0.0000000  0  7G 3G21G17G23G26G 6G22
  24562760.493    -9568164.19049  -6699315.73845  24562760.225    24562767.294
       207.000         143.000
  23091626.197   -15114048.17549 -11410191.23246  23091625.840    23091632.233
       224.000         175.000
  20814274.368   -30044706.03349 -22394479.95847  20814273.988    20814278.816
       243.000         212.000
  20791747.383   -24456851.27149 -18677609.27148  20791747.013    20791751.379
       247.000         217.000
  21863037.015   -15844677.36549 -12330153.81747  21863036.775    21863041.867
       233.000         188.000
  21284298.593   -19284352.38249 -15008423.32147  21284298.647    21284303.681
       240.000         201.000
  23765134.728   -11926364.67749  -9254854.68845  23765133.041    23765140.845
       221.000         162.000
 99  4 24  1  0 30.0000000  0  7G 3G21G17G23G26G 6G22
  24543227.761    -9670807.93049  -6779297.82945  24543226.768    24543234.185
       206.000         144.000
  23078811.640   -15181388.12749 -11462663.85246  23078810.402    23078817.427
       225.000         175.000
  20811836.360   -30057517.62849 -22404463.02047  20811836.046    20811840.845
       243.000         212.000
  20789563.852   -24468325.49849 -18686550.21748  20789563.325    20789567.977
       247.000         217.000
  21870601.328   -15804926.27049 -12299178.93247  21870601.707    21870605.842
       232.000         188.000
  21298351.496   -19210503.73849 -14950878.96547  21298351.718    21298356.885
       239.000         200.000
  23771755.151   -11891572.89849  -9227744.27945  23771754.317    23771760.925
       218.000         161.000
 99  4 24  1  1  0.0000000  0  7G 3G21G17G23G26G 6G22
  24523728.471    -9773276.06949  -6859143.07045  24523728.176    24523735.302
       211.000         145.000
  23066050.689   -15248447.15049 -11514917.57246  23066050.486    23066056.092
       226.000         175.000
  20809444.145   -30070088.83749 -22414258.77347  20809443.702    20809448.550
       244.000         212.000
  20787462.818   -24479366.17249 -18695153.33348  20787462.469    20787467.099
       247.000         217.000
  21878283.692   -15764555.19449 -12267720.96147  21878283.649    21878288.697
       231.000         188.000
  21312497.176   -19136167.88149 -14892954.96147  21312497.485    21312502.575
       239.000         200.000
  23778458.804   -11856343.70449  -9200293.02745  23778459.055    23778465.638
       220.000         160.000
 99  4 24  1  1 30.0000000  0  7G 3G21G17G23G26G 6G22
  24504254.505    -9875611.99749  -6938885.29245  24504254.228    24504261.275
       212.000         147.000
  23053336.504   -15315260.45849 -11566979.82346  23053336.497    23053342.575
       226.000         176.000
  20807087.647   -30082472.35349 -22423908.26548  20807087.183    20807092.103
       244.000         213.000
  20785431.552   -24490040.46849 -18703470.95048  20785431.345    20785435.835
       247.000         217.000
  21886077.835   -15723596.45749 -12235805.07447  21886077.654    21886082.452
       231.000         188.000
  21326727.434   -19061387.83249 -14834684.83347  21326727.794    21326732.842
       240.000         200.000
  23785231.827   -11820750.82949  -9172558.36145  23785231.787    23785239.236
       216.000         160.000
 99  4 24  1  2  0.0000000  0  7G 3G21G17G23G26G 6G22
  24484807.339    -9977807.61549  -7018518.18045  24484808.520    24484813.634
       213.000         148.000
  23040670.956   -15381818.54449 -11618843.19646  23040670.746    23040676.447
       226.000         176.000
  20804765.438   -30094675.78149 -22433417.43548  20804765.261    20804769.780
       245.000         213.000
  20783467.626   -24500360.89349 -18711512.83448  20783467.315    20783471.882
       247.000         218.000
  21893987.438   -15682030.99649 -12203416.41247  21893987.648    21893992.707
       229.000         188.000
  21341041.886   -18986165.18849 -14776069.83947  21341042.464    21341047.291
       239.000         199.000
  23792072.679   -11784802.34449  -9144546.61545  23792072.811    23792078.732
       219.000         160.000
 99  4 24  1  2 30.0000000  0  7G 3G21G17G23G26G 6G22
  24465380.865   -10079894.89549  -7098066.65545  24465381.579    24465387.173
       215.000         148.000
  23028050.934   -15448137.20849 -11670520.00346  23028050.712    23028056.602
       226.000         176.000
  20802469.047   -30106743.80149 -22442821.08948  20802468.850    20802473.523
       245.000         214.000
  20781565.233   -24510357.92549 -18719302.72348  20781564.892    20781569.423
       247.000         218.000
  21902006.815   -15639888.45349 -12170578.08546  21902006.916    21902011.751
       228.000         187.000
  21355434.513   -18910531.83849 -14717134.80147  21355434.600    21355439.849
       238.000         199.000
  23798975.969   -11748527.25449  -9116280.35545  23798978.050    23798982.095
       222.000         160.000
 99  4 24  1  3  0.0000000  0  6G 3G21G23G26G 6G22
  24445966.881   -10181916.16449  -7177563.68045  24445966.989    24445973.288
       212.000         147.000
  23015471.321   -15514242.67249 -11722030.68446  23015471.301    23015477.523
       226.000         176.000
  20779716.401   -24520073.42549 -18726873.23448  20779716.102    20779720.639
       247.000         218.000
  21910128.099   -15597210.57649 -12137322.61646  21910128.564    21910132.645
       229.000         187.000
  21369897.905   -18834526.20249 -14657909.68047  21369898.267    21369903.203
       238.000         198.000
  23805938.105   -11711943.50949  -9087773.59345  23805937.612    23805943.956
       215.000         159.000
 99  4 24  1  3 30.0000000  0  7G 3G21G17G23G26G 6G22
  24426574.955   -10283822.15949  -7256970.87845  24426574.794    24426581.628
       211.000         147.000
  23002936.396   -15580113.68649 -11773358.67846  23002935.659    23002942.515
       227.000         177.000
                   -661174.67547                                  20797949.402
       245.000         200.000
  20777926.966   -24529476.89049 -18734200.60148  20777926.611    20777931.301
       247.000         218.000
  21918353.410   -15553986.44449 -12103641.50146  21918353.939    21918358.458
       230.000         187.000
  21384436.780   -18758123.60249 -14598375.23847  21384436.852    21384441.991
       237.000         197.000
  23812966.936   -11675007.72849  -9058992.52645  23812966.726    23812973.524
       219.000         158.000
 99  4 24  1  4  0.0000000  0  7G 3G21G17G23G26G 6G22
  24407201.018   -10385633.24849  -7336304.11845  24407201.246    24407207.249
       210.000         144.000
  22990441.914   -15645772.51649 -11824521.31746  22990441.778    22990447.989
       226.000         177.000
  20795724.449     -875275.05749   -670267.22447  20795724.030    20795728.761
       244.000         211.000
  20776196.780   -24538569.24449 -18741285.54548  20776196.419    20776201.050
       247.000         218.000
  21926676.418   -15510248.94049 -12069560.35147  21926676.837    21926681.390
       231.000         188.000
  21399046.831   -18681347.18949 -14538549.52047  21399046.848    21399052.384
       237.000         197.000
  23820061.489   -11637726.18649  -9029942.00645  23820060.895    23820067.239
       218.000         160.000
 99  4 24  1  4 30.0000000  0  7G 3G21G17G23G26G 6G22
  24387851.605   -10487315.48049  -7415536.93645  24387850.782    24387859.358
       208.000         143.000
  22977993.637   -15711188.72249 -11875494.91746  22977993.526    22977999.377
       228.000         178.000
  20793541.204     -886748.53549   -679207.59848  20793540.581    20793545.468
       243.000         213.000
  20774533.735   -24547308.57449 -18748095.39748  20774533.530    20774537.881
       247.000         218.000
  21935104.719   -15465958.24549 -12035048.14647  21935104.663    21935109.795
       231.000         188.000
  21413736.676   -18604151.82849 -14478397.34547  21413736.769    21413742.209
       237.000         197.000
  23827230.276   -11600054.71449  -9000587.67045  23827229.442    23827235.313
       218.000         159.000
 99  4 24  1  5  0.0000000  0  7G 3G21G17G23G26G 6G22
  24368527.881   -10588861.28249  -7494663.45445  24368527.030    24368534.931
       208.000         142.000
  22965589.707   -15776371.41949 -11926286.54246  22965588.744    22965595.084
       227.000         177.000
  20791396.975     -898012.76749   -687984.92347  20791396.975    20791401.870
       243.000         212.000
  20772938.851   -24555689.72849 -18754626.15048  20772938.364    20772942.908
       247.000         218.000
  21943639.440   -15421107.76049 -12000099.72547  21943640.054    21943644.794
       231.000         189.000
  21428505.681   -18526540.42749 -14417920.98047  21428505.864    21428511.412
       238.000         197.000
  23834472.170   -11561997.53349  -8970932.77045  23834471.049    23834476.744
       218.000         158.000
 99  4 24  1  5 30.0000000  0  7G 3G21G17G23G26G 6G22
  24349233.789   -10690250.39549  -7573667.88345  24349232.057    24349240.339
       204.000         142.000
  22953231.332   -15841314.74249 -11976891.64846  22953231.598    22953237.238
       229.000         177.000
  20789295.464     -909057.07849   -696590.89047  20789295.430    20789300.255
       243.000         212.000
  20771415.381   -24563695.40449 -18760864.32548  20771415.059    20771419.714
       247.000         218.000
  21952284.258   -15375679.06149 -11964700.75547  21952284.270    21952289.472
       232.000         189.000
  21443354.992   -18448506.63849 -14357115.48347  21443355.214    21443360.414
       236.000         196.000
  23841786.288   -11523561.46649  -8940982.63245  23841786.075    23841791.774
       218.000         158.000
 99  4 24  1  6  0.0000000  0  7G 3G21G17G23G26G 6G22
  24329972.057   -10791469.45049  -7652539.81645  24329971.771    24329978.980
       212.000         144.000
  22940924.897   -15905985.69149 -12027284.50746  22940923.949    22940930.758
       228.000         178.000
  20787240.289     -919857.95249   -705007.16647  20787240.263    20787244.940
       243.000         212.000
  20769968.345   -24571299.44149 -18766789.53048  20769968.170    20769972.354
       247.000         218.000
  21961047.551   -15329627.52849 -11928816.46047  21961048.163    21961052.385
       233.000         188.000
  21458292.555   -18370009.59949 -14295949.01147  21458293.003    21458297.981
       236.000         195.000
  23849177.683   -11484719.84349  -8910716.45045  23849178.148    23849183.147
       219.000         158.000
 99  4 24  1  6 30.0000000  0  7G 3G21G17G23G26G 6G22
  24310725.707   -10892609.33649  -7731350.05645  24310725.875    24310732.171
       212.000         147.000
  22928649.644   -15970491.86649 -12077548.95646  22928649.127    22928655.260
       228.000         178.000
  20785210.142     -930526.79049   -713320.55448  20785210.158    20785214.509
       244.000         213.000
  20768576.892   -24578611.47149 -18772487.19748  20768576.564    20768580.912
       247.000         218.000
  21969909.139   -15283059.96849 -11892530.06647  21969909.788    21969913.728
       234.000         188.000
  21473295.165   -18291170.68049 -14234516.14947  21473295.457    21473300.400
       237.000         195.000
  23856627.827   -11445570.18149  -8880210.30445  23856628.080    23856633.577
       219.000         158.000
 99  4 24  1  7  0.0000000  0  7G 3G21G17G23G26G 6G22
  24291520.895   -10993531.26149  -7809990.44545  24291520.540    24291527.216
       211.000         150.000
  22916430.292   -16034704.66049 -12127584.82046  22916430.245    22916437.056
       228.000         178.000
  20783225.844     -940954.86349   -721446.33148  20783225.682    20783230.327
       244.000         213.000
  20767264.940   -24585505.84949 -18777859.42148  20767264.642    20767268.996
       247.000         218.000
  21978890.088   -15235865.02849 -11855754.79747  21978890.491    21978894.573
       234.000         188.000
  21488382.079   -18211888.81549 -14172738.13247  21488382.482    21488387.407
       237.000         195.000
  23864157.373   -11406003.06549  -8849378.82445  23864157.757    23864162.361
       221.000         158.000
 99  4 24  1  7 30.0000000  0  7G 3G21G17G23G26G 6G22
  24272350.198   -11094274.57749  -7888491.65045  24272349.982    24272356.738
       211.000         151.000
  22904258.867   -16098664.97149 -12177423.92546  22904258.252    22904264.346
       228.000         178.000
  20781278.747     -951187.21149   -729419.59148  20781278.500    20781283.261
       245.000         214.000
  20766024.147   -24592026.20249 -18782940.20148  20766023.861    20766028.076
       247.000         217.000
  21987978.125   -15188107.01449 -11818540.77246  21987978.219    21987982.461
       234.000         187.000
  21503543.825   -18132213.76849 -14110653.74447  21503544.156    21503549.035
       236.000         196.000
  23871754.014   -11366083.01049  -8818272.32845  23871754.019    23871758.097
       218.000         157.000
 99  4 24  1  8  0.0000000  0  7G 3G21G17G23G26G 6G22
  24253217.733   -11194816.86149  -7966836.20945  24253218.156    24253223.335
       212.000         151.000
  22892136.654   -16162367.04249 -12227061.81146  22892136.354    22892142.850
       229.000         178.000
  20779370.421     -961215.98149   -737234.22348  20779370.111    20779374.801
       245.000         214.000
  20764854.932   -24598170.51549 -18787727.95948  20764854.790    20764858.811
       247.000         217.000
  21997172.991   -15139787.93249 -11780889.55346  21997173.454    21997177.782
       235.000         186.000
  21518782.681   -18052133.14249 -14048253.30147  21518782.907    21518788.311
       236.000         196.000
  23879418.319   -11325806.19949  -8786887.83345  23879417.463    23879424.655
       218.000         156.000
 99  4 24  1  8 30.0000000  0  7G 3G21G17G23G26G 6G22
  24234120.111   -11295175.75149  -8045037.83745  24234119.398    24234125.239
       214.000         151.000
  22880057.443   -16225843.49649 -12276523.91646  22880057.266    22880063.197
       229.000         178.000
  20777494.335     -971074.91549   -744916.51148  20777493.830    20777498.662
       244.000         214.000
  20763749.325   -24603980.39949 -18792255.12548  20763749.006    20763753.260
       247.000         218.000
  22006467.218   -15090947.01749 -11742831.70046  22006467.500    22006472.287
       234.000         185.000
  21534090.311   -17971691.21849 -13985571.33547  21534090.729    21534096.105
       236.000         196.000
  23887143.055   -11285211.69249  -8755255.79745  23887143.085    23887149.132
       218.000         156.000
 99  4 24  1  9  0.0000000  0  7G 3G21G17G23G26G 6G22
  24215070.301   -11395283.29449  -8123043.63445  24215069.866    24215075.965
       213.000         151.000
  22868036.183   -16289015.61149 -12325748.86746  22868036.308    22868041.661
       230.000         178.000
  20775666.630     -980679.28449   -752400.44248  20775666.206    20775670.917
       244.000         214.000
  20762720.217   -24609388.39049 -18796469.13548  20762719.998    20762724.348
       247.000         218.000
  22015876.342   -15041501.49349 -11704302.72546  22015876.516    22015880.554
       233.000         184.000
  21549486.847   -17890782.23249 -13922525.42447  21549487.260    21549492.628
       236.000         196.000
  23894938.740   -11244244.98449  -8723333.73045  23894937.989    23894944.452
       218.000         156.000
 99  4 24  1  9 30.0000000  0  7G 3G21G17G23G26G 6G22
  24196044.162   -11495264.88649  -8200951.28545  24196043.268    24196050.801
       211.000         151.000
  22856051.177   -16351997.21049 -12374825.34946  22856049.826    22856056.692
       228.000         179.000
  20773868.459     -990128.98549   -759763.84048  20773868.320    20773872.864
       244.000         213.000
  20761745.119   -24614512.61249 -18800462.02248  20761745.073    20761749.424
       247.000         218.000
  22025383.106   -14991542.69849 -11665373.78846  22025382.815    22025388.000
       233.000         183.000
  21564955.145   -17809496.39649 -13859185.86747  21564955.562    21564960.600
       236.000         195.000
  23902788.274   -11202995.39749  -8691191.25845  23902788.504    23902795.047
       219.000         157.000
 99  4 24  1 10  0.0000000  0  7G 3G21G17G23G26G 6G22
  24177044.453   -11595108.09449  -8278751.11345  24177044.101    24177050.383
       212.000         151.000
  22844106.728   -16414764.90349 -12423735.17146  22844106.124    22844112.102
       229.000         179.000

       243.000          74.000
  20760827.282   -24619335.85149 -18804220.38348  20760826.869    20760831.416
       247.000         218.000
  22034998.409   -14941013.85149 -11626000.66446  22034998.688    22035003.604
       231.000         182.000
  21580500.356   -17727805.81849 -13795530.94247  21580500.281    21580505.609
       234.000         194.000
  23910701.187   -11161413.47849  -8658789.80845  23910701.136    23910706.848
       217.000         156.000
 99  4 24  1 10 30.0000000  0  7G 3G21G17G23G26G 6G22
  24158058.061   -11694881.03549  -8356496.21045  24158058.034    24158063.808
       213.000         151.000
  22832194.891   -16477361.47449 -12472511.64746  22832194.441    22832201.005
       229.000         180.000
  20770356.809     -238880.26649   -173372.02347  20770356.312    20770361.182
       244.000         207.000
  20759957.242   -24623907.79649 -18807782.93148  20759956.931    20759961.405
       247.000         217.000
  22044711.220   -14889972.45349 -11586228.15146  22044711.394    22044715.893
       231.000         182.000
  21596112.038   -17645766.21149 -13731604.03247  21596112.243    21596117.399
       235.000         194.000
  23918668.544   -11119544.55749  -8626164.73145  23918668.330    23918672.552
       218.000         156.000
 99  4 24  1 11  0.0000000  0  7G 3G21G17G23G26G 6G22
  24139092.500   -11794544.93449  -8434156.33845  24139091.515    24139098.565
       212.000         150.000
  22820325.234   -16539736.58549 -12521115.56146  22820324.638    22820331.406
       230.000         180.000
  20768642.890     -247887.76749   -180390.86047  20768642.458    20768647.359
       244.000         212.000
  20759146.254   -24628169.60349 -18811103.81448  20759145.872    20759150.536
       247.000         217.000
  22054528.555   -14838382.19949 -11546027.96846  22054529.057    22054533.552
       231.000         181.000
  21611797.324   -17563339.69049 -13667375.62547  21611797.414    21611803.304
       235.000         195.000
  23926700.959   -11077334.71449  -8593273.97745  23926700.580    23926707.417
       217.000         156.000
 99  4 24  1 11 30.0000000  0  7G 3G21G17G23G26G 6G22
  24120148.025   -11894097.76549  -8511729.91545  24120147.929    24120154.580
       211.000         149.000
  22808496.123   -16601898.79649 -12569553.59646  22808496.776    22808501.347
       231.000         180.000
  20766955.365     -256755.29949   -187300.62048  20766954.896    20766959.533
       244.000         214.000
  20758392.936   -24632128.19949 -18814188.42648  20758392.584    20758396.842
       247.000         217.000
  22064444.710   -14786272.35049 -11505422.90446  22064444.543    22064449.702
       229.000         180.000
  21627547.043   -17480574.54749 -13602883.35647  21627547.131    21627553.021
       235.000         195.000
  23934796.163   -11034793.49049  -8560125.02645  23934796.775    23934801.959
       217.000         156.000
 99  4 24  1 12  0.0000000  0  7G 3G21G17G23G26G 6G22
  24101246.571   -11993424.48449  -8589127.32245  24101247.154    24101252.980
       207.000         149.000
  22796724.546   -16663759.08849 -12617756.35946  22796723.926    22796729.848
       229.000         180.000
  20765311.553     -265393.43149   -194031.63448  20765311.314    20765315.808
       245.000         214.000
  20757715.405   -24635688.51949 -18816962.69348  20757715.263    20757719.612
       247.000         217.000
  22074470.663   -14733585.06549 -11464367.89146  22074470.952    22074475.594
       228.000         180.000
  21643374.691   -17397399.51849 -13538071.70447  21643374.943    21643380.323
       235.000         194.000
  23942967.009   -10991855.01249  -8526666.49845  23942966.449    23942973.252
       215.000         155.000
 99  4 24  1 12 30.0000000  0  7G 3G21G17G23G26G 6G22
  24082379.936   -12092568.80149  -8666382.56045  24082380.915    24082386.677
       211.000         149.000
  22784999.507   -16725374.42449 -12665768.24146  22784998.534    22785004.696
       228.000         180.000
  20763703.995     -273841.57849   -200614.60648  20763703.557    20763708.106
       245.000         214.000
  20757103.649   -24638903.27549 -18819467.68648  20757103.356    20757107.877
       246.000         217.000
  22084588.921   -14680413.30849 -11422935.38446  22084589.487    22084593.960
       228.000         180.000
  21659268.581   -17313876.49649 -13472988.88247  21659268.830    21659274.376
       235.000         193.000
  23951199.257   -10948593.47249  -8492956.28345  23951198.810    23951206.497
       215.000         155.000
 99  4 24  1 13  0.0000000  0  7G 3G21G17G23G26G 6G22
  24063560.759   -12191463.99049  -8743443.69545  24063560.843    24063567.654
       211.000         150.000
  22773329.030   -16786702.51849 -12713556.30846  22773329.022    22773334.559
       229.000         180.000
  20762143.264     -282043.61849   -207005.80848  20762142.987    20762147.751
       245.000         214.000
  20756567.074   -24641722.90149 -18821664.78848  20756566.938    20756571.377
       247.000         217.000
  22094813.232   -14626684.92949 -11381069.13046  22094813.369    22094818.376
       227.000         180.000
  21675236.803   -17229963.61649 -13407602.27347  21675236.856    21675242.000
       235.000         192.000
  23959500.238   -10904972.04249  -8458965.62145  23959500.273    23959507.867
       217.000         156.000
 99  4 24  1 13 30.0000000  0  7G 3G21G17G23G26G 6G22
  24044791.268   -12290099.18949  -8820302.22345  24044792.876    24044797.756
       215.000         151.000
  22761712.945   -16847744.76449 -12761121.61946  22761712.095    22761719.182
       229.000         180.000
  20760629.396     -289998.81349   -213204.66048  20760628.856    20760633.790
       245.000         214.000
  20756104.244   -24644155.03049 -18823559.94048  20756103.998    20756108.552
       246.000         217.000
  22105144.895   -14572391.82449 -11338762.83446  22105145.146    22105150.108
       226.000         180.000
  21691280.192   -17145655.12249 -13341907.39247  21691280.519    21691285.768
       234.000         191.000
  23967867.481   -10861002.61249  -8424703.79145  23967867.810    23967874.860
       218.000         158.000
 99  4 24  1 14  0.0000000  0  7G 3G21G17G23G26G 6G22
  24026067.014   -12388497.28449  -8896976.02445  24026067.689    24026072.651
       214.000         153.000
  22750150.536   -16908505.23849 -12808467.38646  22750149.879    22750156.286
       229.000         181.000
  20759164.548     -297696.60349   -219202.94248  20759164.040    20759168.828
       244.000         214.000
  20755713.119   -24646210.29549 -18825161.43648  20755712.769    20755717.227
       246.000         217.000
  22115582.933   -14517539.44849 -11296020.74646  22115583.140    22115588.868
       226.000         180.000
  21707401.539   -17060936.78349 -13275893.15947  21707401.798    21707407.363
       234.000         191.000
  23976299.333   -10816693.13149  -8390176.98745  23976298.784    23976306.923
       214.000         157.000
 99  4 24  1 14 30.0000000  0  7G 3G21G17G23G26G 6G22
  24007377.015   -12486714.67549  -8973509.00045  24007377.488    24007383.741
       214.000         155.000
  22738634.570   -16969021.98549 -12855623.22646  22738635.300    22738640.889
       231.000         182.000
  20757742.112     -305171.37249   -225027.44048  20757741.704    20757746.548
       244.000         214.000
  20755384.018   -24647939.69049 -18826509.00748  20755383.717    20755388.154
       247.000         217.000
  22126122.002   -14462156.35849 -11252865.11746  22126122.554    22126126.823
       225.000         180.000
  21723593.616   -16975847.40549 -13209589.79947  21723594.159    21723599.657
       235.000         192.000
  23984788.967   -10772079.86849  -8355413.46045  23984788.696    23984795.625
       215.000         157.000
 99  4 24  1 15  0.0000000  0  7G 3G21G17G23G26G 6G22
  23988732.459   -12584692.52349  -9049855.33045  23988731.926    23988738.148
       213.000         154.000
  22727175.420   -17029240.49849 -12902546.68446  22727174.954    22727180.639
       229.000         182.000
  20756371.647     -312373.25249   -230639.29848  20756370.933    20756376.019
       244.000         214.000
  20755127.667   -24649286.65249 -18827558.58048  20755127.454    20755131.794
       247.000         217.000
  22136775.108   -14406173.91549 -11209242.46446  22136775.409    22136779.724
       225.000         180.000
  21739869.039   -16890320.02049 -13142945.13947  21739869.232    21739874.664
       234.000         192.000
  23993350.180   -10727090.34049  -8320356.75145  23993349.060    23993357.125
       214.000         157.000
 99  4 24  1 15 30.0000000  0  7G 3G21G17G23G26G 6G22
  23970107.344   -12682567.82449  -9126121.74245  23970107.650    23970113.488
       214.000         154.000
  22715748.863   -17089287.48349 -12949336.48646  22715748.664    22715754.056
       230.000         182.000
  20755027.654     -319435.61749   -236142.45048  20755027.533    20755032.222
       244.000         214.000
  20754918.220   -24650387.53549 -18828416.40748  20754918.079    20754922.404
       246.000         217.000
  22147511.319   -14349754.91049 -11165279.62446  22147511.727    22147516.738
       226.000         181.000
  21756205.086   -16804473.37849 -13076051.71147  21756204.893    21756210.519
       232.000         191.000
  24001960.322   -10681843.83849  -8285099.82545  24001960.449    24001967.525
       215.000         158.000
 99  4 24  1 16  0.0000000  0  7G 3G21G17G23G26G 6G22
  23951515.497   -12780268.62349  -9202252.19645  23951515.211    23951521.676
       214.000         155.000
  22704368.047   -17149093.62449 -12995938.61146  22704367.823    22704372.959
       230.000         182.000
  20753727.510     -326268.09249   -241466.45748  20753727.334    20753732.120
       244.000         213.000
  20754770.995   -24651161.25349 -18829019.29248  20754770.821    20754775.366
       247.000         217.000
  22158345.497   -14292821.31649 -11120915.80846  22158345.866    22158350.591
       226.000         181.000
  21772618.489   -16718219.91449 -13008841.26947  21772618.710    21772623.842
       234.000         190.000
  24010634.211   -10636262.42949  -8249581.88445  24010633.594    24010641.208
       215.000         157.000
 99  4 24  1 16 30.0000000  0  7G 3G21G17G23G26G 6G22
  23932963.608   -12877758.97649  -9278218.65545  23932963.394    23932969.812
       215.000         156.000
  22693034.843   -17208649.40849 -13042345.65446  22693034.289    22693040.689
       230.000         182.000
  20752473.373     -332858.72349   -246602.01748  20752472.762    20752477.688
       244.000         213.000
  20754691.891   -24651576.94749 -18829343.20148  20754691.646    20754696.073
       247.000         217.000
  22169285.437   -14235332.07449 -11076119.02946  22169285.563    22169290.279
       226.000         182.000
  21789115.047   -16631530.38749 -12941291.05647  21789115.359    21789120.909
       234.000         190.000
  24019377.621   -10590315.16149  -8213778.88045  24019375.932    24019384.403
       212.000         158.000
 99  4 24  1 17  0.0000000  0  7G 3G21G17G23G26G 6G22
  23914439.755   -12975102.11449  -9354070.41545  23914439.098    23914445.634
       216.000         157.000
  22681733.299   -17268039.16549 -13088623.33346  22681732.623    22681739.389
       232.000         183.000
  20751249.463     -339290.34149   -251613.66748  20751249.069    20751253.809
       244.000         213.000
  20754666.967   -24651707.69449 -18829445.06848  20754666.613    20754671.310
       247.000         217.000
  22180316.976   -14177361.05349 -11030946.82946  22180317.356    22180321.532
       227.000         182.000
  21805680.289   -16544479.54749 -12873459.28947  21805680.152    21805685.941
       233.000         189.000
  24028175.146   -10544082.71149  -8177753.70045  24028176.250    24028182.550
       216.000         158.000
 99  4 24  1 17 30.0000000  0  7G 3G21G17G23G26G 6G22
  23895961.848   -13072203.24549  -9429733.59045  23895961.870    23895967.765
       215.000         157.000
  22670480.671   -17327172.56649 -13134701.25546  22670480.993    22670486.469
       231.000         184.000
  20750073.346     -345471.11749   -256429.85448  20750073.133    20750077.742
       245.000         213.000
  20754710.781   -24651477.50249 -18829265.69048  20754710.473    20754714.958
       247.000         217.000
  22191457.687   -14118816.30249 -10985327.57246  22191458.183    22191462.806
       228.000         183.000
  21822326.890   -16457001.26249 -12805294.45747  21822326.398    21822332.526
       231.000         189.000
  24037039.907   -10497499.43649  -8141455.06545  24037039.584    24037046.148
       216.000         160.000
 99  4 24  1 18  0.0000000  0  7G 3G21G17G23G26G 6G22
  23877520.555   -13169112.14749  -9505246.98045  23877519.147    23877526.003
       213.000         156.000
  22659262.688   -17386123.53749 -13180637.01946  22659262.459    22659267.679
       232.000         185.000
  20748931.591     -351471.18749   -261105.24048  20748931.254    20748936.086
       244.000         214.000
  20754810.686   -24650952.46149 -18828856.56348  20754810.394    20754814.841
       247.000         217.000
  22202698.566   -14059744.84049 -10939297.89746  22202698.781    22202703.921
       227.000         184.000
  21839039.896   -16369173.71849 -12736857.47347  21839039.857    21839046.087
       232.000         189.000
  24045957.388   -10450637.80449  -8104939.58145  24045957.180    24045964.703
       216.000         160.000
 99  4 24  1 18 30.0000000  0  7G 3G21G17G23G26G 6G22
  23859114.341   -13265836.69149  -9580616.71045  23859114.499    23859120.323
       214.000         156.000
  22648076.656   -17444906.52949 -13226441.89646  22648076.273    22648081.626
       232.000         185.000
  20747816.493     -357331.24749   -265671.52348  20747816.146    20747820.943
       245.000         214.000
  20754959.501   -24650170.40549 -18828247.15748  20754959.211    20754963.670
       247.000         217.000
  22214032.054   -14000186.60649 -10892888.91446  22214031.866    22214037.094
       229.000         184.000
  21855809.535   -16281048.94349 -12668188.88347  21855809.678    21855815.158
       233.000         190.000
  24054923.672   -10403519.80949  -8068224.31645  24054922.863    24054931.050
       217.000         160.000
 99  4 24  1 19  0.0000000  0  7G 3G21G17G23G26G 6G22
  23840748.740   -13362348.19149  -9655820.42345  23840748.283    23840755.386
       214.000         155.000
  22636931.796   -17503472.73749 -13272077.84046  22636930.619    22636936.824
       231.000         185.000
  20746732.825     -363025.78449   -270108.82348  20746732.366    20746737.306
       245.000         214.000
  20755158.875   -24649122.48349 -18827430.59248  20755158.483    20755163.166
       246.000         216.000
  22225458.283   -13940140.94549 -10846100.12146  22225458.335    22225463.746
       229.000         185.000
  21872633.423   -16192639.37749 -12599298.37047  21872634.031    21872639.226
       233.000         190.000
  24063938.465   -10356145.83849  -8031309.59645  24063938.522    24063945.238
       217.000         159.000
 99  4 24  1 19 30.0000000  0  7G 3G21G17G23G26G 6G22
  23822428.050   -13458622.78849  -9730839.54045  23822427.966    23822434.404
       214.000         156.000
  22625837.159   -17561774.85949 -13317508.00346  22625837.009    22625842.502
       232.000         185.000
  20745687.869     -368516.79649   -274387.53948  20745687.469    20745692.248
       245.000         214.000
  20755414.807   -24647777.46249 -18826382.52148  20755414.356    20755418.964
       246.000         216.000
  22236982.123   -13879582.69749 -10798911.90746  22236982.987    22236987.506
       231.000         186.000
  21889516.637   -16103917.84849 -12530164.77647  21889516.753    21889522.263
       233.000         190.000
  24073007.242   -10308489.53649  -7994174.88245  24073007.004    24073014.690
       218.000         160.000
 99  4 24  1 20  0.0000000  0  7G 3G21G17G23G26G 6G22
  23804152.188   -13554662.27549  -9805675.44145  23804152.348    23804158.688
       216.000         157.000
  22614795.563   -17619798.99449 -13362721.55546  22614795.353    22614801.107
       232.000         185.000
  20744683.854     -373792.83849   -278498.73848  20744683.464    20744688.097
       245.000         214.000
  20755730.686   -24646117.32249 -18825088.89848  20755730.337    20755734.757
       246.000         216.000
  22248603.288   -13818513.21549 -10751325.32346  22248603.692    22248609.115
       230.000         187.000
  21906463.021   -16014864.20649 -12460772.40047  21906463.031    21906468.725
       234.000         190.000
  24082130.135   -10260548.98149  -7956818.67845  24082129.569    24082136.570
       218.000         160.000
 99  4 24  1 20 30.0000000  0  7G 3G21G17G23G26G 6G22
  23785910.392   -13650523.80849  -9880372.68045  23785910.937    23785917.321
       216.000         159.000
  22603801.639   -17677572.43749 -13407739.75946  22603801.334    22603807.208
       232.000         186.000
  20743716.362     -378877.16349   -282460.54648  20743715.824    20743720.400
       245.000         214.000
  20756100.525   -24644173.54249 -18823574.26048  20756100.101    20756104.678
       245.000         216.000
  22260312.831   -13756979.30949 -10703376.85046  22260313.286    22260318.849
       232.000         187.000
  21923464.856   -15925519.71149 -12391153.38247  21923465.161    21923470.362
       233.000         190.000
  24091299.035   -10212367.45949  -7919274.68645  24091298.991    24091305.648
       220.000         161.000
 99  4 24  1 21  0.0000000  0  7G 3G21G17G23G26G 6G22
  23767720.612   -13746112.64149  -9954857.42345  23767720.789    23767727.118
       218.000         160.000
  22592873.324   -17735001.14549 -13452489.34346  22592872.880    22592879.098
       232.000         187.000
  20742805.748     -383662.69349   -286189.53148  20742805.505    20742810.066
       245.000         214.000
  20756546.830   -24641827.87149 -18821746.46148  20756546.582    20756550.948
       245.000         216.000
  22272131.263   -13694873.29749 -10654982.58446  22272131.704    22272136.274
       231.000         186.000
  21940544.202   -15835767.59449 -12321216.73147  21940544.427    21940550.861
       232.000         189.000
  24100531.645   -10163850.30249  -7881469.18445  24100530.980    24100538.228
       217.000         160.000
 99  4 24  1 21 30.0000000  0  7G 3G21G17G23G26G 6G22
  23749574.292   -13841473.16949 -10029164.25545  23749574.861    23749580.314
       217.000         160.000
  22581997.910   -17792151.24249 -13497021.82446  22581997.518    22582003.176
       232.000         187.000
  20741941.867     -388202.66649   -289727.17348  20741941.653    20741946.322
       245.000         214.000
  20757063.799   -24639111.21949 -18819629.58248  20757063.484    20757067.871
       245.000         216.000
  22284051.524   -13632232.31849 -10606171.46546  22284052.052    22284057.130
       232.000         187.000
  21957699.169   -15745617.92449 -12250970.28647  21957699.361    21957704.839
       232.000         189.000
  24109823.114   -10115023.27449  -7843422.23345  24109823.167    24109829.743
       218.000         159.000
 99  4 24  1 22  0.0000000  0  7G 3G21G17G23G26G 6G22
  23731460.540   -13936662.31649 -10103337.53745  23731460.202    23731467.085
       216.000         158.000
  22571160.610   -17849101.40249 -13541398.51846  22571159.871    22571165.595
       232.000         187.000
  20741112.631     -392560.43749   -293122.84248  20741112.097    20741117.048
       244.000         214.000
  20757640.066   -24636082.93549 -18817269.88148  20757639.805    20757644.247
       246.000         216.000
  22296061.298   -13569120.85149 -10556993.71846  22296061.828    22296066.035
       232.000         187.000
  21974915.487   -15655145.69549 -12180472.51447  21974915.573    21974921.904
       232.000         188.000
  24119161.887   -10065948.49249  -7805182.17945  24119161.732    24119169.411
       218.000         159.000
 99  4 24  1 22 30.0000000  0  7G 3G21G17G23G26G 6G22
  23713407.192   -14031532.64149 -10177262.40445  23713407.270    23713412.896
       216.000         157.000
  22560385.406   -17905725.02249 -13585520.75846  22560384.671    22560390.211
       232.000         186.000
  20740345.320     -396592.45349   -296264.67848  20740344.868    20740349.698
       244.000         214.000
  20758301.330   -24632608.01549 -18814562.15048  20758301.147    20758305.559
       246.000         216.000
  22308188.914   -13505390.10949 -10507333.42946  22308189.512    22308193.633
       233.000         186.000
  21992218.231   -15564219.05249 -12109620.64346  21992218.064    21992223.892
       231.000         187.000
  24128575.098   -10016481.34349  -7766636.42845  24128574.885    24128581.842
       217.000         157.000
 99  4 24  1 23  0.0000000  0  7G 3G21G17G23G26G 6G22
  23695390.555   -14126209.98749 -10251036.90545  23695390.163    23695397.127
       217.000         157.000
  22549643.716   -17962172.09649 -13629505.42846  22549642.657    22549648.508
       232.000         186.000
  20739611.303     -400449.70449   -299270.33148  20739610.916    20739615.735
       244.000         214.000
  20759016.506   -24628849.99949 -18811633.81748  20759016.152    20759020.664
       245.000         216.000
  22320405.813   -13441189.68749 -10457307.14446  22320406.174    22320410.416
       231.000         186.000
  22009580.794   -15472977.99949 -12038523.79246  22009581.294    22009586.277
       230.000         186.000
  24138034.076    -9966774.32849  -7727903.75645  24138032.768    24138040.488
       217.000         159.000
 99  4 24  1 23 30.0000000  0  7G 3G21G17G23G26G 6G22
  23677415.826   -14220668.61349 -10324640.96145  23677415.536    23677421.494
       218.000         158.000
  22538938.958   -18018425.81749 -13673339.45946  22538938.568    22538944.044
       233.000         186.000
  20738915.842     -404104.55449   -302118.27448  20738915.548    20738920.382
       244.000         214.000
  20759784.959   -24624811.57449 -18808486.98648  20759784.790    20759789.084
       246.000         216.000
  22332717.891   -13376489.38649 -10406891.34846  22332717.931    22332723.439
       231.000         185.000
  22027005.752   -15381409.33549 -11967171.65246  22027006.101    22027012.271
       231.000         185.000
  24147542.977    -9916805.17349  -7688966.84845  24147543.563    24147551.177
       216.000         158.000
 99  4 24  1 24  0.0000000  0  7G 3G21G17G23G26G 6G22
  23659498.176   -14314826.47249 -10398010.66945  23659497.661    23659504.782
       218.000         159.000
  22528287.640   -18074398.73649 -13716954.66946  22528287.451    22528293.292
       233.000         186.000
  20738276.968     -407461.85249   -304734.36048  20738276.630    20738281.544
       244.000         214.000
  20760618.228   -24620432.88149 -18805075.00948  20760618.093    20760622.244
       247.000         217.000
  22345138.069   -13311221.13549 -10356032.99946  22345138.423    22345143.345
       231.000         184.000
  22044503.143   -15289460.21349 -11895523.04546  22044503.398    22044508.895
       230.000         185.000
  24157114.570    -9866507.79349  -7649774.13545  24157113.808    24157121.216
       217.000         156.000
 99  4 24  1 24 30.0000000  0  7G 3G21G17G23G26G 6G22
  23641620.193   -14408774.99149 -10471217.24645  23641620.677    23641626.037
       216.000         159.000
  22517672.627   -18130181.04449 -13760421.36146  22517671.830    22517678.306
       231.000         187.000
  20737672.738     -410637.14249   -307208.61848  20737672.278    20737677.017
       244.000         214.000
  20761494.002   -24615830.91549 -18801489.05548  20761493.847    20761498.063
       247.000         217.000
  22357643.185   -13245505.99549 -10304826.42446  22357643.276    22357648.779
       230.000         183.000
  22062055.503   -15197222.28649 -11823649.39446  22062055.887    22062061.937
       230.000         186.000
  24166728.549    -9815986.48649  -7610406.96945  24166728.452    24166735.847
       216.000         155.000
 99  4 24  1 25  0.0000000  0  7G 3G21G17G23G26G 6G22
  23623781.426   -14502518.61449 -10544264.16745  23623781.466    23623786.762
       216.000         160.000
  22507092.726   -18185778.16749 -13803743.74846  22507092.274    22507098.394
       231.000         187.000
  20737096.827     -413663.38449   -309566.73648  20737096.377    20737101.243
       244.000         214.000
  20762409.255   -24611021.47749 -18797741.43448  20762409.083    20762413.181
       247.000         217.000
  22370226.318   -13179381.46349 -10253300.83946  22370226.914    22370231.746
       230.000         182.000
  22079658.596   -15104717.51749 -11751567.81846  22079659.100    22079664.852
       230.000         186.000
  24176382.717    -9765253.73549  -7570875.04645  24176382.848    24176388.264
       215.000         154.000
 99  4 24  1 25 30.0000000  0  7G 3G21G17G23G26G 6G22
  23605989.876   -14596014.28349 -10617117.87445  23605988.754    23605994.564
       217.000         160.000
  22496555.577   -18241150.98649 -13846891.35746  22496554.779    22496561.010
       233.000         187.000
  20736556.468     -416503.02849   -311779.45648  20736556.091    20736560.980
       244.000         214.000
  20763373.483   -24605954.44749 -18793793.09048  20763373.156    20763377.654
       247.000         217.000
  22382895.342   -13112805.59349 -10201423.56246  22382895.934    22382900.769
       228.000         181.000
  22097319.452   -15011909.59449 -11679250.02646  22097319.814    22097325.734
       230.000         185.000
  24186084.700    -9714269.92849  -7531147.47045  24186083.563    24186091.262
       215.000         156.000
 99  4 24  1 26  0.0000000  0  7G 3G21G17G23G26G 6G22
  23588249.565   -14689240.43849 -10689761.58545  23588249.315    23588254.490
       218.000         161.000
  22486069.268   -18296256.64749 -13889830.78546  22486069.508    22486074.757
       233.000         187.000
  20736054.794     -419139.14949   -313833.58848  20736054.568    20736059.403
       244.000         214.000
  20764393.324   -24600595.25449 -18789617.09048  20764393.020    20764397.200
       247.000         217.000
  22395649.999   -13045779.44649 -10149195.41146  22395649.764    22395655.200
       227.000         180.000
  22115039.999   -14918788.00549 -11606687.81346  22115040.456    22115045.626
       230.000         185.000
  24195836.606    -9663023.35449  -7491215.17245  24195836.021    24195842.498
       214.000         154.000
 99  4 24  1 26 30.0000000  0  7G 3G21G17G23G26G 6G22
  23570558.102   -14782210.44949 -10762205.69145  23570557.243    23570563.107
       217.000         161.000
  22475628.918   -18351121.20449 -13932582.34346  22475628.486    22475634.227
       233.000         187.000
  20735587.658     -421594.05049   -315746.50548  20735587.252    20735592.198
       245.000         214.000
  20765466.965   -24594953.35249 -18785220.79948  20765466.846    20765470.909
       247.000         217.000
  22408489.380   -12978307.49249 -10096619.89546  22408489.516    22408494.855
       227.000         178.000
  22132818.697   -14825360.61249 -11533887.31246  22132819.348    22132825.224
       229.000         184.000
  24205635.077    -9611531.41749  -7451091.66845  24205634.798    24205641.270
       213.000         153.000
 99  4 24  1 27  0.0000000  0  7G 3G21G17G23G26G 6G22
  23552917.815   -14874910.35649 -10834439.34545  23552918.084    23552923.044
       218.000         161.000
  22465236.602   -18405732.66149 -13975136.68047  22465236.241    22465241.982
       234.000         188.000
  20735161.607     -423833.14049   -317491.25348  20735161.426    20735166.172
       245.000         215.000
  20766600.331   -24588997.49549 -18780579.86748  20766600.002    20766604.034
       247.000         217.000
  22421423.588   -12910338.03149 -10043656.69846  22421424.301    22421428.912
       226.000         177.000
  22150658.561   -14731611.34249 -11460836.00146  22150658.138    22150664.334
       229.000         183.000
  24215482.467    -9559783.34349  -7410768.54645  24215482.680    24215488.539
       216.000         153.000
 99  4 24  1 27 30.0000000  0  7G 3G21G17G23G26G 6G22
  23535326.526   -14967353.00049 -10906472.52845  23535326.413    23535331.166
       219.000         162.000
  22454891.780   -18460094.76449 -14017496.72447  22454891.392    22454896.581
       234.000         188.000
  20734778.308     -425847.73049   -319061.06948  20734777.932    20734782.553
       245.000         215.000
  20767792.693   -24582731.33049 -18775697.13748  20767792.396    20767796.824
       247.000         217.000
  22434453.462   -12841865.80049  -9990301.74246  22434454.330    22434459.510
       225.000         176.000
  22168557.962   -14637549.17649 -11387540.86546  22168558.446    22168564.413
       229.000         183.000
  24225376.554    -9507790.78949  -7370254.93445  24225376.431    24225382.950
       216.000         155.000
 99  4 24  1 28  0.0000000  0  7G 3G21G17G23G26G 6G22
  23517779.594   -15059563.07449 -10978324.47146  23517778.900    23517784.611
       219.000         164.000
  22444591.330   -18514224.28249 -14059675.52347  22444591.423    22444596.391
       234.000         188.000
  20734435.602     -427648.69549   -320464.41948  20734435.089    20734439.884
       245.000         215.000
  20769043.037   -24576160.73749 -18770577.18548  20769042.951    20769047.371
       246.000         217.000
  22447575.046   -12772911.52649  -9936571.16846  22447575.137    22447580.702
       225.000         175.000
  22186513.672   -14543191.64049 -11314015.56746  22186513.886    22186520.061
       229.000         183.000
  24235315.027    -9455563.84149  -7329558.68145  24235315.690    24235322.070
       215.000         155.000
 99  4 24  1 28 30.0000000  0  7G 3G21G17G23G26G 6G22
  23500279.421   -15151526.73849 -11049984.43046  23500278.756    23500285.039
       220.000         165.000
  22434333.059   -18568132.12049 -14101681.58847  22434332.795    22434338.007
       235.000         189.000
  20734138.952     -429207.53349   -321679.10048  20734138.535    20734143.131
       245.000         215.000
  20770354.764   -24569267.39549 -18765205.74748  20770354.303    20770358.918
       246.000         216.000
  22460793.639   -12703447.53549  -9882443.41946  22460794.156    22460799.229
       225.000         174.000
  22204531.776   -14448506.54649 -11240235.04946  22204531.803    22204538.077
       229.000         183.000
  24245300.346    -9403090.18949  -7288670.19845  24245299.049    24245307.673
       213.000         154.000
 99  4 24  1 29  0.0000000  0  8G 3G29G21G17G23G26G 6G22
  23482827.344   -15243237.07549 -11121446.98446  23482826.997    23482832.229
       221.000         165.000
  24501648.443    -4307246.16848  -1854715.54145  24501647.083    24501659.711
       191.000         136.000
  22424118.594   -18621809.49749 -14143508.06147  22424118.056    22424123.552
       233.000         189.000
  20733890.860     -430511.43649   -322695.12648  20733890.606    20733895.207
       245.000         214.000
  20771730.076   -24562039.94749 -18759573.96348  20771729.781    20771734.321
       246.000         216.000
  22474107.049   -12633485.27849  -9827927.39746  22474107.069    22474112.524
       224.000         172.000
  22222613.014   -14353489.22549 -11166195.64546  22222613.245    22222619.607
       229.000         182.000
  24255333.292    -9350366.58749  -7247586.94945  24255332.773    24255340.747
       212.000         153.000
 99  4 24  1 29 30.0000000  0  8G 3G29G21G17G23G26G 6G22
  23465431.334   -15334653.03049 -11192680.17546  23465430.401    23465436.790
       219.000         164.000
  24480923.828    -4416152.00949  -1939576.80345  24480923.509    24480935.650
       200.000         139.000
  22413954.480   -18675221.65849 -14185127.87847  22413954.342    22413959.805
       235.000         189.000
  20733699.415     -431517.20849   -323478.85248  20733698.769    20733703.737
       244.000         214.000
  20773174.730   -24554448.16449 -18753658.29748  20773174.331    20773178.774
       246.000         216.000
  22487516.803   -12563016.69649  -9773016.85546  22487517.146    22487520.818
       225.000         170.000
  22240764.253   -14258104.03049 -11091869.59246  22240764.449    22240770.057
       228.000         181.000
  24265421.918    -9297350.73649  -7206275.97745  24265421.988    24265428.897
       215.000         153.000
 99  4 24  1 30  0.0000000  0  8G 3G29G21G17G23G26G 6G22
  23448088.874   -15425787.28049 -11263693.84046  23448088.726    23448094.481
       219.000         163.000
  24460208.459    -4525010.35249  -2024401.07945  24460208.120    24460219.537
       202.000         144.000
  22403837.011   -18728389.07849 -14226556.98747  22403836.017    22403842.179
       234.000         189.000
  20733563.144     -432232.94449   -324036.56948  20733562.873    20733567.493
       245.000         214.000
  20774684.325   -24546515.09049 -18747476.67848  20774684.055    20774688.368
       246.000         216.000
  22501020.242   -12492056.24849  -9717723.02346  22501020.068    22501025.408
       221.000         168.000
  22258984.749   -14162354.81649 -11017259.87546  22258984.606    22258991.106
       227.000         181.000
  24275562.828    -9244061.05749  -7164751.58245  24275561.598    24275569.531
       215.000         153.000
 99  4 24  1 30 30.0000000  0  8G 3G29G21G17G23G26G 6G22
  23430801.510   -15516632.12449 -11334481.98346  23430800.564    23430808.038
       218.000         163.000
  24439502.498    -4633819.93749  -2109187.35545  24439502.954    24439513.120
       210.000         146.000
  22393766.372   -18781310.17249 -14267794.15547  22393766.048    22393771.895
       235.000         189.000
  20733480.672     -432666.43749   -324374.36448  20733480.430    20733485.133
       244.000         214.000
  20776252.236   -24538275.59549 -18741056.29248  20776252.090    20776256.311
       246.000         216.000
  22514615.249   -12420614.00649  -9662053.78846  22514616.285    22514620.660
       223.000         167.000
  22277271.352   -14066258.17549 -10942379.45946  22277271.256    22277278.079
       229.000         181.000
  24285752.255    -9190515.00049  -7123027.47045  24285751.874    24285758.353
       214.000         153.000
 99  4 24  1 31  0.0000000  0  8G 3G29G21G17G23G26G 6G22
  23413562.679   -15607222.31849 -11405071.71146  23413562.108    23413568.765
       219.000         164.000
  24418796.182    -4742632.07349  -2193975.66445  24418796.259    24418806.382
       214.000         148.000
  22383737.667   -18834011.24549 -14308859.86847  22383737.601    22383743.057
       236.000         190.000
  20733438.132     -432890.09749   -324548.64748  20733437.620    20733442.774
       244.000         214.000
  20777866.502   -24529792.82249 -18734446.33148  20777866.083    20777870.599
       246.000         216.000
  22528289.311   -12348756.56849  -9606061.02146  22528289.550    22528294.588
       223.000         167.000
  22295609.428   -13969891.78049 -10867288.82746  22295609.860    22295616.203
       230.000         182.000
  24295980.937    -9136763.37549  -7081143.14445  24295980.373    24295987.945
       214.000         153.000
 99  4 24  1 31 30.0000000  0  8G 3G29G21G17G23G26G 6G22
  23396380.464   -15697514.59749 -11475429.29046  23396380.043    23396386.451
       219.000         164.000
  24398096.324    -4851409.96249  -2278737.27945  24398095.290    24398105.659
       213.000         151.000
  22373759.339   -18886448.18749 -14349719.78347  22373758.919    22373764.344
       236.000         190.000
  20733439.399     -432883.54349   -324543.54748  20733439.149    20733443.921
       244.000         214.000
  20779530.975   -24521045.79849 -18727630.46048  20779530.560    20779534.786
       246.000         216.000
  22542050.304   -12276442.49549  -9549712.43946  22542051.043    22542055.062
       224.000         166.000
  22314003.237   -13873232.72249 -10791970.15346  22314003.807    22314009.296
       229.000         182.000
  24306255.017    -9082773.09049  -7039072.85645  24306255.430    24306261.146
       216.000         154.000
 99  4 24  1 32  0.0000000  0  8G 3G29G21G17G23G26G 6G22
  23379252.222   -15787523.61649 -11545566.15846  23379251.971    23379258.663
       219.000         164.000
  24377397.700    -4960180.58849  -2363493.21645  24377396.659    24377407.390
       209.000         149.000
  22363826.514   -18938645.92749 -14390393.30347  22363826.975    22363831.346
       237.000         191.000
  20733475.785     -432692.47049   -324394.66948  20733475.604    20733480.385
       244.000         214.000
  20781238.168   -24512074.45749 -18720639.80148  20781237.908    20781242.141
       246.000         216.000
  22555892.045   -12203704.45849  -9493033.48046  22555892.940    22555897.287
       222.000         165.000
  22332446.134   -13776314.89749 -10716449.83846  22332446.409    22332452.906
       227.000         181.000
  24316567.608    -9028580.13149  -6996844.65545  24316567.840    24316573.309
       215.000         154.000
 99  4 24  1 32 30.0000000  0  8G 3G29G21G17G23G26G 6G22
  23362186.496   -15877204.19549 -11615447.08846  23362186.975    23362193.212
       220.000         164.000
  24356705.804    -5068915.32349  -2448221.14645  24356705.584    24356716.360
       214.000         147.000
  22353945.662   -18990570.60349 -14430854.03847  22353945.426    22353950.021
       236.000         191.000
  20733552.778     -432287.88749   -324079.41648  20733552.410    20733556.999
       244.000         214.000
  20782994.796   -24502843.30749 -18713446.68948  20782994.572    20782998.775
       247.000         216.000
  22569818.400   -12130520.92849  -9436007.36846  22569818.690    22569823.104
       220.000         164.000
  22350942.037   -13679118.07649 -10640712.12546  22350942.375    22350948.004
       229.000         181.000
  24326924.395    -8974156.12449  -6954436.38545  24326924.651    24326929.869
       215.000         152.000
 99  4 24  1 33  0.0000000  0  8G 3G29G21G17G23G26G 6G22
  23345176.468   -15966591.87849 -11685099.77846  23345175.971    23345183.405
       218.000         164.000
  24336015.897    -5177640.57249  -2532941.74245  24336015.587    24336025.484
       216.000         146.000
  22344108.625   -19042264.42149 -14471134.89047  22344107.916    22344112.866
       236.000         191.000
  20733666.570     -431689.89049   -323613.45548  20733666.062    20733670.849
       244.000         214.000
  20784799.359   -24493360.40549 -18706057.40748  20784799.113    20784803.427
       247.000         217.000
  22583826.307   -12056907.82249  -9378646.54245  22583826.312    22583831.482
       218.000         162.000
  22369489.277   -13581652.13149 -10564764.71346  22369489.725    22369495.343
       229.000         181.000
  24337322.899    -8919513.08249  -6911857.43445  24337322.322    24337328.861
       215.000         152.000
 99  4 24  1 33 30.0000000  0  8G 3G29G21G17G23G26G 6G22
  23328208.522   -16055758.02649 -11754579.85546  23328207.898    23328215.370
       218.000         165.000
  24315318.680    -5286404.19349  -2617692.23545  24315318.156    24315327.787
       211.000         142.000
  22334301.966   -19093798.24649 -14511291.07747  22334301.285    22334306.654
       235.000         191.000
  20733811.480     -430928.53549   -323020.20148  20733811.071    20733815.765
       244.000         213.000
  20786642.382   -24483675.05749 -18698510.37348  20786642.087    20786646.501
       247.000         217.000
  22597907.994   -11982907.89749  -9320984.29045  22597908.943    22597913.450
       219.000         160.000
  22388082.029   -13483947.23749 -10488631.09346  22388081.893    22388088.276
       229.000         181.000
  24347754.517    -8864694.75349  -6869141.94845  24347753.361    24347759.989
       215.000         152.000
 99  4 24  1 34  0.0000000  0  8G 3G29G21G17G23G26G 6G22
  23311292.862   -16144650.80349 -11823846.91146  23311293.367    23311299.711
       220.000         167.000
  24294624.587    -5395151.49649  -2702429.97145  24294623.602    24294633.546
       211.000         141.000
  22324535.656   -19145120.06149 -14551282.06347  22324535.426    22324540.605
       236.000         192.000
  20734003.477     -429919.60549   -322234.03748  20734003.028    20734007.929
       243.000         213.000
  20788538.579   -24473710.65049 -18690745.89948  20788538.364    20788542.706
       247.000         217.000
  22612075.343   -11908458.60349  -9262971.87845  22612076.415    22612081.069
       218.000         159.000
  22406731.491   -13385943.94649 -10412264.97346  22406731.922    22406738.150
       227.000         181.000
  24358229.325    -8809649.29149  -6826249.44645  24358229.728    24358235.758
       216.000         153.000
 99  4 24  1 34 30.0000000  0  8G 3G29G21G17G23G26G 6G22
  23294427.486   -16233279.92949 -11892908.51246  23294427.883    23294433.351
       222.000         169.000
  24273938.355    -5503857.40849  -2787135.48245  24273937.683    24273947.249
       209.000         140.000
  22314812.505   -19196215.10349 -14591096.33147  22314812.287    22314817.491
       236.000         192.000
  20734246.811     -428640.65549   -321237.46348  20734246.370    20734251.544
       243.000         213.000
  20790493.851   -24463435.57649 -18682739.34048  20790493.551    20790497.942
       247.000         217.000
  22626333.173   -11833533.38249  -9204588.63045  22626333.795    22626338.405
       216.000         159.000
  22425439.372   -13287632.97449 -10335659.09446  22425439.211    22425445.621
       227.000         180.000
  24368747.702    -8754374.59549  -6783178.31445  24368747.077    24368754.497
       212.000         152.000
 99  4 24  1 35  0.0000000  0  8G 3G29G21G17G23G26G 6G22
  23277614.572   -16321632.53649 -11961754.65746  23277614.323    23277620.803
       220.000         170.000
  24253262.440    -5612507.63449  -2871797.55545  24253261.297    24253269.987
       204.000         135.000
  22305134.919   -19247070.89949 -14630724.17847  22305134.087    22305139.950
       236.000         192.000
  20734541.242     -427093.42949   -320031.84648  20734540.976    20734545.937
       243.000         213.000
  20792511.778   -24452831.21649 -18674476.19448  20792511.454    20792515.720
       247.000         217.000
  22640682.192   -11758128.49749  -9145831.61445  22640681.982    22640687.155
       215.000         158.000
  22444207.824   -13189004.26349 -10258805.63146  22444208.078    22444214.168
       226.000         179.000
  24379310.162    -8698868.61049  -6739926.97745  24379310.265    24379317.024
       213.000         152.000
 99  4 24  1 35 30.0000000  0  8G 3G29G21G17G23G26G 6G22
  23260861.362   -16409670.94849 -12030355.96246  23260861.741    23260868.276
       222.000         171.000
  24232601.765    -5721077.58549  -2956397.07545  24232600.230    24232611.780
       204.000         134.000
  22295511.015   -19297644.62649 -14670132.23847  22295510.120    22295515.953
       236.000         192.000
  20734888.474     -425268.71549   -318610.00348  20734888.046    20734892.680
       243.000         213.000
  20794596.450   -24441876.29349 -18665939.88548  20794596.151    20794600.280
       247.000         218.000
  22655122.764   -11682242.70749  -9086699.87945  22655122.685    22655128.328
       216.000         159.000
  22463036.783   -13090057.36149 -10181704.22846  22463036.663    22463042.723
       226.000         178.000
  24389915.194    -8643138.92149  -6696501.33945  24389914.044    24389922.171
       211.000         152.000
 99  4 24  1 36  0.0000000  0  8G 3G29G21G17G23G26G 6G22
  23244163.392   -16497420.04749 -12098731.82346  23244163.421    23244169.469
       223.000         171.000
  24211951.648    -5829592.18349  -3040953.46745  24211950.016    24211958.355
       197.000         133.000
  22285934.771   -19347967.61049 -14709344.90947  22285934.419    22285939.783
       237.000         193.000
  20735278.050     -423221.33749   -317014.65948  20735277.626    20735282.609
       243.000         213.000
  20796739.379   -24430615.17249 -18657164.98448  20796739.157    20796743.458
       247.000         218.000
  22669645.256   -11605926.57049  -9027232.80845  22669645.501    22669651.446
       216.000         160.000
  22481914.978   -12990852.13349 -10104401.52846  22481915.854    22481921.359
       225.000         177.000
  24400552.611    -8587238.66149  -6652942.78245  24400552.299    24400559.258
       214.000         151.000
 99  4 24  1 36 30.0000000  0  8G 3G29G21G17G23G26G 6G22
  23227535.057   -16584802.72449 -12166822.18246  23227534.982    23227540.366
       223.000         171.000
  24191326.905    -5937973.24049  -3125405.78745  24191325.374    24191337.185
       200.000         133.000
  22276419.984   -19397968.15549 -14748306.33847  22276419.756    22276425.008
       236.000         193.000
  20735719.355     -420902.06749   -315207.44648  20735718.861    20735723.782
       243.000         213.000
  20798948.833   -24419004.50149 -18648117.70648  20798948.448    20798952.827
       247.000         218.000
  22684258.729   -11529132.87949  -8967393.62045  22684259.664    22684264.350
       217.000         160.000
  22500854.517   -12891324.82349 -10026847.85546  22500854.223    22500860.754
       225.000         176.000
  24411238.157    -8531086.15449  -6609187.67045  24411239.091    24411243.685
       211.000         150.000
 99  4 24  1 37  0.0000000  0  8G 3G29G21G17G23G26G 6G22
  23210978.264   -16671809.17049 -12234619.37246  23210978.824    23210983.620
       224.000         171.000
  24170725.120    -6046234.39749  -3209764.71945  24170724.236    24170734.001
       203.000         135.000
  22266964.638   -19447656.33249 -14787024.36547  22266964.241    22266969.584
       237.000         193.000
  20736213.268     -418306.65349   -313185.05748  20736213.098    20736217.857
       243.000         213.000
  20801219.691   -24407071.05149 -18638818.91848  20801219.316    20801223.778
       247.000         218.000
  22698959.513   -11451881.11549  -8907197.49245  22698960.227    22698964.581
       217.000         162.000
  22519854.604   -12791479.30849  -9949046.22846  22519854.409    22519861.394
       226.000         176.000
  24421972.798    -8474675.31249  -6565231.23945  24421971.781    24421978.826
       211.000         148.000
 99  4 24  1 37 30.0000000  0  8G 3G29G21G17G23G26G 6G22
  23194474.006   -16758540.60449 -12302202.27046  23194473.990    23194478.805
       224.000         171.000
  24150127.282    -6154475.09449  -3294107.70145  24150126.395    24150136.356
       208.000         140.000
  22257549.936   -19497130.51449 -14825575.63647  22257549.529    22257554.475
       236.000         192.000
  20736748.444     -415494.22949   -310993.56548  20736748.168    20736753.110
       244.000         213.000
  20803531.531   -24394922.03049 -18629352.14748  20803531.165    20803535.728
       246.000         217.000
  22713732.011   -11374251.07249  -8846706.59045  22713732.200    22713736.965
       217.000         162.000
  22538896.718   -12691412.84849  -9871072.43346  22538896.627    22538903.184
       227.000         176.000
  24432741.013    -8418087.65049  -6521137.03145  24432740.416    24432747.805
       211.000         148.000
 99  4 24  1 38  0.0000000  0  8G 3G29G21G17G23G26G 6G22
  23178025.976   -16844975.46449 -12369554.07646  23178025.727    23178031.258
       222.000         169.000
  24129538.544    -6262668.92249  -3378414.16345  24129538.208    24129547.810
       210.000         149.000
  22248179.352   -19546373.19749 -14863946.53047  22248179.186    22248183.871
       236.000         192.000
  20737335.288     -412410.43549   -308590.61748  20737334.982    20737340.075
       243.000         213.000
  20805887.264   -24382542.26149 -18619705.57848  20805886.904    20805891.281
       246.000         217.000
  22728584.126   -11296202.39849  -8785889.49446  22728584.998    22728589.981
       217.000         163.000
  22557987.113   -12591091.89749  -9792900.33546  22557987.710    22557994.541
       226.000         175.000
  24443550.890    -8361281.64049  -6476872.69245  24443550.032    24443558.145
       211.000         149.000
 99  4 24  1 38 30.0000000  0  8G 3G29G21G17G23G26G 6G22
  23161637.076   -16931099.06049 -12436663.33246  23161636.942    23161641.753
       221.000         169.000
  24108954.327    -6370838.72949  -3462701.93645  24108953.379    24108963.232
       208.000         151.000
  22238850.265   -19595397.70149 -14902147.39847  22238849.885    22238854.569
       236.000         192.000
  20737974.816     -409049.64749   -305971.83248  20737974.499    20737979.497
       244.000         213.000
  20808288.093   -24369926.00249 -18609874.72848  20808287.852    20808292.035
       246.000         217.000
  22743515.618   -11217736.58049  -8724747.34246  22743516.461    22743521.494
       220.000         164.000
  22577127.851   -12490506.78149  -9714522.39346  22577128.199    22577134.256
       226.000         175.000
  24454400.657    -8304265.87449  -6432444.89545  24454398.892    24454406.144
       210.000         147.000
 99  4 24  1 39  0.0000000  0  8G 3G29G21G17G23G26G 6G22
  23145302.656   -17016936.55249 -12503549.66146  23145302.481    23145308.021
       221.000         168.000
  24088368.833    -6479014.16149  -3546994.07345  24088367.800    24088378.613
       208.000         153.000
  22229554.768   -19644245.12049 -14940210.28347  22229554.310    22229559.478
       235.000         191.000
  20738663.017     -405433.23549   -303153.85448  20738662.852    20738667.632
       244.000         214.000
  20810730.492   -24357091.01349 -18599873.44448  20810730.231    20810734.471
       246.000         216.000
  22758522.478   -11138875.44649  -8663297.13846  22758523.682    22758527.875
       219.000         165.000
  22596313.391   -12389686.43049  -9635961.15446  22596313.658    22596318.948
       227.000         175.000
  24465282.074    -8247083.80849  -6387887.51745  24465282.767    24465289.508
       210.000         146.000
 99  4 24  1 39 30.0000000  0  8G 3G29G21G17G23G26G 6G22
  23129036.422   -17102415.63849 -12570156.71646  23129037.031    23129042.317
       222.000         168.000
  24067798.260    -6587111.21749  -3631225.14245  24067797.510    24067807.363
       210.000         154.000
  22220303.589   -19692859.67149 -14978091.71747  22220303.194    22220308.411
       236.000         192.000
  20739409.206     -401512.27849   -300098.56648  20739408.916    20739413.814
       244.000         214.000
  20813227.753   -24343967.96049 -18589647.68648  20813227.502    20813231.778
       246.000         216.000
  22773616.146   -11059558.08449  -8601491.43646  22773616.313    22773621.532
       219.000         163.000
  22615553.451   -12288579.73049  -9557176.78146  22615553.828    22615559.438
       226.000         174.000
  24476205.914    -8189679.50349  -6343156.98745  24476206.425    24476211.499
       213.000         145.000
 99  4 24  1 40  0.0000000  0  8G 3G29G21G17G23G26G 6G22
  23112829.293   -17187584.66049 -12636522.16746  23112829.141    23112834.244
       222.000         168.000
  24047231.475    -6695188.72849  -3715441.00045  24047230.429    24047240.505
       211.000         153.000
  22211083.994   -19741308.63149 -15015844.11447  22211083.827    22211088.661
       235.000         192.000
  20740192.990     -397393.66649   -296889.26048  20740192.454    20740197.302
       244.000         214.000
  20815765.770   -24330630.54549 -18579254.89448  20815765.395    20815769.891
       246.000         216.000
  22788779.819   -10979872.46249  -8539398.78845  22788779.786    22788785.508
       216.000         162.000
  22634834.762   -12187256.34749  -9478223.58146  22634833.841    22634840.484
       225.000         174.000
  24487155.094    -8132142.22149  -6298322.79545  24487153.706    24487162.052
       210.000         144.000
 99  4 24  1 40 30.0000000  0  8G 3G29G21G17G23G26G 6G22
  23096699.505   -17272346.41049 -12702570.26246  23096698.988    23096705.266
       222.000         168.000
  24026686.391    -6803152.80449  -3799568.53645  24026685.861    24026694.545
       213.000         153.000
  22201913.878   -19789497.60249 -15053393.91747  22201913.385    22201918.792
       235.000         192.000
  20741027.624     -393007.44549   -293471.43248  20741027.166    20741031.894
       244.000         214.000
  20818361.988   -24316987.11649 -18568623.65448  20818361.718    20818366.025
       246.000         215.000
  22804028.049   -10899742.03549  -8476959.54645  22804028.999    22804033.895
       216.000         161.000
  22654174.191   -12085627.32449  -9399032.21746  22654174.591    22654181.062
       225.000         175.000
  24498146.142    -8074383.61549  -6253316.17445  24498146.226    24498152.949
       207.000         142.000
 99  4 24  1 41  0.0000000  0  8G 3G29G21G17G23G26G 6G22
  23080616.154   -17356863.82349 -12768427.95946  23080615.542    23080621.532
       220.000         169.000
  24006139.143    -6911127.92449  -3883704.63645  24006138.116    24006146.865
       209.000         152.000
  22192768.665   -19837555.67949 -15090841.72347  22192767.946    22192773.724
       235.000         192.000
  20741888.351     -388484.48249   -289947.05248  20741887.990    20741892.775
       245.000         214.000
  20820987.343   -24303190.79749 -18557873.27748  20820986.911    20820991.398
       246.000         216.000
  22819333.551   -10819310.93549  -8414286.00845  22819333.314    22819339.354
       215.000         160.000
  22673544.074   -11983838.59249  -9319716.39946  22673543.762    22673551.570
       223.000         175.000
  24509153.179    -8016540.54449  -6208243.75145  24509151.727    24509160.086
       208.000         141.000
 99  4 24  1 41 30.0000000  0  8G 3G29G21G17G23G26G 6G22
  23064605.726   -17440998.98549 -12833987.78846  23064605.516    23064611.041
       223.000         171.000
  23985613.805    -7018987.28249  -3967750.52045  23985613.425    23985623.074
       208.000         151.000
  22183677.798   -19885327.80249 -15128066.71347  22183677.520    22183683.360
       235.000         193.000
  20742799.964     -383694.16049   -286214.33948  20742799.629    20742804.396
       244.000         214.000
  20823668.434   -24289101.52449 -18546894.62448  20823668.135    20823672.622
       246.000         216.000
  22834722.522   -10738440.87649  -8351270.42345  22834722.770    22834728.144
       214.000         159.000
  22692972.009   -11881744.18849  -9240162.41046  22692972.052    22692979.314
       225.000         176.000
  24520200.395    -7958486.70049  -6163007.07845  24520200.309    24520206.454
       204.000         140.000
 99  4 24  1 42  0.0000000  0  8G 3G29G21G17G23G26G 6G22
  23048658.213   -17524804.11449 -12899290.45646  23048658.536    23048664.270
       223.000         172.000
  23965100.319    -7126785.21549  -4051748.55745  23965099.347    23965108.302
       210.000         151.000
  22174635.779   -19932843.89849 -15165092.20747  22174635.569    22174640.770
       236.000         193.000
  20743756.492     -378667.34149   -282297.34848  20743755.967    20743760.678
       244.000         214.000
  20826398.918   -24274752.88549 -18535713.87348  20826398.614    20826402.965
       247.000         216.000
  22850187.587   -10657171.96249  -8287944.04445  22850188.314    22850193.121
       217.000         160.000
  22712451.575   -11779378.53049  -9160397.05546  22712451.397    22712458.605
       224.000         175.000
  24531279.318    -7900265.34149  -6117639.87645  24531279.259    24531287.309
       207.000         138.000
 99  4 24  1 42 30.0000000  0  8G 3G29G21G17G23G26G 6G22
  23032766.583   -17608315.57249 -12964364.27946  23032766.687    23032773.018
       223.000         173.000
  23944596.609    -7234531.49949  -4135706.37745  23944595.971    23944604.571
       210.000         152.000
  22165636.906   -19980133.29849 -15201941.04347  22165636.549    22165642.098
       235.000         193.000
  20744758.616     -373400.72349   -278193.49648  20744758.023    20744762.905
       243.000         213.000
  20829178.123   -24260148.05349 -18524333.48148  20829177.840    20829182.010
       247.000         216.000
  22865726.399   -10575516.26449  -8224316.27245  22865727.067    22865731.661
       217.000         159.000
  22731978.778   -11676762.27749  -9080436.43346  22731979.518    22731984.075
       224.000         173.000
  24542387.865    -7841889.89149  -6072152.60045  24542388.638    24542395.870
       207.000         140.000
 99  4 24  1 43  0.0000000  0  8G 3G29G21G17G23G26G 6G22
  23016940.683   -17691481.27349 -13029168.68346  23016940.584    23016946.671
       224.000         174.000
  23924112.140    -7342176.61149  -4219585.33645  23924111.422    23924120.534
       208.000         150.000
  22156686.309   -20027168.95649 -15238592.16847  22156685.916    22156691.237
       236.000         193.000
  20745815.651     -367846.03649   -273865.17848  20745815.541    20745820.198
       244.000         213.000
  20832016.556   -24245231.88049 -18512710.49248  20832016.335    20832020.815
       247.000         217.000
  22881346.909   -10493429.75249  -8160352.79445  22881347.633    22881352.251
       217.000         160.000
  22751559.977   -11573862.71149  -9000255.05446  22751560.462    22751566.766
       225.000         172.000
  24553530.521    -7783334.39249  -6026524.99745  24553530.485    24553540.955
       205.000         141.000
 99  4 24  1 43 30.0000000  0  8G 3G29G21G17G23G26G 6G22
  23001180.463   -17774301.62149 -13093703.97346  23001179.924    23001186.357
       224.000         175.000
  23903645.943    -7449726.93249  -4303390.42845  23903646.240    23903654.242
       212.000         150.000
  22147780.294   -20073969.80349 -15275060.31947  22147779.861    22147784.672
       235.000         192.000
  20746923.306     -362025.23349   -269329.49948  20746922.974    20746927.756
       244.000         213.000
  20834912.143   -24230015.55449 -18500853.61948  20834911.731    20834916.417
       246.000         217.000
  22897046.755   -10410926.50049  -8096064.58545  22897047.044    22897051.892
       218.000         161.000
  22771188.752   -11470713.23149  -8919878.92846  22771189.254    22771195.296
       225.000         172.000
  24564702.239    -7724625.88949  -5980778.19945  24564702.610    24564711.388
       209.000         139.000
 99  4 24  1 44  0.0000000  0  8G 3G29G21G17G23G26G 6G22
  22985495.098   -17856728.63749 -13157932.78346  22985495.443    22985501.033
       224.000         176.000
  23883210.968    -7557113.46949  -4387067.94445  23883210.168    23883218.236
       211.000         151.000
  22138926.059   -20120498.89849 -15311316.72647  22138925.611    22138931.039
       237.000         192.000
  20748093.167     -355877.67749   -264539.20548  20748092.914    20748097.694
       243.000         213.000
  20837870.917   -24214467.11449 -18488737.95448  20837870.772    20837875.226
       246.000         217.000
  22912833.390   -10327967.71449  -8031421.42646  22912834.085    22912839.367
       219.000         163.000
  22790869.906   -11367288.60449  -8839288.38546  22790870.059    22790877.694
       223.000         172.000
  24575913.601    -7665710.34949  -5934870.07845  24575914.548    24575921.794
       211.000         140.000
 99  4 24  1 44 30.0000000  0  8G 3G29G21G17G23G26G 6G22
  22969877.072   -17938802.34349 -13221886.28146  22969877.335    22969883.341
       226.000         177.000
  23862796.596    -7664390.24149  -4470659.88345  23862795.261    23862804.353
       210.000         150.000
  22130113.521   -20166809.07749 -15347402.53747  22130113.241    22130118.295
       236.000         192.000
  20749314.386     -349460.14249   -259538.53948  20749314.179    20749318.889
       243.000         213.000
  20840880.363   -24198652.38449 -18476414.79048  20840879.939    20840884.661
       246.000         217.000
  22928695.618   -10244611.47449  -7966468.55846  22928696.194    22928701.430
       219.000         166.000
  22810592.585   -11263644.98749  -8758527.21446  22810593.345    22810599.561
       222.000         172.000
  24587154.420    -7606640.84649  -5888841.96045  24587155.267    24587163.107
       210.000         143.000
 99  4 24  1 45  0.0000000  0  8G 3G29G21G17G23G26G 6G22
  22954329.199   -18020507.32549 -13285552.45946  22954329.558    22954334.670
       226.000         177.000
  23842403.080    -7771557.44449  -4554166.49845  23842401.849    23842409.582
       211.000         148.000
  22121347.363   -20212875.39049 -15383298.33547  22121347.310    22121352.557
       237.000         193.000
  20750588.372     -342765.48949   -254321.93648  20750587.907    20750592.890
       243.000         213.000
  20843938.191   -24182583.22149 -18463893.37048  20843937.822    20843942.404
       246.000         217.000
  22944633.707   -10160856.23849  -7901204.76546  22944634.270    22944639.181
       221.000         168.000
  22830358.833   -11159773.07049  -8677588.15146  22830359.651    22830366.504
       222.000         172.000
  24598427.718    -7547400.62949  -5842680.84245  24598427.433    24598436.344
       207.000         143.000
 99  4 24  1 45 30.0000000  0  8G 3G29G21G17G23G26G 6G22
  22938842.298   -18101891.59249 -13348968.72746  22938842.550    22938848.785
       226.000         178.000
  23822023.539    -7878650.76749  -4637615.50345  23822022.827    23822031.892
       213.000         151.000
  22112624.678   -20258713.48549 -15419016.29547  22112624.519    22112629.543
       238.000         194.000
  20751909.743     -335821.64349   -248911.16148  20751909.272    20751914.185
       243.000         213.000
  20847035.871   -24166304.72349 -18451208.83348  20847035.428    20847040.274
       245.000         216.000
  22960642.241   -10076730.67249  -7835652.39946  22960642.738    22960647.975
       221.000         169.000
  22850163.044   -11055701.67949  -8596493.62946  22850163.401    22850170.243
       221.000         171.000
  24609729.356    -7488011.29349  -5796403.54445  24609728.290    24609737.114
       207.000         142.000
 99  4 24  1 46  0.0000000  0  8G 3G29G21G17G23G26G 6G22
  22923422.462   -18182923.68649 -13412110.58246  22923422.365    22923428.332
       227.000         178.000
  23801660.609    -7985657.61649  -4720997.16545  23801659.784    23801667.464
       214.000         152.000
  22103949.438   -20304302.26949 -15454539.98047  22103948.945    22103954.466
       237.000         194.000
  20753284.594     -328596.56649   -243281.24048  20753284.300    20753289.269
       244.000         213.000
  20850177.827   -24149793.46349 -18438342.92148  20850177.642    20850182.169
       245.000         216.000
  22976725.310    -9992214.50849  -7769795.69246  22976726.783    22976731.474
       221.000         170.000
  22870013.985   -10951384.59449  -8515207.68646  22870014.518    22870020.793
       221.000         170.000
  24621066.825    -7428433.18949  -5749979.13745  24621066.590    24621074.658
       212.000         144.000
 99  4 24  1 46 30.0000000  0  8G 3G29G21G17G23G26G 6G22
  22908056.875   -18263670.45049 -13475030.09446  22908056.922    22908062.764
       227.000         178.000
  23781298.233    -8092661.85949  -4804376.82145  23781298.480    23781305.092
       214.000         151.000
  22095306.726   -20349719.33349 -15489929.86247  22095306.348    22095312.136
       238.000         195.000
  20754699.417     -321161.78149   -237487.90348  20754699.021    20754703.919
       243.000         213.000
  20853351.238   -24133117.10549 -18425348.36148  20853350.976    20853355.516
       245.000         216.000
  22992868.908    -9907379.86249  -7703690.82546  22992868.808    22992874.869
       218.000         169.000
  22889898.087   -10846892.78549  -8433785.60546  22889897.654    22889905.398
       220.000         169.000
  24632426.544    -7368739.29849  -5703464.47245  24632426.806    24632435.079
       213.000         146.000
 99  4 24  1 47  0.0000000  0  8G 3G29G21G17G23G26G 6G22
  22892766.604   -18344020.66049 -13537640.60146  22892766.787    22892772.511
       227.000         178.000
  23760963.239    -8199522.48049  -4887644.53245  23760963.467    23760970.602
       211.000         151.000
  22086718.015   -20394853.26249 -15525099.12747  22086718.313    22086723.595
       238.000         195.000
  20756177.570     -313394.26049   -231435.29548  20756177.267    20756181.855
       244.000         213.000
  20856578.427   -24116158.24649 -18412133.66748  20856578.241    20856582.680
       246.000         216.000
  23009097.235    -9822098.85349  -7637238.13246  23009097.293    23009102.790
       217.000         167.000
  22909835.496   -10742121.01549  -8352145.35446  22909835.201    22909842.645
       222.000         169.000
  24643827.851    -7308824.69149  -5656777.87645  24643827.313    24643837.341
       212.000         145.000
 99  4 24  1 47 30.0000000  0  8G 3G29G21G17G23G26G 6G22
  22877531.988   -18424079.06949 -13600023.74546  22877532.114    22877536.965
       228.000         179.000
  23740635.424    -8306344.66449  -4970882.34145  23740634.721    23740641.710
       210.000         150.000
  22078158.422   -20439834.63549 -15560149.50847  22078158.219    22078163.785
       239.000         196.000
  20757695.305     -305418.45849   -225220.38848  20757694.877    20757699.818
       243.000         213.000
  20859838.673   -24099025.50949 -18398783.48248  20859838.304    20859842.942
       245.000         215.000
  23025387.357    -9736493.50849  -7570532.70446  23025387.326    23025392.374
       217.000         165.000
  22929802.615   -10637193.40949  -8270383.67446  22929803.118    22929809.247
       221.000         169.000
  24655245.400    -7248825.80749  -5610025.60145  24655245.419    24655254.144
       214.000         147.000
 99  4 24  1 48  0.0000000  0  8G 3G29G21G17G23G26G 6G22
  22862375.493   -18503727.47549 -13662087.41446  22862376.346    22862380.721
       228.000         179.000
  23720335.853    -8413017.24849  -5054003.56045  23720334.964    23720342.919
       209.000         149.000
  22069645.810   -20484569.01249 -15595007.43147  22069645.462    22069651.382
       238.000         196.000
  20759271.295     -297136.61149   -218767.00948  20759270.916    20759275.715
       244.000         213.000
  20863150.931   -24081619.32849 -18385220.22248  20863150.711    20863155.069
       246.000         215.000
  23041757.440    -9650467.66049  -7503499.61446  23041757.733    23041763.039
       215.000         163.000
  22949818.461   -10532010.05549  -8188422.69346  22949819.241    22949825.317
       224.000         169.000
  24666697.867    -7188643.54549  -5563130.40245  24666696.351    24666706.016
       215.000         148.000
 99  4 24  1 48 30.0000000  0  8G 3G29G21G17G23G26G 6G22
  22847283.818   -18583035.14049 -13723885.55946  22847284.254    22847288.799
       228.000         179.000
  23700056.937    -8519581.97949  -5137040.74345  23700056.702    23700064.256
       211.000         150.000
  22061168.880   -20529115.58449 -15629719.01447  22061168.621    22061174.117
       238.000         196.000
  20760892.646     -288616.61849   -212128.06148  20760892.373    20760897.306
       244.000         213.000
  20866503.419   -24064001.91449 -18371492.36548  20866503.350    20866507.638
       246.000         215.000
  23058196.615    -9564079.50849  -7436184.22045  23058197.602    23058202.021
       216.000         162.000
  22969868.051   -10426649.26849  -8106323.47046  22969868.431    22969875.948
       224.000         169.000
  24678169.731    -7128358.58649  -5516155.20245  24678169.169    24678177.196
       214.000         149.000
 99  4 24  1 49  0.0000000  0  8G 3G29G21G17G23G26G 6G22
  22832255.085   -18662012.49849 -13785426.32646  22832255.269    22832259.794
       230.000         179.000
  23679798.404    -8626039.29949  -5219994.24545  23679797.867    23679805.100
       212.000         148.000
  22052726.417   -20573481.11949 -15664289.52647  22052726.315    22052731.409
       238.000         196.000
  20762553.909     -279886.86949   -205325.65848  20762553.463    20762558.285
       244.000         213.000
  20869894.795   -24046180.19449 -18357605.30548  20869894.513    20869898.825
       246.000         215.000
  23074701.534    -9477345.30649  -7368599.15745  23074700.997    23074707.266
       214.000         161.000
  22989950.046   -10321118.22549  -8024091.57446  22989949.609    22989956.099
       223.000         169.000
  24689656.672    -7067995.31949  -5469118.97845  24689656.856    24689663.867
       214.000         150.000
 99  4 24  1 49 30.0000000  0  8G 3G29G21G17G23G26G 6G22
  22817295.281   -18740627.66849 -13846684.86446  22817295.055    22817300.131
       230.000         180.000
  23659560.620    -8732388.44449  -5302863.48345  23659560.857    23659568.147
       213.000         149.000
  22044323.270   -20617639.94749 -15698698.96347  22044322.533    22044328.452
       239.000         196.000
  20764260.037     -270920.99749   -198339.26448  20764259.642    20764264.578
       244.000         213.000
  20873329.317   -24028131.66349 -18343541.51448  20873329.295    20873333.539
       246.000         215.000
  23091273.409    -9390258.89749  -7300739.65045  23091273.614    23091279.395
       214.000         159.000
  23010068.343   -10215396.22349  -7941710.87746  23010068.201    23010075.027
       221.000         166.000
  24701163.671    -7007526.96749  -5422000.85845  24701164.150    24701170.950
       214.000         151.000
 99  4 24  1 50  0.0000000  0  8G 3G29G21G17G23G26G 6G22
  22802411.844   -18818840.47949 -13907629.88446  22802411.499    22802416.594
       229.000         180.000
  23639349.378    -8838598.78049  -5385624.55545  23639349.029    23639356.573
       214.000         150.000
  22035969.286   -20661540.23549 -15732906.95147  22035968.397    22035973.547
       238.000         196.000
  20766021.093     -261666.19049   -191127.72948  20766020.713    20766025.811
       244.000         213.000
  20876814.850   -24009815.26049 -18329268.99248  20876814.412    20876818.913
       245.000         215.000
  23107921.955    -9302771.02349  -7232567.32445  23107922.858    23107927.807
       216.000         159.000
  23030229.682   -10109448.04549  -7859153.94046  23030229.484    23030237.636
       219.000         165.000
  24712699.864    -6946904.83549  -5374762.93245  24712700.613    24712708.019
       212.000         152.000
 99  4 24  1 50 30.0000000  0  8G 3G29G21G17G23G26G 6G22
  22787601.120   -18896671.48449 -13968277.38846  22787600.612    22787605.105
       229.000         180.000
  23619159.971    -8944694.01449  -5468295.91245  23619160.166    23619167.423
       215.000         152.000
  22027661.483   -20705197.63349 -15766925.67347  22027661.207    22027666.122
       238.000         196.000
  20767833.062     -252144.26649   -183708.04748  20767832.599    20767837.832
       244.000         214.000
  20880347.894   -23991248.64549 -18314801.50448  20880347.526    20880352.124
       245.000         214.000
  23124640.627    -9214913.99949  -7164107.34545  23124641.714    23124646.142
       216.000         158.000
  23050429.727   -10003295.94249  -7776438.10946  23050429.620    23050436.561
       218.000         163.000
  24724260.207    -6886154.67349  -5327425.23645  24724258.242    24724268.882
       209.000         149.000
 99  4 24  1 51  0.0000000  0  8G 3G29G21G17G23G26G 6G22
  22772857.172   -18974150.89749 -14028650.94246  22772856.699    22772860.711
       228.000         179.000
  23598981.870    -9050729.37449  -5550920.64045  23598981.555    23598988.827
       214.000         152.000
  22019391.722   -20748655.35349 -15800788.80847  22019391.223    22019396.178
       239.000         196.000
  20769688.308     -242394.93249   -176111.16548  20769688.014    20769692.826
       246.000         214.000
  20883919.571   -23972479.08949 -18300175.88148  20883919.284    20883923.977
       245.000         214.000
  23141419.780    -9126739.11049  -7095399.66845  23141420.588    23141425.397
       215.000         157.000
  23070660.653    -9896981.84149  -7693596.05446  23070661.623    23070666.851
       219.000         163.000
  24735838.712    -6825309.46149  -5280013.46945  24735837.066    24735847.934
       211.000         149.000
 99  4 24  1 51 30.0000000  0  8G 3G29G21G17G23G26G 6G22
  22758195.423   -19051198.25549 -14088687.80846  22758195.049    22758199.615
       227.000         178.000
  23578830.314    -9156625.49949  -5633436.92345  23578829.836    23578837.569
       215.000         154.000
  22011175.856   -20791829.88249 -15834431.27447  22011175.410    22011180.790
       238.000         196.000
  20771605.091     -232322.27949   -168262.34648  20771604.827    20771609.810
       246.000         214.000
  20887543.563   -23953434.87449 -18285336.23048  20887543.355    20887547.814
       245.000         215.000
  23158273.258    -9038174.12349  -7026388.02645  23158274.290    23158278.595
       217.000         156.000
  23090937.977    -9790424.61849  -7610564.55346  23090938.386    23090945.949
       217.000         164.000
  24747451.784    -6764282.34449  -5232459.97145  24747451.416    24747459.956
       213.000         151.000
 99  4 24  1 52  0.0000000  0  9G 9G 3G29G21G17G23G26G 6G22
  24489888.503    -8568738.51449  -6650546.77745  24489888.143    24489894.669
       205.000         145.000
  22743606.161   -19127864.68749 -14148427.85946  22743606.129    22743610.839
       228.000         178.000
  23558700.415    -9262406.93749  -5715863.80745  23558700.331    23558707.442
       217.000         155.000
  22003003.400   -20834776.06049 -15867895.79847  22003003.398    22003008.313
       238.000         196.000
  20773572.477     -221983.58949   -160206.22648  20773572.125    20773577.128
       246.000         214.000
  20891210.227   -23934166.41549 -18270321.84848  20891209.996    20891214.592
       246.000         215.000
  23175190.659    -8949273.12349  -6957114.55145  23175190.799    23175196.731
       218.000         158.000
  23111254.489    -9683660.55949  -7527371.88246  23111255.351    23111262.171
       218.000         163.000
  24759090.506    -6703120.56249  -5184801.51445  24759089.989    24759097.595
       211.000         150.000
 99  4 24  1 52 30.0000000  0  9G 9G 3G29G21G17G23G26G 6G22
  24479045.700    -8625718.31349  -6694946.47745  24479046.659    24479052.324
       202.000         142.000
  22729088.027   -19204157.33749 -14207876.64946  22729087.720    22729092.711
       227.000         178.000
  23538594.245    -9368065.16749  -5798194.69945  23538594.210    23538602.272
       216.000         158.000
  21994870.218   -20877515.88849 -15901199.52347  21994869.788    21994874.872
       237.000         196.000
  20775588.990     -211386.67249   -151948.89348  20775588.679    20775593.451
       246.000         213.000
  20894916.634   -23914689.36849 -18255144.92948  20894916.450    20894920.929
       245.000         215.000
  23192169.005    -8860051.54449  -6887591.26645  23192170.385    23192174.850
       219.000         159.000
  23131607.019    -9576708.00149  -7444032.31646  23131606.912    23131613.801
       219.000         163.000
  24770751.888    -6641839.41049  -5137050.03845  24770750.176    24770759.845
       210.000         149.000
 99  4 24  1 53  0.0000000  0  9G 9G 3G29G21G17G23G26G 6G22
  24468249.065    -8682454.60649  -6739156.43245  24468247.355    24468255.013
       199.000         139.000
  22714647.252   -19280043.04949 -14267008.35046  22714647.197    22714651.551
       226.000         177.000
  23518516.743    -9473572.04549  -5880407.62145  23518516.150    23518523.615
       217.000         158.000
  21986782.114   -20920018.66449 -15934318.54747  21986781.898    21986786.960
       237.000         195.000
  20777663.302     -200486.00549   -143454.86848  20777662.823    20777667.585
       246.000         213.000
  20898669.102   -23894970.07249 -18239779.24748  20898668.773    20898673.352
       245.000         215.000
  23209213.952    -8770480.00449  -6817795.29545  23209214.305    23209220.183
       219.000         159.000
  23151999.721    -9469543.72349  -7360527.78746  23151999.934    23152005.996
       218.000         164.000
  24782440.115    -6580416.95949  -5089188.50845  24782438.815    24782448.430
       210.000         149.000
 99  4 24  1 53 30.0000000  0  9G 9G 3G29G21G17G23G26G 6G22
  24457500.256    -8738938.09249  -6783169.42945  24457499.376    24457509.365
       199.000         138.000
  22700280.198   -19355542.27649 -14325838.88446  22700280.663    22700284.759
       227.000         177.000
  23498465.670    -9578940.35849  -5962512.60445  23498465.551    23498473.168
       213.000         157.000
  21978736.041   -20962300.71249 -15967265.56847  21978735.498    21978741.151
       237.000         195.000
  20779793.551     -189291.64449   -134731.99548  20779793.298    20779797.958
       246.000         213.000
  20902465.996   -23875017.10449 -18224231.48748  20902465.764    20902470.163
       246.000         215.000
  23226321.741    -8680578.24249  -6747742.01945  23226322.022    23226327.892
       220.000         160.000
  23172430.221    -9362181.40149  -7276868.93046  23172431.569    23172437.090
       220.000         166.000
  24794149.823    -6518882.52749  -5041239.67545  24794148.588    24794157.691
       210.000         150.000
 99  4 24  1 54  0.0000000  0  9G 9G 3G29G21G17G23G26G 6G22
  24446799.778    -8795167.80449  -6826984.66345  24446798.284    24446806.810
       199.000         138.000
  22685987.353   -19430651.64749 -14384365.63246  22685987.488    22685990.992
       227.000         177.000
  23478439.219    -9684179.66049  -6044517.04545  23478439.325    23478445.433
       214.000         158.000
  21970729.815   -21004373.44549 -16000049.48447  21970729.301    21970734.601
       236.000         195.000
  20781979.814     -177802.73549   -125779.60448  20781979.415    20781984.325
       246.000         213.000
  20906306.671   -23854834.54049 -18208504.81848  20906306.615    20906310.877
       246.000         215.000
  23243493.972    -8590338.24349  -6677425.18945  23243494.823    23243499.558
       219.000         161.000
  23192895.803    -9254635.14049  -7193066.74246  23192895.912    23192902.946
       219.000         167.000
  24805877.997    -6457250.52349  -4993214.85745  24805877.758    24805886.173
       212.000         151.000
 99  4 24  1 54 30.0000000  0  9G 9G 3G29G21G17G23G26G 6G22
  24436146.418    -8851150.33349  -6870607.30245  24436145.608    24436153.295
       203.000         139.000
  22671771.334   -19505356.21049 -14442576.95846  22671771.239    22671775.392
       228.000         177.000
  23458436.042    -9789296.22449  -6126425.84945  23458434.774    23458442.939
       210.000         157.000
  21962765.899   -21046223.59949 -16032659.97947  21962765.854    21962770.900
       236.000         195.000
  20784226.768     -165994.91749   -116578.71848  20784226.359    20784231.125
       246.000         213.000
  20910193.705   -23834408.34249 -18192588.30448  20910193.664    20910197.872
       246.000         215.000
  23260731.699    -8499753.64449  -6606839.84745  23260732.380    23260737.978
       219.000         161.000
  23213396.351    -9146904.37549  -7109120.80146  23213396.260    23213403.514
       218.000         166.000
  24817624.256    -6395523.71249  -4945116.13445  24817623.747    24817633.542
       208.000         150.000
 99  4 24  1 55  0.0000000  0  9G 9G 3G29G21G17G23G26G 6G22
  24425537.759    -8906899.00249  -6914047.68345  24425537.932    24425544.306
       206.000         141.000
  22657628.811   -19579675.21949 -14500487.85446  22657629.340    22657633.546
       228.000         178.000
  23438452.301    -9894310.37349  -6208254.82245  23438451.598    23438459.155
       213.000         158.000
  21954842.804   -21087859.51249 -16065103.52347  21954842.729    21954847.744
       237.000         196.000
  20786530.495     -153888.86749   -107145.44848  20786530.085    20786534.915
       246.000         213.000
  20914124.871   -23813750.04349 -18176490.93448  20914124.423    20914128.982
       245.000         215.000
  23278030.240    -8408849.44949  -6536005.47045  23278030.855    23278035.787
       217.000         160.000
  23233931.964    -9038989.57049  -7025031.44346  23233932.133    23233939.070
       219.000         166.000
  24829383.488    -6333728.13549  -4896963.83345  24829383.795    24829391.962
       207.000         147.000
 99  4 24  1 55 30.0000000  0  9G 9G 3G29G21G17G23G26G 6G22
  24414978.578    -8962387.23149  -6957285.12845  24414977.922    24414985.551
       208.000         142.000
  22643563.795   -19653587.63849 -14558081.91246  22643563.857    22643568.759
       228.000         179.000
  23418495.108    -9999185.47949  -6289975.47145  23418495.103    23418502.323
       214.000         159.000
  21946964.438   -21129260.82249 -16097364.26147  21946964.333    21946969.192
       238.000         196.000
  20788893.021     -141473.68649    -97471.29147  20788892.689    20788897.645
       245.000         212.000
  20918100.957   -23792855.45049 -18160209.44148  20918100.780    20918105.139
       245.000         215.000
  23295394.580    -8317599.01949  -6464901.29545  23295394.624    23295400.398
       215.000         160.000
  23254504.829    -8930878.78249  -6940789.34246  23254504.821    23254512.944
       218.000         166.000
  24841158.451    -6271851.16349  -4848748.07745  24841158.654    24841167.468
       207.000         145.000
 99  4 24  1 56  0.0000000  0  9G 9G 3G29G21G17G23G26G 6G22
  24404474.689    -9017585.86649  -7000296.92945  24404474.544    24404481.519
       209.000         144.000
  22629588.445   -19727029.71949 -14615309.48246  22629588.402    22629592.780
       230.000         180.000
  23398578.183   -10103849.22149  -6371531.40545  23398577.882    23398585.245
       215.000         161.000
  21939141.581   -21170370.27649 -16129397.57547  21939141.608    21939146.556
       238.000         197.000
  20791324.441     -128696.39149    -87514.97347  20791323.766    20791328.581
       245.000         211.000
  20922129.673   -23771684.46949 -18143712.58248  20922129.421    20922134.008
       245.000         215.000
  23312833.990    -8225953.79249  -6393489.49745  23312833.881    23312840.224
       214.000         160.000
  23275122.478    -8822532.21649  -6856363.54446  23275122.508    23275129.707
       219.000         165.000
  24852960.440    -6209833.41049  -4800422.69045  24852961.183    24852967.861
       210.000         146.000
 99  4 24  1 56 30.0000000  0  9G 9G 3G29G21G17G23G26G 6G22
  24394008.477    -9072585.25849  -7043153.49645  24394007.800    24394016.113
       208.000         144.000
  22615685.965   -19800088.64149 -14672238.48246  22615685.767    22615690.745
       229.000         180.000
  23378687.938   -10208372.79449  -6452978.11945  23378687.671    23378695.100
       216.000         161.000
  21931358.346   -21211271.87149 -16161268.93347  21931358.486    21931363.130
       239.000         197.000
  20793805.930     -115655.97449    -77353.62447  20793805.538    20793810.223
       245.000         211.000
  20926193.811   -23750327.21049 -18127070.57048  20926193.408    20926197.916
       245.000         215.000
  23330328.813    -8134018.15849  -6321851.39045  23330329.739    23330334.623
       217.000         160.000
  23295767.729    -8714041.13949  -6771825.15346  23295767.955    23295774.142
       221.000         164.000
  24864772.545    -6147762.18849  -4752055.59945  24864772.616    24864780.831
       211.000         147.000
 99  4 24  1 57  0.0000000  0  9G 9G 3G29G21G17G23G26G 6G22
  24383588.572    -9127341.32749  -7085820.46845  24383588.843    24383596.883
       210.000         144.000
  22601862.494   -19872731.11749 -14728842.98846  22601861.947    22601866.857
       228.000         180.000
  23358833.782   -10312706.87349  -6534277.19745  23358834.096    23358839.829
       218.000         162.000
  21923621.225   -21251931.42349 -16192951.67947  21923621.443    21923626.062
       239.000         198.000
  20796340.551     -102336.42149    -66974.76347  20796340.373    20796345.149
       244.000         210.000
  20930295.024   -23728774.93949 -18110276.59848  20930294.778    20930299.209
       245.000         215.000
  23347885.450    -8041757.90349  -6249960.35045  23347886.455    23347892.113
       216.000         160.000
  23316444.519    -8605385.23349  -6687158.32546  23316445.511    23316450.866
       221.000         164.000
  24876602.547    -6085596.57749  -4703614.94245  24876601.947    24876609.672
       209.000         147.000
 99  4 24  1 57 30.0000000  0  9G 9G 3G29G21G17G23G26G 6G22
  24373207.232    -9181895.26149  -7128329.96445  24373207.510    24373214.735
       211.000         145.000
  22588113.847   -19944980.06749 -14785140.83946  22588112.745    22588118.474
       228.000         181.000
  23339009.636   -10416882.18949  -6615452.56545  23339008.940    23339016.174
       215.000         161.000
  21915923.094   -21292385.55749 -16224474.36147  21915923.102    21915927.860
       240.000         198.000
  20798920.913      -88776.59649    -56408.68347  20798920.447    20798925.352
       244.000         210.000
  20934425.040   -23707071.37449 -18093364.73648  20934424.629    20934429.488
       244.000         214.000
  23365497.289    -7949206.56249  -6177842.46945  23365498.332    23365502.231
       217.000         160.000
  23337144.641    -8496606.54449  -6602395.81946  23337144.621    23337151.403
       221.000         164.000
  24888447.586    -6023350.84849  -4655111.87145  24888446.447    24888454.112
       205.000         145.000
 99  4 24  1 58  0.0000000  0  8G 9G 3G29G21G17G23G26G 6
  24362868.943    -9236223.31049  -7170663.41545  24362868.777    24362875.944
       214.000         146.000
  22574445.899   -20016804.51349 -14841107.91846  22574446.046    22574450.675
       228.000         181.000
  23319220.513   -10520873.09449  -6696484.22345  23319219.850    23319227.304
       218.000         159.000
  21908266.312   -21332622.12949 -16255827.51947  21908266.223    21908270.896
       240.000         199.000
  20801552.666      -74946.78849    -45632.22047  20801552.445    20801557.225
       244.000         209.000
  20938591.029   -23685178.76549 -18076305.56748  20938590.905    20938595.411
       245.000         214.000
  23383168.976    -7856341.22149  -6105479.91645  23383169.838    23383175.340
       216.000         160.000
  23357875.459    -8387665.72449  -6517506.98445  23357875.090    23357881.374
       219.000         162.000
 99  4 24  1 58 30.0000000  0  8G 9G 3G29G21G17G23G26G 6
  24352566.474    -9290363.72849  -7212850.67245  24352566.829    24352573.365
       216.000         145.000
  22560848.931   -20088256.62449 -14896784.85546  22560848.540    22560853.656
       229.000         182.000
  23299454.388   -10624743.72149  -6777422.19045  23299454.233    23299460.523
       219.000         159.000
  21900640.006   -21372698.82449 -16287056.09147  21900639.952    21900644.936
       240.000         199.000
  20804226.008      -60898.28649    -34685.34247  20804225.784    20804230.354
       244.000         209.000
  20942785.682   -23663135.84049 -18059129.26148  20942785.601    20942790.038
       245.000         214.000
  23400892.007    -7763206.31049  -6032907.29145  23400893.838    23400898.264
       217.000         160.000
  23378628.805    -8278606.06549  -6432525.52745  23378628.582    23378636.262
       219.000         162.000
 99  4 24  1 59  0.0000000  0  8G 9G 3G29G21G17G23G26G 6
  24342309.454    -9344264.58549  -7254851.25645  24342309.310    24342316.769
       218.000         144.000
  22547333.744   -20159278.94149 -14952126.90046  22547333.536    22547339.397
       229.000         183.000
  23279719.529   -10728451.15849  -6858232.98645  23279719.136    23279725.689
       218.000         160.000
  21893054.205   -21412562.80249 -16318118.91247  21893053.734    21893059.114
       239.000         200.000
  20806952.779      -46568.78549    -23519.51047  20806952.397    20806957.178
       243.000         208.000
  20947020.943   -23640879.58549 -18041786.72748  20947020.649    20947025.166
       245.000         214.000
  23418678.776    -7669737.40549  -5960074.40845  23418680.045    23418685.102
       217.000         159.000
  23399417.438    -8169360.89649  -6347399.50945  23399417.181    23399424.589
       218.000         160.000
 99  4 24  1 59 30.0000000  0  8G 9G 3G29G21G17G23G26G 6
  24332088.669    -9397974.93749  -7296703.37645  24332089.385    24332094.417
       218.000         143.000
  22533890.608   -20229923.24349 -15007174.38946  22533890.602    22533896.256
       230.000         183.000
  23260004.863   -10832051.99049  -6938960.71945  23260005.084    23260011.618
       219.000         159.000
  21885497.935   -21452270.96049 -16349060.32047  21885497.345    21885502.550
       239.000         200.000
  20809727.569      -31987.33149    -12157.34547  20809727.455    20809732.303
       243.000         208.000
  20951291.565   -23618436.98549 -18024298.98648  20951291.463    20951295.629
       245.000         214.000
  23436519.976    -7575981.57549  -5887017.93145  23436521.414    23436526.194
       216.000         159.000
  23420234.130    -8059968.55549  -6262158.81745  23420234.589    23420241.738
       220.000         160.000
 99  4 24  2  0  0.0000000  0  8G 9G 3G29G21G17G23G26G 6
  24321919.293    -9451415.23949  -7338345.08645  24321919.406    24321925.186
       218.000         142.000
  22520530.075   -20300133.95249 -15061884.01646  22520530.111    22520535.456
       231.000         184.000
  23240322.392   -10935483.32049  -7019556.37345  23240322.480    23240328.296
       220.000         161.000
  21877983.763   -21491757.55249 -16379829.07647  21877983.287    21877988.565
       239.000         199.000
  20812565.486      -17074.21949      -536.74847  20812565.171    20812570.027
       243.000         208.000
  20955611.841   -23595733.81849 -18006608.20548  20955611.622    20955616.096
       245.000         214.000
  23454426.580    -7481881.75949  -5813693.41745  23454427.778    23454432.865
       216.000         159.000
  23441091.420    -7950363.55849  -6176752.43245  23441092.200    23441098.841
       220.000         159.000
 99  4 24  2  0 30.0000000  0  8G 9G 3G29G21G17G23G26G 6
  24311805.903    -9504561.49949  -7379757.69545  24311806.597    24311812.086
       219.000         143.000
  22507251.883   -20369911.57449 -15116256.17046  22507251.554    22507257.298
       230.000         184.000
  23220671.303   -11038749.49549  -7100023.34845  23220670.634    23220677.270
       216.000         159.000
  21870514.898   -21531006.47249 -16410412.63447  21870514.318    21870519.726
       238.000         199.000
  20815465.208       -1836.12449     11337.08247  20815464.704    20815469.579
       243.000         207.000
  20959981.712   -23572769.95849 -17988714.28948  20959981.457    20959985.964
       244.000         214.000
  23472397.386    -7387445.19649  -5740106.50945  23472398.537    23472402.732
       215.000         159.000
  23461987.547    -7840554.24349  -6091186.82345  23461987.344    23461994.424
       218.000         157.000
 99  4 24  2  1  0.0000000  0  8G 9G 3G29G21G17G23G26G 6
  24301749.278    -9557409.33049  -7420937.76245  24301748.739    24301756.150
       217.000         144.000
  22494053.924   -20439267.06649 -15170299.38946  22494053.671    22494059.602
       230.000         184.000
  23201052.187   -11141846.62549  -7180358.61645  23201051.286    23201058.008
       215.000         158.000
  21863090.109   -21570023.25149 -16440815.30147  21863089.568    21863094.942
       238.000         199.000
  20818425.445       13720.15549     23458.85247  20818424.914    20818429.978
       243.000         207.000
  20964397.121   -23549566.65049 -17970633.78748  20964396.860    20964401.495
       245.000         214.000
  23490427.663    -7292695.56549  -5666275.65845  23490427.755    23490433.412
       213.000         158.000
  23482919.400    -7730556.53849  -6005474.43745  23482919.423    23482925.824
       217.000         158.000
 99  4 24  2  1 30.0000000  0  8G 9G 3G29G21G17G23G26G 6
  24291749.497    -9609957.45349  -7461884.27045  24291749.312    24291756.252
       218.000         144.000
  22480931.201   -20508227.61149 -15224034.85646  22480930.855    22480936.345
       230.000         185.000
  23181463.290   -11244786.03649  -7260570.96845  23181463.537    23181470.065
       218.000         161.000
  21855706.337   -21608824.65749 -16471050.14447  21855705.770    21855711.317
       237.000         199.000
  20821440.754       29565.64049     35805.98047  20821440.467    20821445.155
       243.000         207.000
  20968851.280   -23526160.00249 -17952394.84448  20968851.056    20968855.819
       245.000         214.000
  23508509.650    -7197672.99649  -5592232.09645  23508509.078    23508516.100
       211.000         157.000
  23503878.592    -7620415.73449  -5919650.54345  23503879.473    23503886.402
       217.000         158.000
 99  4 24  2  2  0.0000000  0  8G 9G 3G29G21G17G23G26G 6
  24281821.127    -9662131.45849  -7502539.29245  24281821.475    24281828.374
       219.000         146.000
  22467901.779   -20576697.09549 -15277387.68246  22467901.755    22467907.155
       232.000         185.000
  23161917.358   -11347500.32949  -7340607.90746  23161917.398    23161924.120
       220.000         163.000
  21848380.136   -21647323.57749 -16501049.29247  21848379.951    21848385.250
       237.000         198.000
  20824521.088       45752.94149     48419.45447  20824520.684    20824525.579
       243.000         207.000
  20973356.781   -23502483.41749 -17933945.56548  20973356.637    20973361.279
       244.000         215.000
  23526655.691    -7102314.58249  -5517926.87545  23526656.295    23526661.677
       211.000         156.000
  23524874.575    -7510081.36849  -5833675.82245  23524874.208    23524881.129
       215.000         156.000
 99  4 24  2  2 30.0000000  0  8G 9G 3G29G21G17G23G26G 6
  24271942.245    -9714044.75449  -7542991.12545  24271942.834    24271949.153
       216.000         146.000
  22454951.517   -20644750.64249 -15330416.40046  22454951.171    22454956.219
       231.000         185.000
  23142398.746   -11450071.45149  -7420533.30546  23142398.901    23142404.977
       222.000         164.000
  21841093.343   -21685615.78049 -16530887.35047  21841092.986    21841098.438
       238.000         199.000
  20827646.258       62175.51149     61216.25747  20827645.961    20827650.851
       243.000         207.000
  20977894.871   -23478635.40649 -17915362.70348  20977894.626    20977899.137
       246.000         214.000
  23544848.396    -7006712.17449  -5443431.52445  23544849.380    23544854.112
       212.000         155.000
  23545885.100    -7399670.88349  -5747641.76145  23545884.713    23545892.833
       211.000         155.000
 99  4 24  2  3  0.0000000  0  8G 9G 3G29G21G17G23G26G 6
  24262114.680    -9765687.94549  -7583232.46245  24262114.168    24262122.174
       214.000         145.000
  22442087.455   -20712351.47749 -15383092.34946  22442087.466    22442092.298
       232.000         185.000
  23122912.681   -11552471.32349  -7500325.26546  23122912.331    23122919.006
       220.000         166.000
  21833849.823   -21723680.40349 -16560548.07947  21833849.550    21833855.076
       238.000         199.000
  20830825.565       78883.01649     74235.08547  20830825.200    20830830.277
       244.000         208.000
  20982469.242   -23454597.01649 -17896631.49248  20982468.859    20982473.835
       245.000         214.000
  23563093.604    -6910833.88349  -5368721.20345  23563093.700    23563099.456
       210.000         155.000
  23566914.239    -7289162.01849  -5661531.08145  23566914.435    23566922.928
       211.000         152.000
 99  4 24  2  3 30.0000000  0  8G 9G 3G29G21G17G23G26G 6
  24252333.077    -9817090.00049  -7623285.90745  24252333.679    24252338.646
       215.000         144.000
  22429308.102   -20779507.60849 -15435421.78546  22429307.793    22429312.871
       232.000         186.000
  23103455.047   -11654720.52249  -7579999.81046  23103454.511    23103460.815
       216.000         164.000
  21826646.346   -21761534.75549 -16590044.95847  21826646.107    21826651.181
       239.000         199.000
  20834055.870       95858.39349     87462.64747  20834055.523    20834060.716
       243.000         208.000
  20987077.395   -23430380.88049 -17877761.77948  20987077.029    20987081.694
       244.000         214.000
  23581389.914    -6814685.31349  -5293800.28745  23581390.273    23581396.910
       209.000         155.000
  23587957.428    -7178579.96549  -5575363.35445  23587957.647    23587966.226
       211.000         152.000
 99  4 24  2  4  0.0000000  0  8G 9G 3G29G21G17G23G26G 6
  24242596.801    -9868254.40249  -7663154.16945  24242596.030    24242602.563
       213.000         144.000
  22416617.113   -20846198.83549 -15487388.95846  22416617.039    22416622.047
       232.000         186.000
  23084031.505   -11756790.47049  -7659534.69646  23084030.748    23084037.662
       217.000         165.000
  21819484.095   -21799173.25149 -16619373.63947  21819484.185    21819489.127
       240.000         200.000
  20837343.711      113136.22049    100925.88047  20837343.617    20837348.617
       243.000         208.000
  20991724.246   -23405961.28949 -17858733.53348  20991724.172    20991728.743
       244.000         213.000
  23599743.143    -6718237.57449  -5218646.26245  23599743.268    23599750.244
       211.000         155.000
  23609021.488    -7067888.69249  -5489110.54045  23609021.994    23609028.253
       214.000         154.000
 99  4 24  2  4 30.0000000  0  8G 9G 3G29G21G17G23G26G 6
  24232906.401    -9919176.84449  -7702833.89845  24232906.528    24232912.538
       207.000         144.000
  22404008.282   -20912458.91149 -15539020.17046  22404008.128    22404013.125
       231.000         185.000
  23064643.920   -11858671.62549  -7738922.45946  23064643.290    23064649.962
       217.000         164.000
  21812358.004   -21836621.65249 -16648554.19147  21812358.239    21812363.205
       239.000         200.000
  20840691.433      130728.54749    114634.18447  20840691.280    20840696.042
       243.000         208.000
  20996406.290   -23381357.25949 -17839561.55948  20996406.031    20996410.638
       244.000         213.000
  23618151.941    -6621498.43949  -5143265.15645  23618152.863    23618158.465
       213.000         156.000
  23630110.648    -6957065.00149  -5402754.50045  23630111.075    23630118.330
       214.000         155.000
 99  4 24  2  5  0.0000000  0  8G 9G 3G29G21G17G23G26G 6
  24223283.344    -9969744.43749  -7742237.10145  24223282.830    24223291.154
       208.000         144.000
  22391494.918   -20978217.12349 -15590260.31946  22391494.581    22391500.152
       233.000         186.000
  23045308.015   -11960281.96949  -7818099.21146  23045307.606    23045314.152
       216.000         163.000
  21805283.818   -21873796.96149 -16677521.94447  21805283.646    21805288.491
       239.000         200.000
  20844117.540      148732.53949    128663.26147  20844117.158    20844121.996
       243.000         208.000
  21001136.780   -23356498.43849 -17820191.05848  21001136.786    21001141.092
       245.000         213.000
  23636632.009    -6524385.97549  -5067593.16545  23636631.950    23636638.811
       215.000         158.000
  23651244.564    -6846004.64149  -5316214.06145  23651244.254    23651252.509
       214.000         155.000
 99  4 24  2  5 30.0000000  0  8G 9G 3G29G21G17G23G26G 6
  24213704.900   -10020079.42549  -7781459.06645  24213705.061    24213711.924
       209.000         146.000
  22379050.349   -21043613.94949 -15641218.86446  22379050.196    22379055.224
       233.000         186.000
  23026001.151   -12061739.28849  -7897156.70446  23026001.391    23026007.685
       217.000         163.000
  21798235.989   -21910833.37949 -16706381.46947  21798235.795    21798240.299
       239.000         200.000
  20847592.468      166993.55449    142892.61947  20847591.962    20847597.240
       243.000         209.000
  21005891.074   -23331514.87749 -17800723.34748  21005890.984    21005895.294
       245.000         213.000
  23655155.719    -6427043.53349  -4991741.96945  23655155.826    23655162.128
       214.000         158.000
  23672399.650    -6734833.66249  -5229587.41345  23672399.859    23672408.178
       214.000         155.000
 99  4 24  2  6  0.0000000  0  8G 9G 3G29G21G17G23G26G 6
  24204187.765   -10070092.46249  -7820430.16845  24204188.989    24204193.865
       210.000         148.000
  22366689.373   -21108571.52249 -15691835.13746  22366688.943    22366694.719
       232.000         186.000
  23006736.127   -12162977.56549  -7976043.53446  23006735.948    23006742.156
       218.000         164.000
  21791225.896   -21947671.54449 -16735086.51647  21791226.048    21791230.918
       240.000         200.000
  20851128.581      185576.04149    157372.47147  20851128.284    20851133.250
       243.000         209.000
  21010681.969   -23306338.58849 -17781105.46348  21010681.818    21010686.198
       246.000         214.000
  23673732.517    -6329421.85949  -4915673.19545  23673732.766    23673738.506
       215.000         157.000
  23693589.607    -6623479.88449  -5142818.34445  23693589.879    23693597.555
       212.000         154.000
 99  4 24  2  6 30.0000000  0  8G 9G 3G29G21G17G23G26G 6
  24194736.990   -10119757.62749  -7859130.18445  24194736.622    24194743.347
       204.000         147.000
  22354415.007   -21173073.29849 -15742096.24846  22354414.571    22354419.474
       232.000         186.000
  22987511.922   -12264000.72549  -8054762.74046  22987511.697    22987518.021
       220.000         165.000
  21784254.446   -21984307.09649 -16763633.67647  21784254.345    21784258.941
       240.000         200.000
  20854723.656      204468.09149    172093.54747  20854723.276    20854728.196
       243.000         209.000
  21015508.596   -23280974.55649 -17761341.28548  21015508.446    21015512.845
       246.000         214.000
  23692361.226    -6231527.71649  -4839392.10645  23692361.629    23692367.228
       214.000         154.000
  23714809.193    -6511970.68549  -5055928.15445  23714810.149    23714817.592
       213.000         153.000
 99  4 24  2  7  0.0000000  0  8G 9G 3G29G21G17G23G26G 6
  24185342.859   -10169122.46149  -7897596.17345  24185343.165    24185349.238
       201.000         143.000
  22342222.353   -21237145.98449 -15792023.00146  22342222.042    22342226.674
       233.000         186.000
  22968319.115   -12364859.73249  -8133354.06946  22968319.793    22968325.361
       220.000         167.000
  21777314.759   -22020775.18949 -16792050.35447  21777314.119    21777319.530
       240.000         200.000
  20858368.283      223620.80149    187017.73047  20858368.242    20858372.894
       243.000         209.000
  21020363.246   -23255463.21749 -17741462.32448  21020362.986    21020367.372
       246.000         214.000
  23711032.199    -6133410.89349  -4762937.49945  23711031.654    23711038.419
       213.000         150.000
  23736044.367    -6400380.05549  -4968974.51845  23736044.808    23736052.763
       215.000         154.000
 99  4 24  2  7 30.0000000  0  8G 9G 3G29G21G17G23G26G 6
  24176006.366   -10218185.31448  -7935826.87745  24176006.099    24176013.215
       192.000         139.000
  22330116.933   -21300760.51549 -15841592.76246  22330117.351    22330122.006
       234.000         186.000
  22949159.722   -12465542.74449  -8211808.22946  22949159.757    22949165.869
       222.000         168.000
  21770409.598   -22057061.75849 -16820325.58447  21770409.389    21770414.360
       239.000         200.000
  20862064.042      243041.85349    202151.01447  20862063.754    20862068.619
       243.000         209.000
  21025251.857   -23229773.25749 -17721444.18048  21025251.761    21025256.115
       246.000         214.000
  23729748.206    -6035057.72749  -4686298.70745  23729748.987    23729755.922
       209.000         145.000
  23757297.342    -6288696.26149  -4881948.27845  23757297.095    23757305.498
       215.000         154.000
 99  4 24  2  8  0.0000000  0  8G 9G 3G29G21G17G23G26G 6
  24166726.043   -10266952.10348  -7973826.85445  24166724.705    24166734.018
       189.000         134.000
  22318099.698   -21363911.50649 -15890801.31646  22318099.631    22318104.208
       233.000         186.000
  22930033.212   -12566052.75049  -8290127.59146  22930033.148    22930039.284
       222.000         170.000
  21763539.982   -22093161.47649 -16848455.22147  21763540.095    21763544.884
       240.000         200.000
  20865812.857      262742.25849    217501.97447  20865812.269    20865817.508
       242.000         209.000
  21030172.301   -23203916.30649 -17701295.90548  21030172.135    21030176.593
       246.000         213.000
  23748509.154    -5936467.96949  -4609475.54345  23748509.009    23748514.743
       206.000         140.000
  23778565.407    -6176932.28749  -4794859.55245  23778565.751    23778573.030
       212.000         154.000
 99  4 24  2  8 30.0000000  0  8G 9G 3G29G21G17G23G26G 6
  24157502.581   -10315417.90048  -8011592.30344  24157498.382    24157509.808
       181.000         129.000
  22306170.898   -21426597.48449 -15939647.51646  22306170.529    22306176.151
       233.000         187.000
  22910944.849   -12666362.11049  -8368290.59746  22910944.253    22910950.798
       223.000         171.000
  21756710.038   -22129053.03649 -16876422.65047  21756709.833    21756714.648
       239.000         200.000
  20869618.925      282743.24649    233087.15747  20869618.464    20869623.757
       243.000         209.000
  21035124.745   -23177891.19449 -17681016.59548  21035124.616    21035128.948
       245.000         213.000
  23767319.878    -5837616.25749  -4532448.26845  23767319.037    23767325.304
       204.000         135.000
  23799850.231    -6065079.52149  -4707701.66245  23799850.566    23799857.815
       214.000         152.000
 99  4 24  2  9  0.0000000  0  8G 9G 3G29G21G17G23G26G 6
  24148331.532   -10363608.63448  -8049143.39745  24148332.197    24148339.622
       194.000         133.000
  22294326.695   -21488838.66449 -15988147.12146  22294326.239    22294331.738
       232.000         187.000
  22891892.262   -12766483.63249  -8446307.25846  22891891.903    22891898.462
       222.000         171.000
  21749917.509   -22164748.13049 -16904236.99347  21749917.346    21749922.211
       239.000         201.000
  20873477.773      303021.54849    248888.42247  20873477.512    20873482.356
       243.000         209.000
  21040106.657   -23151711.14749 -17660616.56948  21040106.417    21040111.029
       245.000         213.000
  23786177.442    -5738520.04649  -4455230.49045  23786178.381    23786183.041
       203.000         132.000
  23821151.468    -5953140.19449  -4620476.32145  23821152.349    23821157.968
       210.000         150.000
 99  4 24  2  9 30.0000000  0  8G 9G 3G29G21G17G23G26G 6
  24139217.846   -10411503.57949  -8086464.03745  24139218.387    24139225.796
       198.000         139.000
  22282568.423   -21550628.62649 -16036295.12546  22282568.469    22282573.647
       231.000         187.000
  22872879.142   -12866396.96949  -8524161.67646  22872880.175    22872884.663
       221.000         170.000
  21743164.277   -22200236.46949 -16931890.22947  21743163.861    21743169.092
       239.000         201.000
  20877391.561      323588.42049    264914.55247  20877390.913    20877395.663
       243.000         209.000
  21045120.792   -23125361.52249 -17640084.39948  21045120.596    21045124.957
       245.000         213.000
  23805083.263    -5639170.15549  -4377814.99245  23805084.553    23805088.427
       202.000         132.000
  23842470.110    -5841109.99249  -4533180.18445  23842470.411    23842477.335
       211.000         148.000
 99  4 24  2 10  0.0000000  0  8G 9G 3G29G21G17G23G26G 6
  24130167.194   -10459065.08249  -8123524.81045  24130167.772    24130174.692
       203.000         144.000
  22270898.759   -21611953.11549 -16084080.42046  22270898.927    22270903.937
       232.000         187.000
  22853911.666   -12966071.44749  -8601830.00946  22853911.586    22853917.308
       221.000         170.000
  21736454.912   -22235494.26449 -16959363.81347  21736454.536    21736459.571
       240.000         201.000
  20881365.600      344472.40349    281187.78247  20881365.262    20881370.133
       243.000         209.000
  21050170.029   -23098827.71149 -17619408.71147  21050169.701    21050174.146
       245.000         212.000
  23824038.356    -5539560.17049  -4300196.86345  23824037.732    23824046.394
       200.000         132.000
  23863807.477    -5728982.70049  -4445808.38145  23863807.990    23863814.836
       210.000         146.000
 99  4 24  2 10 30.0000000  0  8G 9G 3G29G21G17G23G26G 6
  24121177.449   -10506307.74149  -8160337.17645  24121177.117    24121185.379
       204.000         147.000
  22259313.373   -21672834.83549 -16131520.70646  22259313.148    22259318.404
       231.000         187.000
  22834983.075   -13065541.19049  -8679338.77946  22834982.960    22834989.388
       221.000         170.000
  21729782.119   -22270559.86949 -16986687.64547  21729782.025    21729786.975
       240.000         201.000
  20885395.147      365647.85349    297688.12647  20885394.772    20885399.526
       243.000         209.000
  21055251.307   -23072125.29149 -17598601.64347  21055251.183    21055255.717
       245.000         212.000
  23843035.517    -5439728.14249  -4222405.69445  23843035.160    23843043.600
       199.000         135.000
  23885159.812    -5616776.58549  -4358375.14945  23885159.958    23885168.504
       212.000         146.000
 99  4 24  2 11  0.0000000  0  8G 9G 3G29G21G17G23G26G 6
  24112250.515   -10553219.43149  -8196891.62745  24112251.666    24112257.697
       209.000         150.000
  22247815.206   -21733258.35149 -16178603.94146  22247815.178    22247819.864
       232.000         187.000
  22816093.449   -13164806.78449  -8756688.46546  22816092.888    22816099.433
       221.000         170.000
  21723148.851   -22305417.91549 -17013849.73847  21723148.607    21723153.943
       240.000         201.000
  20889485.988      387145.18749    314439.29047  20889485.830    20889490.666
       244.000         209.000
  21060369.522   -23045229.04049 -17577643.53447  21060369.390    21060373.893
       244.000         212.000
  23862075.657    -5339671.57749  -4144439.58245  23862075.309    23862081.536
       198.000         134.000
  23906529.510    -5504477.31849  -4270869.32145  23906528.864    23906537.345
       209.000         144.000
 99  4 24  2 11 30.0000000  0  8G 9G 3G29G21G17G23G26G 6
  24103398.451   -10599738.86949  -8233140.46645  24103398.794    24103405.549
       210.000         153.000
  22236416.497   -21793158.72549 -16225279.53846  22236416.109    22236421.627
       231.000         187.000
  22797253.739   -13263809.07249  -8833833.00046  22797253.210    22797260.095
       221.000         170.000
  21716564.925   -22340016.61949 -17040809.74147  21716564.715    21716569.657
       240.000         201.000
  20893653.112      409043.39049    331502.81547  20893652.735    20893657.547
       243.000         209.000
  21065534.318   -23018088.06249 -17556494.73547  21065534.094    21065538.554
       244.000         212.000
  23881168.636    -5239337.84749  -4066257.49345  23881168.791    23881175.758
       203.000         137.000
  23927928.705    -5392022.72449  -4183242.44745  23927927.780    23927938.163
       208.000         142.000
 99  4 24  2 12  0.0000000  0  9G 9G 3G29G 8G21G17G23G26G 6
  24094612.081   -10645911.72949  -8269119.24145  24094611.757    24094618.940
       213.000         155.000
  22225112.413   -21852561.38049 -16271567.30546  22225112.285    22225116.646
       230.000         186.000
  22778458.169   -13362579.21749  -8910796.64546  22778457.812    22778463.466
       222.000         169.000
  24607797.197    -7728785.55249  -5722998.29345  24607797.656    24607805.248
       208.000         144.000
  21710023.867   -22374389.89649 -17067594.08947  21710023.723    21710028.544
       240.000         201.000
  20897888.831      431302.15849    348847.30247  20897888.473    20897893.475
       244.000         209.000
  21070738.480   -22990739.95849 -17535184.53847  21070738.132    21070742.740
       245.000         212.000
  23900309.008    -5138755.42749  -3987881.62345  23900309.340    23900314.962
       207.000         143.000
  23949352.029    -5279441.93149  -4095517.24645  23949351.759    23949359.692
       209.000         141.000
 99  4 24  2 12 30.0000000  0  9G 9G 3G29G 8G21G17G23G26G 6
  24085890.613   -10691743.00949  -8304831.85845  24085890.345    24085897.333
       214.000         157.000
  22213906.250   -21911449.65249 -16317454.24246  22213905.803    22213911.084
       231.000         186.000
  22759708.607   -13461108.77049  -8987572.81746  22759708.702    22759713.628
       223.000         170.000
  24592878.178    -7807185.14949  -5784088.73445  24592877.945    24592884.917
       208.000         144.000
  21703524.818   -22408542.20449 -17094206.25847  21703524.493    21703529.618
       239.000         201.000
  20902193.151      453921.37949    366472.66647  20902192.533    20902197.827
       243.000         210.000
  21075981.535   -22963187.56349 -17513715.14848  21075981.262    21075985.966
       245.000         213.000
  23919500.319    -5037904.39849  -3909296.41645  23919501.244    23919507.888
       211.000         148.000
  23970797.573    -5166745.11749  -4007701.63245  23970798.521    23970806.092
       209.000         142.000
 99  4 24  2 13  0.0000000  0  9G 9G 3G29G 8G21G17G23G26G 6
  24077230.805   -10737250.12449  -8340291.86645  24077230.960    24077237.895
       218.000         159.000
  22202796.409   -21969831.85549 -16362946.85246  22202796.424    22202801.373
       232.000         187.000
  22741005.936   -13559392.23949  -9064157.23446  22741005.909    22741011.264
       223.000         171.000
  24577954.339    -7885609.61649  -5845198.53945  24577953.107    24577961.931
       205.000         144.000
  21697065.991   -22442483.26249 -17120653.82147  21697065.944    21697070.982
       240.000         202.000
  20906562.764      476883.99549    384365.60947  20906562.458    20906567.340
       243.000         209.000
  21081261.627   -22935440.49749 -17492094.07148  21081261.476    21081265.827
       245.000         213.000
  23938741.191    -4936793.54649  -3830508.74345  23938742.134    23938747.778
       217.000         152.000
  23992259.998    -5053959.76449  -3919817.06845  23992261.233    23992268.226
       210.000         144.000
 99  4 24  2 13 30.0000000  0  9G 9G 3G29G 8G21G17G23G26G 6
  24068627.899   -10782459.21149  -8375519.65745  24068628.595    24068634.711
       220.000         162.000
  22191776.661   -22027740.98449 -16408070.81646  22191776.743    22191781.133
       233.000         187.000
  22722345.827   -13657452.18349  -9140567.47346  22722346.317    22722351.579
       224.000         172.000
  24563021.916    -7964078.52849  -5906342.99345  24563020.835    24563030.431
       204.000         143.000
  21690639.366   -22476255.51349 -17146969.83847  21690639.053    21690644.455
       240.000         202.000
  20910984.488      500120.65049    402472.08747  20910984.337    20910989.112
       243.000         209.000
  21086571.077   -22907539.05449 -17470352.69747  21086570.921    21086575.316
       245.000         212.000
  23958024.278    -4835461.78949  -3751548.94945  23958024.934    23958030.324
       218.000         156.000
  24013732.223    -4941124.01149  -3831893.23845  24013733.628    24013741.022
       214.000         147.000
 99  4 24  2 14  0.0000000  0  9G 9G 3G29G 8G21G17G23G26G 6
  24060084.810   -10827353.78749  -8410502.36345  24060084.450    24060091.377
       220.000         162.000
  22180848.919   -22085166.88049 -16452818.26147  22180849.427    22180853.994
       234.000         188.000
  22703728.995   -13755283.90649  -9216799.86246  22703728.126    22703734.694
       223.000         173.000
  24548086.598    -8042562.80749  -5967499.41445  24548086.134    24548094.252
       204.000         143.000
  21684249.142   -22509836.10349 -17173136.50647  21684248.977    21684254.028
       240.000         202.000
  20915459.923      523638.86049    420797.96847  20915459.669    20915464.507
       242.000         209.000
  21091914.377   -22879460.06749 -17448472.97047  21091914.332    21091918.701
       245.000         212.000
  23977350.374    -4733903.27849  -3672412.45845  23977351.115    23977357.004
       218.000         158.000
  24035214.297    -4828236.57649  -3743929.11845  24035215.347    24035222.180
       216.000         149.000
 99  4 24  2 14 30.0000000  0  9G 9G 3G29G 8G21G17G23G26G 6
  24051603.370   -10871923.66949  -8445232.04746  24051603.172    24051609.672
       221.000         163.000
  22170012.569   -22142113.02649 -16497191.85947  22170012.560    22170017.218
       233.000         189.000
  22685153.530   -13852897.81149  -9292862.54746  22685152.326    22685158.690
       223.000         173.000
  24533149.490    -8121057.14649  -6028663.68645  24533148.645    24533158.054
       204.000         142.000
  21677893.922   -22543232.89549 -17199159.96047  21677893.886    21677898.717
       240.000         202.000
  20919990.982      547449.99349    439352.09647  20919990.492    20919995.368
       243.000         208.000
  21097290.063   -22851210.67849 -17426460.46847  21097289.850    21097294.467
       245.000         212.000
  23996715.926    -4632137.36149  -3593114.36045  23996716.869    23996721.759
       217.000         157.000
  24056705.813    -4715299.09749  -3655926.00645  24056705.279    24056713.438
       214.000         148.000
 99  4 24  2 15  0.0000000  0  9G 9G 3G29G 8G21G17G23G26G 6
  24043184.365   -10916165.83049  -8479706.39145  24043184.340    24043190.659
       221.000         162.000
  22159264.442   -22198595.22349 -16541203.93647  22159264.400    22159269.349
       234.000         190.000
  22666616.808   -13950307.23249  -9368765.89246  22666616.398    22666622.754
       224.000         174.000
  24518210.521    -8199562.14149  -6089836.26645  24518210.616    24518218.265
       204.000         143.000
  21671574.032   -22576444.33649 -17225038.98547  21671573.662    21671579.178
       240.000         202.000
  20924576.902      571549.17449    458130.67147  20924576.567    20924581.379
       243.000         208.000
  21102697.193   -22822795.85449 -17404319.05247  21102697.027    21102701.149
       245.000         212.000
  24016118.916    -4530174.47949  -3513662.79645  24016119.257    24016124.476
       215.000         155.000
  24078208.431    -4602302.56049  -3567876.85145  24078208.943    24078216.896
       214.000         148.000
 99  4 24  2 15 30.0000000  0  9G 9G 3G29G 8G21G17G23G26G 6
  24034842.795   -10960000.24049  -8513863.00345  24034842.615    24034849.032
       220.000         161.000
  22148616.407   -22254550.67549 -16584805.57147  22148616.222    22148620.886
       234.000         190.000
  22648130.599   -14047452.40349  -9444463.31946  22648130.775    22648136.096
       225.000         174.000
  24503280.004    -8278022.12149  -6150973.78545  24503279.423    24503287.181
       206.000         142.000
  21665302.969   -22609399.11749 -17250718.01847  21665302.933    21665308.058
       241.000         202.000
  20929230.981      596006.31949    477188.18347  20929230.545    20929235.564
       243.000         208.000
  21108143.520   -22794175.42649 -17382017.42547  21108143.446    21108147.823
       245.000         212.000
  24035571.763    -4427948.90749  -3434006.53645  24035571.530    24035577.930
       211.000         153.000
  24099734.051    -4489185.30549  -3479733.64045  24099734.791    24099743.689
       215.000         148.000
 99  4 24  2 16  0.0000000  0  9G 9G 3G29G 8G21G17G23G26G 6
  24026567.182   -11003488.33349  -8547749.76145  24026566.604    24026573.611
       219.000         160.000
  22138057.747   -22310037.05049 -16628041.68947  22138057.801    22138062.395
       234.000         190.000
  22629683.216   -14144394.53149  -9520002.53746  22629683.526    22629688.353
       226.000         175.000
  24488344.374    -8356508.84349  -6212132.13745  24488343.433    24488351.539
       205.000         142.000
  21659067.377   -22642167.47149 -17276251.77847  21659067.580    21659072.203
       241.000         203.000
  20933945.359      620780.43649    496492.68347  20933944.991    20933949.839
       243.000         208.000
  21113614.546   -22765425.09249 -17359614.57247  21113614.329    21113618.766
       245.000         212.000
  24055063.204    -4325519.92449  -3354191.78945  24055063.166    24055068.924
       207.000         149.000
  24121267.064    -4376029.44049  -3391560.34345  24121268.613    24121276.671
       213.000         147.000
 99  4 24  2 16 30.0000000  0  9G 9G 3G29G 8G21G17G23G26G 6
  24018361.258   -11046610.02649  -8581351.02045  24018361.105    24018367.489
       219.000         160.000
  22127590.284   -22365043.81749 -16670904.09047  22127590.398    22127594.981
       234.000         191.000
  22611280.161   -14241103.63649  -9595360.18546  22611280.286    22611285.396
       226.000         176.000
  24473406.793    -8435006.12549  -6273298.70845  24473405.584    24473413.539
       205.000         141.000
  21652866.236   -22674754.74249 -17301644.43547  21652865.863    21652871.085
       240.000         203.000
  20938721.696      645880.34449    516051.05047  20938721.225    20938726.378
       243.000         208.000
  21119111.989   -22736536.01049 -17337103.60247  21119111.713    21119116.168
       244.000         212.000
  24074599.637    -4222855.17649  -3274193.30745  24074599.502    24074605.563
       205.000         146.000
  24142810.933    -4262816.51049  -3303342.59545  24142812.239    24142819.941
       213.000         146.000
 99  4 24  2 17  0.0000000  0  9G 9G 3G29G 8G21G17G23G26G 6
  24010218.668   -11089399.49849  -8614693.40545  24010219.071    24010225.116
       221.000         160.000
  22117207.842   -22419604.20949 -16713418.66347  22117207.956    22117212.644
       235.000         191.000
  22592917.243   -14337601.33149  -9670553.08746  22592917.069    22592922.382
       226.000         176.000
  24458462.410    -8513538.37649  -6334492.50245  24458461.919    24458468.707
       204.000         141.000
  21646694.772   -22707186.12949 -17326915.62347  21646694.545    21646699.619
       240.000         203.000
  20943552.943      671268.57349    535834.07847  20943552.500    20943557.441
       242.000         208.000
  21124629.833   -22707539.47749 -17314508.90347  21124629.363    21124634.008
       245.000         212.000
  24094174.607    -4119987.15849  -3194036.44545  24094175.889    24094181.278
       203.000         142.000
  24164362.178    -4149565.82849  -3215095.41945  24164361.710    24164369.298
       210.000         145.000
 99  4 24  2 17 30.0000000  0  9G 9G 3G29G 8G21G17G23G26G 6
  24002139.006   -11131858.45149  -8647778.23745  24002138.705    24002144.717
       222.000         159.000
  22106911.903   -22473710.14349 -16755579.11747  22106911.733    22106916.858
       234.000         191.000
  22574596.542   -14433876.66549  -9745572.75346  22574596.062    22574602.218
       226.000         176.000
  24443512.134    -8592102.18249  -6395710.87145  24443511.299    24443519.864
       204.000         141.000
  21640552.780   -22739462.47249 -17352066.00147  21640552.427    21640557.467
       240.000         202.000
  20948441.191      696956.52149    555850.65247  20948440.766    20948445.896
       242.000         208.000
  21130169.538   -22678428.03349 -17291824.66747  21130169.228    21130173.906
       244.000         211.000
  24113785.396    -4016931.32249  -3113733.22845  24113785.134    24113791.781
       202.000         137.000
  24185922.038    -4036268.64049  -3126812.02945  24185921.705    24185929.555
       210.000         143.000
 99  4 24  2 18  0.0000000  0  9G 9G 3G29G 8G21G17G23G26G 6
  23994130.006   -11173945.60749  -8680573.33645  23994128.940    23994135.782
       220.000         156.000
  22096714.027   -22527300.25749 -16797337.64747  22096713.723    22096718.726
       234.000         191.000
  22556328.428   -14529875.25349  -9820376.75746  22556328.209    22556333.736
       225.000         176.000
  24428567.036    -8670638.52449  -6456907.86045  24428566.196    24428574.964
       208.000         143.000
  21634449.635   -22771534.72849 -17377057.35147  21634449.552    21634454.171
       241.000         202.000
  20953397.889      723004.15249    576147.49447  20953397.385    20953402.613
       242.000         208.000
  21135747.222   -22649116.92049 -17268984.84247  21135746.897    21135751.431
       244.000         211.000
  24133441.021    -3913639.66649  -3033246.23945  24133440.337    24133447.320
       199.000         132.000
  24207503.261    -3922858.89349  -3038440.93345  24207503.164    24207509.368
       210.000         142.000
 99  4 24  2 18 30.0000000  0  9G 9G 3G29G 8G21G17G23G26G 6
  23986189.961   -11215670.47749  -8713086.14645  23986188.637    23986195.966
       220.000         154.000
  22086614.478   -22580373.72349 -16838693.58747  22086614.045    22086619.325
       234.000         191.000
  22538112.797   -14625598.66249  -9894966.33746  22538112.519    22538119.187
       225.000         176.000
  24413627.165    -8749147.29749  -6518083.38945  24413625.918    24413634.907
       209.000         144.000
  21628386.348   -22803397.63549 -17401885.57147  21628386.250    21628391.187
       241.000         202.000
  20958421.645      749404.04749    596718.83147  20958421.277    20958426.215
       242.000         207.000
  21141362.333   -22619609.12449 -17245991.75547  21141362.160    21141366.460
       244.000         211.000
  24153136.749    -3810138.59549  -2952596.03844  24153137.151    24153140.541
       201.000         129.000
  24229108.250    -3809324.63049  -2949972.76645  24229107.708    24229116.124
       207.000         141.000
 99  4 24  2 19  0.0000000  0  9G 9G 3G29G 8G21G17G23G26G 6
  23978313.656   -11257060.41149  -8745337.97345  23978313.959    23978319.881
       220.000         154.000
  22076612.917   -22632931.80749 -16879647.92847  22076612.189    22076618.057
       234.000         191.000
  22519945.713   -14721067.12149  -9969357.25746  22519946.535    22519950.935
       228.000         176.000
  24398683.616    -8827675.08749  -6579273.75545  24398683.063    24398690.439
       212.000         145.000
  21622359.517   -22835068.82749 -17426564.40247  21622359.132    21622364.226
       240.000         202.000
  20963508.337      776134.97749    617548.12147  20963507.856    20963513.155
       242.000         207.000
  21147008.448   -22589938.77049 -17222871.99647  21147008.241    21147012.623
       244.000         211.000
  24172862.032    -3706482.87549  -2871825.32744  24172862.296    24172867.620
       200.000         125.000
  24250728.806    -3695706.63549  -2861439.40645  24250726.701    24250736.087
       206.000         140.000
 99  4 24  2 19 30.0000000  0  9G 9G 3G29G 8G21G17G23G26G 6
  23970511.431   -11298061.43749  -8777286.77645  23970511.051    23970517.491
       218.000         154.000
  22066718.566   -22684926.45849 -16920163.23447  22066718.169    22066723.285
       234.000         191.000
  22501835.323   -14816238.12749 -10043516.40046  22501834.544    22501840.170
       228.000         176.000
  24383742.372    -8906192.00249  -6640455.66145  24383742.636    24383749.570
       211.000         146.000
  21616376.085   -22866511.40049 -17451065.09247  21616375.904    21616380.807
       240.000         202.000
  20968664.919      803233.24949    638663.64547  20968664.466    20968669.229
       242.000         207.000
  21152693.025   -22560066.21749 -17199594.68147  21152692.696    21152697.024
       244.000         211.000
  24192624.670    -3602630.01849  -2790900.98544  24192627.522    24192628.332
       196.000         122.000
  24272368.517    -3581988.10249  -2772827.69245  24272369.198    24272376.999
       209.000         141.000
 99  4 24  2 20  0.0000000  0  9G 9G 3G29G 8G21G17G23G26G 6
  23962776.017   -11338710.39149  -8808961.22645  23962775.865    23962782.537
       218.000         155.000
  22056922.218   -22736406.03449 -16960277.19047  22056922.001    22056927.273
       233.000         191.000
  22483771.446   -14911163.92349 -10117484.45946  22483771.449    22483777.165
       225.000         176.000
  24368793.112    -8984750.71449  -6701670.11145  24368792.316    24368798.981
       213.000         145.000
  21610427.749   -22897770.21349 -17475422.58947  21610427.482    21610431.838
       240.000         202.000
  20973880.038      830638.73149    660018.56247  20973879.745    20973884.465
       242.000         208.000
  21158404.319   -22530053.24349 -17176207.94647  21158404.132    21158408.317
       244.000         210.000
  24212417.051    -3498619.74948  -2709854.04444  24212412.356    24212421.365
       191.000         119.000
  24294015.264    -3468234.89149  -2684188.94145  24294015.923    24294023.696
       210.000         142.000
 99  4 24  2 20 30.0000000  0  9G 9G 3G29G 8G21G17G23G26G 6
  23955120.766   -11378939.33949  -8840308.40745  23955121.145    23955127.609
       218.000         155.000
  22047229.838   -22787339.56849 -16999965.65447  22047229.411    22047235.006
       232.000         191.000
  22465765.010   -15005787.64549 -10191217.14546  22465765.134    22465770.472
       226.000         177.000
  24353846.375    -9063296.04549  -6762874.13745  24353845.294    24353853.361
       210.000         143.000
  21604522.610   -22928801.93149 -17499603.13047  21604522.380    21604526.912
       240.000         203.000
  20979159.474      858382.31249    681636.92747  20979159.030    20979164.279
       243.000         208.000
  21164146.668   -22499877.31449 -17152694.23347  21164146.386    21164150.913
       245.000         211.000
  24232248.676    -3394402.77549  -2628646.06544  24232248.483    24232255.647
       195.000         120.000
  24315673.832    -3354419.04649  -2595501.36245  24315673.859    24315681.974
       206.000         141.000
 99  4 24  2 21  0.0000000  0  9G 9G 3G29G 8G21G17G23G26G 6
  23947536.225   -11418796.54949  -8871365.92345  23947536.396    23947541.750
       219.000         154.000
  22037626.318   -22837806.23249 -17039290.32647  22037626.159    22037631.814
       232.000         191.000
  22447803.520   -15100175.48949 -10264766.05546  22447802.889    22447809.332
       225.000         177.000
  24338893.336    -9141873.48649  -6824103.19045  24338891.556    24338900.076
       208.000         141.000
  21598649.265   -22959666.34849 -17523653.30047  21598649.296    21598653.855
       241.000         203.000
  20984489.990      886394.02949    703464.22747  20984489.550    20984494.651
       243.000         208.000
  21169908.337   -22469599.34249 -17129101.00747  21169908.188    21169912.651
       244.000         211.000
  24252110.729    -3290025.49549  -2547313.12244  24252110.094    24252117.392
       203.000         126.000
  24337330.314    -3240613.85649  -2506822.11345  24337329.967    24337338.312
       207.000         141.000
 99  4 24  2 21 30.0000000  0  9G 9G 3G29G 8G21G17G23G26G 6
  23940028.499   -11458250.06149  -8902108.87345  23940029.083    23940034.562
       217.000         152.000
  22028111.024   -22887809.14849 -17078253.63347  22028110.686    22028116.367
       233.000         191.000
  22429890.645   -15194307.90349 -10338115.91046  22429891.010    22429895.432
       226.000         178.000
  24323946.168    -9220419.54549  -6885307.80145  24323945.823    24323953.214
       210.000         141.000
  21592814.711   -22990327.47349 -17547545.06647  21592814.526    21592819.212
       241.000         203.000
  20989875.936      914697.21349    725518.64147  20989875.681    20989880.599
       242.000         208.000
  21175694.836   -22439191.14249 -17105406.30347  21175694.452    21175699.146
       244.000         211.000
  24272010.178    -3185453.62149  -2465828.53445  24272011.366    24272015.928
       211.000         132.000
  24358991.581    -3126783.32749  -2418123.08245  24358992.880    24358998.636
       209.000         140.000
 99  4 24  2 22  0.0000000  0  9G 9G 3G29G 8G21G17G23G26G 6
  23932599.648   -11497289.19849  -8932528.90445  23932599.806    23932603.815
       215.000         149.000
  22018688.529   -22937324.52249 -17116837.04347  22018688.149    22018693.696
       233.000         192.000
  22412030.991   -15288160.84749 -10411247.99146  22412030.934    22412036.594
       227.000         179.000
  24309013.079    -9298893.40249  -6946456.12245  24309012.771    24309020.263
       211.000         142.000
  21587020.168   -23020777.98249 -17571272.71847  21587019.777    21587024.613
       241.000         204.000
  20995322.426      943318.73149    747821.10847  20995322.161    20995326.795
       242.000         208.000
  21181508.882   -22408637.76149 -17081598.46947  21181508.567    21181513.182
       244.000         211.000
  24291949.896    -3080670.29149  -2384179.12745  24291950.982    24291955.891
       213.000         138.000
  24380660.959    -3012910.07849  -2329390.77945  24380658.671    24380670.189
       206.000         140.000
 99  4 24  2 22 30.0000000  0  9G 9G 3G29G 8G21G17G23G26G 6
  23925239.282   -11535967.56249  -8962667.83445  23925239.721    23925241.637
       213.000         144.000
  22009352.087   -22986387.37249 -17155067.84047  22009351.983    22009357.662
       234.000         192.000
  22394217.170   -15381773.04649 -10484192.48946  22394216.457    22394222.009
       226.000         179.000
  24294086.544    -9377333.62949  -7007578.24445  24294086.044    24294092.681
       212.000         143.000
  21581254.669   -23051075.72749 -17594881.33647  21581254.498    21581259.366
       241.000         204.000
  21000824.208      972230.69449    770349.90047  21000823.772    21000828.603
       242.000         208.000
  21187344.104   -22377973.32349 -17057704.09947  21187343.637    21187348.222
       244.000         210.000
  24311919.590    -2975729.96749  -2302407.42445  24311920.338    24311926.059
       212.000         145.000
  24402330.293    -2899036.79649  -2240658.46145  24402329.379    24402338.795
       206.000         141.000
 99  4 24  2 23  0.0000000  0  9G 9G 3G29G 8G21G17G23G26G 6
  23917945.391   -11574296.24849  -8992534.29045  23917945.381    23917950.121
       211.000         141.000
  22000106.716   -23034972.14749 -17192926.10847  22000106.323    22000112.001
       233.000         193.000
  22376449.281   -15475143.25749 -10556948.40746  22376449.047    22376454.362
       226.000         179.000
  24279166.565    -9455738.72349  -7068672.98345  24279166.123    24279174.144
       211.000         145.000
  21575520.698   -23081208.02549 -17618361.03447  21575520.428    21575525.307
       242.000         204.000
  21006387.412     1001465.46949    793130.23247  21006387.051    21006391.845
       242.000         207.000
  21193203.504   -22347181.79049 -17033710.69747  21193203.321    21193207.848
       243.000         210.000
  24331917.593    -2870640.27649  -2220519.37945  24331917.394    24331924.184
       210.000         146.000
  24424001.464    -2785153.49949  -2151918.37845  24424001.316    24424010.176
       206.000         141.000
 99  4 24  2 23 30.0000000  0  9G 9G 3G29G 8G21G17G23G26G 6
  23910727.597   -11612225.59449  -9022089.55545  23910727.638    23910734.698
       211.000         140.000
  21990968.023   -23082996.49049 -17230347.67247  21990968.319    21990973.706
       234.000         193.000
  22358740.323   -15568204.05949 -10629463.23546  22358740.036    22358745.221
       226.000         179.000
  24264263.151    -9534055.26349  -7129698.74945  24264262.601    24264270.119
       210.000         145.000
  21569827.410   -23111126.52149 -17641674.12747  21569827.069    21569831.863
       241.000         204.000
  21012027.122     1031102.39949    816223.93447  21012026.717    21012031.588
       241.000         207.000
  21199099.835   -22316196.34949 -17009566.19847  21199099.339    21199104.131
       243.000         210.000
  24351953.329    -2765352.53849  -2138476.99845  24351953.813    24351960.284
       204.000         145.000
  24445684.706    -2671207.43549  -2063129.38245  24445685.994    24445693.894
       208.000         143.000
 99  4 24  2 24  0.0000000  0  9G 9G 3G29G 8G21G17G23G26G 6
  23903577.568   -11649798.64949  -9051367.18145  23903577.917    23903583.626
       209.000         140.000
  21981931.255   -23130485.24249 -17267351.90447  21981931.286    21981936.727
       234.000         193.000
  22341083.413   -15660991.27449 -10701764.89346  22341083.430    22341089.169
       226.000         180.000
  24249364.213    -9612348.49749  -7190706.36145  24249363.845    24249371.604
       212.000         145.000
  21564166.151   -23140876.27249 -17664855.73647  21564165.879    21564170.521
       241.000         203.000
  21017737.874     1061112.48049    839608.40547  21017737.433    21017742.304
       241.000         206.000
  21205024.801   -22285060.29549 -16985304.34147  21205024.377    21205029.127
       243.000         210.000
  24372018.013    -2659911.30749  -2056315.03345  24372018.173    24372024.764
       195.000         140.000
  24467371.872    -2557241.99749  -1974325.27245  24467372.650    24467380.166
       208.000         144.000
 99  4 24  2 24 30.0000000  0  9G 9G 3G29G 8G21G17G23G26G 6
  23896504.611   -11686965.83349  -9080328.55945  23896505.004    23896510.260
       209.000         141.000
  21973004.042   -23177397.98449 -17303907.29347  21973003.916    21973009.586
       234.000         193.000
  22323487.265   -15753459.74149 -10773818.17446  22323487.501    22323492.839
       226.000         181.000
  24234475.867    -9690587.40249  -7251671.65345  24234475.672    24234483.416
       209.000         146.000
  21558550.011   -23170389.17949 -17687852.79847  21558549.717    21558554.601
       240.000         203.000
  21023527.712     1091538.10849    863316.67747  21023527.355    21023532.373
       240.000         207.000
  21210987.078   -22253728.43549 -16960889.91047  21210986.919    21210991.664
       243.000         210.000
  24392118.752    -2554278.70948  -1974003.91945  24392118.328    24392124.510
       192.000         134.000
  24489072.455    -2443206.02049  -1885466.22645  24489072.678    24489082.138
       207.000         144.000
 99  4 24  2 25  0.0000000  0  9G 9G 3G29G 8G21G17G23G26G 6
  23889514.273   -11723699.72549  -9108952.32045  23889512.764    23889520.330
       208.000         141.000
  21964189.999   -23223715.94149 -17339999.21247  21964190.168    21964195.144
       234.000         193.000
  22305954.656   -15845594.10949 -10845611.11346  22305953.929    22305960.701
       226.000         181.000
  24219601.796    -9768750.80249  -7312578.08345  24219600.719    24219607.701
       212.000         145.000
  21552983.111   -23199643.18949 -17710648.12047  21552982.781    21552987.486
       242.000         203.000
  21029395.297     1122372.69249    887343.60947  21029394.743    21029399.863
       242.000         207.000
  21216988.267   -22222192.09749 -16936316.14147  21216987.835    21216992.604
       244.000         210.000
  24412258.824    -2448440.98649  -1891532.97344  24412259.225    24412264.954
       196.000         131.000
  24510788.528    -2329087.38949  -1796542.77745  24510788.534    24510797.761
       207.000         145.000
 99  4 24  2 25 30.0000000  0  8G 9G 3G29G 8G21G17G23G26
  23882598.107   -11760042.85749  -9137271.59345  23882597.632    23882604.166
       204.000         140.000
  21955478.322   -23269496.61649 -17375672.46547  21955478.528    21955483.510
       235.000         194.000
  22288475.597   -15937446.70149 -10917184.48446  22288475.250    22288480.674
       225.000         181.000
  24204731.408    -9846894.86449  -7373469.44745  24204730.264    24204737.684
       210.000         145.000
  21547452.686   -23228705.76049 -17733294.26247  21547452.719    21547457.371
       241.000         204.000
  21035324.566     1153531.31249    911623.04947  21035324.188    21035329.214
       241.000         207.000
  21223015.734   -22190517.67249 -16911634.77347  21223015.372    21223019.987
       244.000         210.000
  24432429.353    -2342444.51649  -1808938.30544  24432431.000    24432437.114
       201.000         131.000
 99  4 24  2 26  0.0000000  0  8G 9G 3G29G 8G21G17G23G26
  23875764.582   -11795953.16749  -9165253.59945  23875764.642    23875770.894
       207.000         142.000
  21946871.430   -23314726.25149 -17410916.33747  21946871.727    21946876.399
       236.000         194.000
  22271054.914   -16028991.99549 -10988518.40346  22271054.700    22271060.061
       225.000         180.000
  24189870.295    -9924990.04849  -7434322.73045  24189869.252    24189876.679
       210.000         145.000
  21541961.795   -23257560.68449 -17755778.61047  21541961.840    21541966.411
       241.000         204.000
  21041315.530     1185014.08649    936155.06447  21041315.301    21041319.914
       241.000         207.000
  21229071.730   -22158693.44149 -16886836.67647  21229071.510    21229075.943
       244.000         211.000
  24452635.579    -2236261.04249  -1726197.93244  24452636.442    24452641.302
       204.000         131.000
 99  4 24  2 26 30.0000000  0  8G 9G 3G29G 8G21G17G23G26
  23868997.382   -11831515.77449  -9192964.66745  23868998.146    23869003.827
       207.000         142.000
  21938354.089   -23359485.74149 -17445793.85847  21938354.054    21938358.934
       236.000         194.000
  22253675.819   -16120319.18149 -11059682.36546  22253675.551    22253680.398
       225.000         180.000
  24175005.672   -10003103.85249  -7495190.50145  24175004.643    24175013.001
       209.000         147.000
  21536490.941   -23286310.15949 -17778180.78247  21536490.568    21536495.720
       240.000         204.000
  21047350.015     1216725.41149    960865.18147  21047349.373    21047354.846
       242.000         207.000
  21235141.808   -22126795.02349 -16861980.76547  21235141.527    21235145.841
       244.000         211.000
  24472860.229    -2129980.92549  -1643382.27845  24472861.251    24472866.260
       204.000         134.000
 99  4 24  2 27  0.0000000  0  9G 9G 3G29G 8G31G21G17G23G26
  23862308.419   -11866667.08549  -9220355.24545  23862308.038    23862314.305
       206.000         142.000
  21929937.519   -23403715.68049 -17480258.74347  21929938.070    21929942.484
       236.000         194.000
  22236349.761   -16211368.03749 -11130629.45746  22236350.095    22236354.860
       227.000         180.000
  24160153.318   -10081153.35649  -7556008.18445  24160152.744    24160160.406
       208.000         149.000
  24528904.327    -8684332.59559  -6733599.30345  24528903.793    24528910.682
       205.000         145.000
  21531048.827   -23314908.40349 -17800465.11747  21531048.525    21531053.557
       241.000         204.000
  21053439.501     1248726.00249    985800.68847  21053439.087    21053444.138
       242.000         207.000
  21241238.625   -22094755.85649 -16837015.18347  21241238.347    21241242.864
       243.000         210.000
  24493115.774    -2023538.13649  -1560439.87445  24493116.488    24493121.350
       202.000         135.000
 99  4 24  2 27 30.0000000  0  9G 9G 3G29G 8G31G21G17G23G26
  23855690.293   -11901445.05249  -9247454.89045  23855690.299    23855695.464
       207.000         141.000
  21921611.803   -23447468.00249 -17514351.45447  21921611.964    21921616.368
       236.000         195.000
  22219070.078   -16302173.75849 -11201387.08246  22219069.488    22219075.344
       228.000         181.000
  24145305.549   -10159178.28449  -7616806.71245  24145304.084    24145312.399
       210.000         150.000
  24511945.622    -8773450.96249  -6803042.14045  24511944.624    24511952.144
       205.000         145.000
  21525629.250   -23343388.52049 -17822657.40147  21525629.057    21525633.677
       241.000         204.000
  21059580.196     1280995.32349   1010945.60747  21059579.946    21059584.631
       241.000         207.000
  21247355.384   -22062611.94949 -16811967.99447  21247355.072    21247359.806
       243.000         210.000
  24513393.926    -1916974.36549  -1477403.23545  24513393.911    24513400.277
       199.000         134.000
 99  4 24  2 28  0.0000000  0  9G 9G 3G29G 8G31G21G17G23G26
  23849159.040   -11935767.19849  -9274199.36545  23849158.631    23849164.886
       206.000         140.000
  21913392.404   -23490661.54749 -17548008.74847  21913392.014    21913396.898
       236.000         195.000
  22201851.452   -16392657.95849 -11271894.18446  22201851.478    22201857.006
       228.000         182.000
  24130480.235   -10237085.23649  -7677513.30445  24130479.167    24130487.542
       209.000         149.000
  24495055.523    -8862207.35649  -6872202.94245  24495055.816    24495062.461
       204.000         144.000
  21520249.824   -23371657.44449 -17844685.12047  21520249.851    21520254.235
       242.000         205.000
  21065793.014     1313644.01849   1036386.13447  21065792.785    21065797.699
       241.000         206.000
  21253510.009   -22030269.20349 -16786765.86547  21253509.781    21253514.442
       243.000         210.000
  24533706.278    -1810231.30749  -1394226.90045  24533706.828    24533713.466
       202.000         136.000
 99  4 24  2 28 30.0000000  0 10G 9G 3G29G 8G31G21G17G23G26G 1
  23842705.439   -11969680.67749  -9300625.37545  23842705.119    23842711.726
       205.000         140.000
  21905272.647   -23533330.75849 -17581257.46947  21905272.735    21905277.211
       236.000         195.000
  22184685.162   -16482867.13749 -11342186.98746  22184685.452    22184690.130
       228.000         183.000
  24115669.157   -10314917.07849  -7738161.41145  24115668.130    24115675.396
       208.000         147.000
  24478231.088    -8950619.75049  -6941095.67845  24478230.773    24478238.034
       204.000         143.000
  21514907.296   -23399732.71849 -17866561.94247  21514906.950    21514911.759
       241.000         205.000
  21072074.670     1346654.37949   1062108.48447  21072074.307    21072079.363
       241.000         205.000
  21259696.737   -21997757.75349 -16761432.27547  21259696.478    21259701.223
       243.000         209.000
  24554045.853    -1703346.97249  -1310940.47045  24554047.447    24554053.108
       203.000         138.000
  24612472.754    -4270794.66449  -3292586.23245  24612471.870    24612482.205
       212.000         149.000
 99  4 24  2 29  0.0000000  0 10G 9G 3G29G 8G31G21G17G23G26G 1
  23836332.062   -12003172.42549  -9326722.77045  23836331.771    23836337.594
       206.000         141.000
  21897251.000   -23575484.50249 -17614104.52447  21897251.158    21897255.448
       237.000         195.000
  22167574.326   -16572784.65149 -11412252.50446  22167574.527    22167579.237
       229.000         183.000
  24100870.635   -10392682.66349  -7798757.87245  24100870.285    24100877.261
       210.000         148.000
  24461472.861    -9038685.26649  -7009718.10945  24461473.604    24461479.382
       206.000         144.000
  21509604.178   -23427600.39449 -17888276.99947  21509603.981    21509608.827
       242.000         205.000
  21078426.684     1380034.65849   1088119.08547  21078425.919    21078431.183
       240.000         205.000
  21265912.721   -21965092.55949 -16735978.88647  21265912.555    21265917.021
       243.000         209.000
  24574412.824    -1596318.85749  -1227541.97845  24574414.057    24574418.583
       200.000         139.000
  24591604.782    -4380455.95349  -3378036.21645  24591604.636    24591613.599
       213.000         148.000
 99  4 24  2 29 30.0000000  0 10G 9G 3G29G 8G31G21G17G23G26G 1
  23830036.225   -12036256.97349  -9352502.86345  23830035.260    23830042.257
       205.000         142.000
  21889325.114   -23617135.29449 -17646559.67047  21889324.826    21889329.807
       236.000         195.000
  22150517.266   -16662419.82849 -11482098.02246  22150517.266    22150521.716
       229.000         184.000
  24086077.997   -10470418.45749  -7859331.11745  24086077.595    24086083.806
       213.000         150.000
  24444779.293    -9126411.84449  -7078076.44645  24444779.781    24444785.727
       211.000         146.000
  21504334.873   -23455290.40049 -17909853.61447  21504334.649    21504339.494
       242.000         205.000
  21084844.846     1413762.74949   1114400.70347  21084844.656    21084849.395
       240.000         205.000
  21272152.112   -21932304.34549 -16710429.64547  21272151.836    21272156.335
       243.000         209.000
  24594801.625    -1489173.24048  -1144051.90545  24594803.002    24594807.442
       193.000         136.000
  24570746.012    -4490069.02349  -3463448.67645  24570745.947    24570755.335
       214.000         148.000
 99  4 24  2 30  0.0000000  0 10G 9G 3G29G 8G31G21G17G23G26G 1
  23823822.731   -12068907.69049  -9377944.89545  23823822.931    23823829.319
       205.000         143.000
  21881504.752   -23658231.57049 -17678582.72047  21881505.159    21881509.587
       237.000         195.000
  22133521.523   -16751733.02949 -11551692.65046  22133521.222    22133526.560
       230.000         185.000
  24071300.355   -10548075.74149  -7919843.18845  24071300.106    24071308.230
       213.000         152.000
  24428154.449    -9213777.06849  -7146153.22545  24428155.480    24428159.790
       214.000         148.000
  21499103.461   -23482781.80949 -17931275.47547  21499103.390    21499107.992
       243.000         205.000
  21091334.568     1447866.22649   1140974.83147  21091334.203    21091339.012
       240.000         205.000
  21278420.654   -21899363.08849 -16684761.14147  21278420.406    21278424.896
       244.000         209.000
  24615220.950    -1381867.80248  -1060437.31244  24615221.837    24615226.636
       187.000         129.000
  24549899.738    -4599615.80649  -3548809.48845  24549898.739    24549909.174
       210.000         146.000
 99  4 24  2 30 30.0000000  0  9G 9G 3G29G 8G31G21G17G23G 1
  23817676.449   -12101206.86649  -9403113.01945  23817676.855    23817682.497
       207.000         144.000
  21873776.084   -23698845.94249 -17710230.26647  21873776.000    21873781.023
       236.000         195.000
  22116576.932   -16840777.28049 -11621077.71246  22116576.473    22116581.634
       230.000         186.000
  24056523.759   -10625727.14449  -7980350.68445  24056523.365    24056530.561
       212.000         153.000
  24411581.439    -9300869.88749  -7214017.71645  24411580.854    24411586.982
       213.000         149.000
  21493894.710   -23510154.28249 -17952604.66147  21493894.616    21493899.276
       241.000         205.000
  21097878.871     1482256.71149   1167772.60747  21097878.822    21097883.433
       241.000         205.000
  21284701.777   -21866355.48549 -16659040.94247  21284701.628    21284706.149
       244.000         209.000
  24529050.010    -4709179.98049  -3634183.82545  24529047.184    24529057.886
       208.000         142.000
 99  4 24  2 31  0.0000000  0  9G 9G 3G29G 8G31G21G17G23G 1
  23811613.807   -12133066.45049  -9427938.62545  23811613.703    23811620.154
       205.000         143.000
  21866154.761   -23738896.10649 -17741438.16647  21866154.796    21866160.004
       236.000         195.000
  22099702.375   -16929453.64149 -11690176.11446  22099702.324    22099707.614
       231.000         186.000
  24041766.709   -10703275.36949  -8040777.78345  24041765.392    24041773.528
       211.000         152.000
  24395072.943    -9387622.46849  -7281617.08645  24395072.813    24395078.329
       215.000         150.000
  21488720.317   -23537346.00149 -17973793.00047  21488720.199    21488725.053
       244.000         206.000
  21104489.929     1516997.54949   1194843.38347  21104489.786    21104494.703
       241.000         206.000
  21291009.407   -21833208.93049 -16633212.46747  21291009.081    21291013.606
       244.000         209.000
  24508214.937    -4818668.25349  -3719499.05045  24508214.126    24508223.237
       207.000         139.000
 99  4 24  2 31 30.0000000  0  9G 9G 3G29G 8G31G21G17G23G 1
  23805631.558   -12164502.18049  -9452433.93445  23805631.764    23805637.540
       204.000         144.000
  21858641.196   -23778380.17549 -17772204.95147  21858641.128    21858645.985
       236.000         195.000
  22082893.526   -17017784.17849 -11759005.04346  22082893.471    22082898.654
       230.000         185.000
  24027030.265   -10780715.43949  -8101120.60845  24027029.334    24027036.352
       208.000         151.000
  24378626.979    -9474047.46649  -7348961.21845  24378626.228    24378631.416
       214.000         150.000
  21483576.977   -23564374.52749 -17994854.17447  21483576.839    21483581.717
       242.000         206.000
  21111165.540     1552077.87949   1222178.69547  21111165.594    21111170.447
       241.000         206.000
  21297342.566   -21799928.04649 -16607279.31947  21297342.317    21297346.870
       244.000         209.000
  24487392.292    -4928091.20949  -3804763.34845  24487391.022    24487400.448
       212.000         143.000
 99  4 24  2 32  0.0000000  0  9G 9G 3G29G 8G31G21G17G23G 1
  23799728.099   -12195525.21049  -9476607.68845  23799727.981    23799733.990
       203.000         144.000
  21851232.359   -23817313.74749 -17802542.78247  21851231.937    21851237.095
       236.000         195.000
  22066147.694   -17105783.81249 -11827576.12246  22066147.994    22066152.105
       231.000         186.000
  24012313.736   -10858050.71349  -8161381.73745  24012312.462    24012320.023
       210.000         150.000
  24362238.768    -9560167.15749  -7416067.44845  24362237.774    24362244.315
       212.000         149.000
  21478466.300   -23591231.02949 -18015781.31247  21478465.947    21478471.006
       243.000         206.000
  21117905.836     1587498.10349   1249778.86247  21117905.498    21117910.430
       240.000         206.000
  21303698.811   -21766525.67149 -16581251.49847  21303698.367    21303703.066
       244.000         209.000
  24466581.432    -5037452.33549  -3889979.50045  24466581.138    24466589.556
       216.000         148.000
 99  4 24  2 32 30.0000000  0  9G 9G 3G29G 8G31G21G17G23G 1
  23793907.299   -12226112.47849  -9500441.86145  23793905.712    23793912.716
       204.000         144.000
  21843926.909   -23855703.83149 -17832457.11447  21843926.714    21843931.774
       236.000         195.000
  22049463.712   -17193458.72449 -11895894.16946  22049463.764    22049468.580
       231.000         186.000
  23997617.480   -10935280.22749  -8221560.47645  23997616.756    23997624.041
       211.000         151.000
  24345909.092    -9645979.99049  -7482934.56945  24345909.488    24345913.942
       211.000         146.000
  21473390.422   -23617904.79649 -18036566.05447  21473390.131    21473394.961
       243.000         206.000
  21124712.357     1623266.82649   1277650.58147  21124711.866    21124717.003
       240.000         205.000
  21310076.022   -21733012.95749 -16555137.70347  21310075.851    21310080.221
       243.000         209.000
  24445785.454    -5146735.56049  -3975134.94945  24445785.165    24445794.037
       218.000         153.000
 99  4 24  2 33  0.0000000  0  9G 9G 3G29G 8G31G21G17G23G 1
  23788174.346   -12256238.46149  -9523916.57445  23788174.789    23788181.605
       209.000         145.000
  21836726.848   -23893540.27549 -17861940.04047  21836726.299    21836731.986
       235.000         194.000
  22032839.135   -17280821.32549 -11963968.85546  22032839.163    22032843.569
       231.000         186.000
  23982941.440   -11012402.90649  -8281655.96545  23982940.476    23982947.719
       211.000         151.000
  24329641.637    -9731466.01249  -7549547.04245  24329641.430    24329647.511
       212.000         145.000
  21468350.971   -23644387.12449 -18057201.62147  21468350.560    21468355.483
       242.000         206.000
  21131586.269     1659389.47149   1305798.08947  21131585.987    21131590.977
       240.000         205.000
  21316474.520   -21699388.66049 -16528936.96547  21316474.022    21316478.538
       243.000         208.000
  24425007.864    -5255921.56149  -4060214.65545  24425006.730    24425016.697
       220.000         156.000
 99  4 24  2 33 30.0000000  0  9G 9G 3G29G 8G31G21G17G23G 1
  23782525.774   -12285922.88449  -9547047.24445  23782526.100    23782531.055
       211.000         148.000
  21829629.937   -23930833.96149 -17891000.04447  21829629.312    21829634.767
       234.000         194.000
  22016268.308   -17367901.40049 -12031823.39846  22016268.255    22016272.985
       232.000         187.000
  23968280.668   -11089444.96449  -8341688.63645  23968279.306    23968287.422
       211.000         151.000
  24313434.478    -9816635.41949  -7615912.79945  24313434.410    24313440.510
       211.000         143.000
  21463347.576   -23670679.83649 -18077689.44347  21463347.474    21463352.117
       243.000         206.000
  21138526.525     1695860.78049   1334217.28847  21138526.273    21138531.318
       240.000         204.000
  21322889.429   -21665678.11249 -16502669.01347  21322889.161    21322893.811
       244.000         208.000
  24404244.255    -5365033.51949  -4145236.65445  24404242.804    24404252.629
       221.000         159.000
 99  4 24  2 34  0.0000000  0  9G 9G 3G29G 8G31G21G17G23G 1
  23776964.433   -12315148.67749  -9569820.52445  23776964.650    23776970.133
       212.000         148.000
  21822639.101   -23967570.51949 -17919625.92447  21822638.961    21822643.492
       235.000         194.000
  21999754.897   -17454679.60049 -12099442.71747  21999754.997    21999759.824
       232.000         188.000
  23953639.717   -11166383.16649  -8401640.40045  23953639.391    23953646.392
       211.000         152.000
  24297291.396    -9901467.75949  -7682015.93645  24297291.335    24297297.056
       210.000         142.000
  21458385.472   -23696756.07049 -18098008.56747  21458385.459    21458389.787
       244.000         206.000
  21145534.297     1732686.96849   1362913.01247  21145534.011    21145539.116
       239.000         204.000
  21329322.416   -21631872.65549 -16476327.10347  21329322.227    21329326.834
       242.000         208.000
  24383500.855    -5474039.67949  -4230176.24845  24383500.764    24383509.075
       220.000         158.000
 99  4 24  2 34 30.0000000  0  9G 9G 3G29G 8G31G21G17G23G 1
  23771484.384   -12343946.24449  -9592260.09245  23771485.013    23771490.143
       213.000         149.000
  21815749.761   -24003774.60149 -17947836.88647  21815750.031    21815754.478
       236.000         194.000
  21983293.257   -17541185.97649 -12166850.23247  21983293.093    21983298.535
       231.000         188.000
  23939013.721   -11243243.26149  -8461531.28045  23939013.506    23939020.364
       212.000         152.000
  24281209.216    -9985981.58849  -7747870.85345  24281209.718    24281213.587
       211.000         142.000
  21453456.670   -23722657.60549 -18118191.56947  21453456.451    21453461.038
       244.000         206.000
  21152601.539     1769825.61149   1391852.19947  21152601.049    21152606.319
       240.000         204.000
  21335770.650   -21597987.16249 -16449922.82947  21335770.374    21335775.003
       243.000         208.000
  24362773.579    -5582961.67049  -4315050.23545  24362772.843    24362780.971
       216.000         154.000
 99  4 24  2 35  0.0000000  0  9G 9G 3G29G 8G31G21G17G23G 1
  23766083.785   -12372327.34649  -9614375.17145  23766084.372    23766089.505
       214.000         151.000
  21808963.037   -24039438.88649 -17975627.22747  21808962.909    21808967.572
       237.000         194.000
  21966886.625   -17627402.72549 -12234032.05747  21966886.591    21966891.703
       231.000         188.000
  23924401.538   -11320030.87549  -8521365.68245  23924400.272    23924407.356
       210.000         153.000
  24265187.652   -10070176.44849  -7813477.24645  24265187.250    24265191.051
       208.000         142.000
  21448561.214   -23748383.86549 -18138237.98947  21448561.020    21448565.373
       244.000         206.000
  21159726.521     1807267.74449   1421027.87847  21159726.366    21159731.098
       240.000         203.000
  21342238.561   -21563998.20649 -16423437.93647  21342238.246    21342242.574
       242.000         208.000
  24342062.838    -5691796.13749  -4399856.05245  24342062.221    24342070.590
       210.000         148.000
 99  4 24  2 35 30.0000000  0  9G 9G 3G29G 8G31G21G17G23G 1
  23760768.246   -12400261.04949  -9636141.63645  23760768.242    23760773.280
       216.000         153.000
  21802286.856   -24074522.63849 -18002965.20647  21802287.131    21802291.630
       237.000         195.000
  21950545.168   -17713276.93149 -12300946.95347  21950545.204    21950550.067
       233.000         188.000
  23909814.267   -11396686.93749  -8581097.56545  23909813.391    23909820.474
       212.000         152.000
  24249232.966   -10154018.81849  -7878808.98045  24249232.386    24249238.216
       212.000         143.000
  21443707.381   -23773890.96349 -18158113.63647  21443706.961    21443711.386
       242.000         206.000
  21166919.072     1845064.30949   1450479.74047  21166918.267    21166923.396
       240.000         203.000
  21348736.634   -21529850.44349 -16396829.28947  21348736.517    21348741.076
       243.000         208.000
  24321376.742    -5800501.14549  -4484560.96545  24321376.391    24321384.960
       208.000         141.000
 99  4 24  2 36  0.0000000  0  9G 9G 3G29G 8G31G21G17G23G 1
  23755529.680   -12427790.02549  -9657592.74845  23755529.219    23755535.445
       213.000         156.000
  21795712.012   -24109074.00549 -18029888.33847  21795712.262    21795716.596
       238.000         195.000
  21934262.316   -17798844.31749 -12367622.77947  21934262.306    21934266.838
       232.000         189.000
  23895244.317   -11473251.65349  -8640758.28545  23895243.447    23895251.029
       211.000         153.000
  24233336.602   -10237554.02549  -7943901.33845  24233334.691    24233342.048
       211.000         145.000
  21438884.247   -23799236.41149 -18177863.31547  21438883.660    21438888.805
       242.000         206.000
  21174170.445     1883170.73449   1480173.05647  21174170.097    21174174.712
       240.000         203.000
  21355259.426   -21495572.83449 -16370119.45747  21355259.162    21355263.779
       243.000         208.000
  24300710.546    -5909101.84749  -4569184.59345  24300708.909    24300716.317
       207.000         138.000
 99  4 24  2 36 30.0000000  0  9G 9G 3G29G 8G31G21G17G23G 1
  23750374.626   -12454879.49949  -9678701.39545  23750374.558    23750380.866
       213.000         158.000
  21789245.000   -24143058.71449 -18056369.92247  21789245.109    21789249.248
       238.000         196.000
  21918044.753   -17884067.87649 -12434030.69647  21918045.093    21918049.310
       232.000         189.000
  23880694.740   -11549709.35449  -8700335.62245  23880693.950    23880702.000
       214.000         154.000
  24217503.935   -10320754.08449  -8008732.55545  24217503.911    24217508.985
       214.000         149.000
  21434094.824   -23824404.61749 -18197474.89747  21434094.355    21434099.344
       242.000         205.000
  21181488.541     1921627.45349   1510139.33347  21181487.971    21181493.069
       239.000         203.000
  21361813.280   -21461131.95449 -16343282.40347  21361812.925    21361817.663
       243.000         209.000
  24280068.152    -6017576.55549  -4653710.03945  24280066.610    24280077.579
       205.000         138.000
 99  4 24  2 37  0.0000000  0  9G 9G 3G29G 8G31G21G17G23G 1
  23745310.659   -12481489.53849  -9699436.44845  23745310.823    23745316.636
       215.000         160.000
  21782895.511   -24176425.64249 -18082370.11947  21782895.895    21782899.627
       239.000         196.000
  21901902.122   -17968897.20849 -12500131.42247  21901901.989    21901907.074
       232.000         189.000
  23866174.273   -11626014.90049  -8759794.41045  23866173.532    23866180.631
       215.000         155.000
  24201743.396   -10403577.03949  -8073269.92745  24201743.821    24201749.247
       214.000         151.000
  21429346.747   -23849355.40949 -18216917.06347  21429346.302    21429351.519
       241.000         205.000
  21188884.453     1960493.33549   1540424.42747  21188884.091    21188889.286
       239.000         203.000
  21368402.945   -21426502.85149 -16316298.68247  21368402.633    21368407.531
       243.000         209.000
  24259455.270    -6125896.54949  -4738115.00745  24259453.989    24259462.312
       206.000         137.000
 99  4 24  2 37 30.0000000  0  9G 9G 3G29G 8G31G21G17G23G 1
  23740332.106   -12507652.48649  -9719823.12346  23740332.140    23740337.998
       219.000         163.000
  21776656.138   -24209213.92149 -18107919.42147  21776656.165    21776660.426
       238.000         196.000
  21885826.465   -18053374.89149 -12565958.13947  21885826.188    21885831.605
       232.000         189.000
  23851678.168   -11702192.28549  -8819153.33645  23851678.087    23851683.588
       214.000         155.000
  24186050.570   -10486042.82449  -8137528.98645  24186050.855    24186055.943
       212.000         153.000
  21424632.209   -23874130.45649 -18236222.28347  21424631.736    21424636.879
       242.000         206.000
  21196354.292     1999747.88349   1571012.37547  21196353.750    21196359.000
       239.000         203.000
  21375019.695   -21391731.74249 -16289204.31247  21375019.712    21375023.969
       243.000         209.000
  24238865.988    -6234092.23249  -4822423.03045  24238865.413    24238873.300
       210.000         141.000
 99  4 24  2 38  0.0000000  0  9G 9G 3G29G 8G31G21G17G23G 1
  23735439.790   -12533362.11849  -9739856.55546  23735439.947    23735445.671
       221.000         165.000
  21770524.107   -24241438.05249 -18133029.12147  21770524.210    21770528.281
       239.000         196.000
  21869816.005   -18137510.26549 -12631518.11647  21869815.921    21869820.895
       232.000         189.000
  23837203.117   -11778258.83749  -8878425.89345  23837202.458    23837209.036
       214.000         153.000
  24170425.082   -10568156.06549  -8201513.31345  24170424.683    24170429.718
       212.000         152.000
  21419946.923   -23898751.61649 -18255407.59247  21419946.849    21419951.781
       242.000         206.000
  21203894.391     2039371.37749   1601887.82547  21203894.190    21203899.088
       239.000         202.000
  21381660.347   -21356835.26749 -16262012.24947  21381660.145    21381664.412
       243.000         208.000
  24218298.291    -6342175.08849  -4906643.20345  24218297.042    24218305.783
       212.000         146.000
 99  4 24  2 38 30.0000000  0  9G 9G 3G29G 8G31G21G17G23G 1
  23730636.658   -12558602.99249  -9759524.71646  23730636.552    23730642.536
       220.000         166.000
  21764499.057   -24273100.25549 -18157700.95147  21764499.071    21764503.380
       238.000         196.000
  21853872.852   -18221292.08249 -12696802.59747  21853872.689    21853877.630
       232.000         190.000
  23822753.405   -11854192.16049  -8937594.63645  23822752.881    23822759.225
       213.000         151.000
  24154870.754   -10649894.91049  -8265205.91245  24154870.251    24154875.794
       213.000         151.000
  21415292.071   -23923213.11249 -18274468.49447  21415292.152    21415296.783
       242.000         207.000
  21211507.747     2079379.43649   1633062.93147  21211507.749    21211512.411
       240.000         203.000
  21388324.694   -21321814.24849 -16234723.14047  21388324.411    21388329.084
       242.000         208.000
  24197750.225    -6450155.05949  -4990783.16545  24197749.417    24197757.750
       215.000         150.000
 99  4 24  2 39  0.0000000  0  9G 9G 3G29G 8G31G21G17G23G 1
  23725927.917   -12583347.33849  -9778805.97546  23725927.862    23725933.426
       220.000         166.000
  21758581.413   -24304197.35849 -18181932.45247  21758581.108    21758585.521
       237.000         196.000
  21838000.262   -18304703.53349 -12761798.48347  21838000.507    21838004.954
       233.000         190.000
  23808336.257   -11929954.94949  -8996630.49245  23808335.892    23808342.571
       212.000         150.000
  24139393.499   -10731227.07349  -8328581.62645  24139393.226    24139398.743
       211.000         151.000
  21410672.147   -23947491.28849 -18293386.54247  21410672.140    21410676.576
       244.000         207.000
  21219197.615     2119789.63649   1664551.39047  21219197.455    21219202.158
       239.000         203.000
  21395015.423   -21286654.22149 -16207325.70747  21395014.879    21395019.765
       242.000         207.000
  24177226.651    -6558006.71749  -5074823.14945  24177226.045    24177233.856
       215.000         153.000
 99  4 24  2 39 30.0000000  0  9G 9G 3G29G 8G31G21G17G23G 1
  23721302.362   -12607654.61349  -9797746.67446  23721301.854    23721307.844
       218.000         165.000
  21752753.668   -24334821.98449 -18205795.78147  21752753.052    21752758.239
       238.000         196.000
  21822183.728   -18387819.95749 -12826564.47047  21822183.607    21822187.906
       232.000         190.000
  23793938.414   -12005615.67749  -9055586.82245  23793936.830    23793943.977
       211.000         150.000
  24123979.168   -10812228.65949  -8391699.72745  24123978.917    24123984.571
       210.000         151.000
  21406072.703   -23971661.98849 -18312220.84247  21406072.784    21406076.941
       244.000         208.000
  21226945.387     2160504.55649   1696277.29047  21226944.962    21226950.134
       239.000         202.000
  21401718.516   -21251428.93249 -16179877.43147  21401718.209    21401722.913
       241.000         207.000
  24156716.004    -6665790.23149  -5158810.05645  24156715.084    24156723.184
       219.000         157.000
 99  4 24  2 40  0.0000000  0  9G 9G 3G29G 8G31G21G17G23G 1
  23716767.719   -12631483.54649  -9816314.61346  23716767.374    23716773.818
       216.000         164.000
  21747024.527   -24364928.76049 -18229255.59547  21747024.528    21747029.026
       238.000         196.000
  21806431.896   -18470596.08949 -12891065.30447  21806431.761    21806436.298
       233.000         191.000
  23779566.562   -12081139.45349  -9114436.44545  23779564.660    23779572.292
       213.000         151.000
  24108634.177   -10892866.17249  -8454534.12845  24108633.500    24108640.595
       213.000         152.000
  21401500.148   -23995691.15249 -18330944.84747  21401499.930    21401504.238
       244.000         207.000
  21234756.863     2201554.16649   1728263.97947  21234756.414    21234761.578
       239.000         202.000
  21408440.414   -21216104.49049 -16152351.89547  21408440.065    21408444.972
       241.000         206.000
  24136224.782    -6773471.34749  -5242717.18045  24136223.880    24136232.145
       218.000         160.000
 99  4 24  2 40 30.0000000  0  9G 9G 3G29G 8G31G21G17G23G 1
  23712319.235   -12654859.92649  -9834529.93546  23712319.233    23712324.961
       218.000         163.000
  21741395.460   -24394509.81349 -18252305.75347  21741395.175    21741399.810
       237.000         196.000
  21790743.395   -18553039.47849 -12955306.86047  21790743.892    21790748.505
       234.000         192.000
  23765220.024   -12156530.13649  -9173182.36445  23765219.711    23765226.145
       213.000         151.000
  24093358.259   -10973141.67549  -8517086.44445  24093358.775    24093363.893
       214.000         153.000
  21396954.576   -24019578.14149 -18349558.07147  21396954.117    21396958.821
       243.000         207.000
  21242630.555     2242931.00949   1760505.65447  21242630.343    21242635.212
       239.000         202.000
  21415179.796   -21180688.87649 -16124755.32047  21415179.730    21415184.375
       242.000         207.000
  24115751.554    -6881056.92049  -5326549.83645  24115750.244    24115758.717
       215.000         161.000
 99  4 24  2 41  0.0000000  0  9G 9G 3G29G 8G31G21G17G23G 1
  23707959.073   -12677772.46849  -9852383.82346  23707958.992    23707965.609
       220.000         165.000
  21735873.414   -24423527.81649 -18274917.17147  21735873.448    21735878.036
       237.000         196.000
  21775120.232   -18635139.61949 -13019280.94747  21775120.088    21775125.085
       233.000         192.000
  23750899.020   -12231787.62749  -9231824.51245  23750898.655    23750904.901
       215.000         151.000
  24078154.144   -11053041.98449  -8579346.42445  24078155.100    24078160.306
       218.000         154.000
  21392439.527   -24043304.27049 -18368045.94247  21392438.943    21392443.524
       243.000         206.000
  21250565.969     2284631.83249   1792999.79747  21250565.490    21250571.006
       238.000         202.000
  21421939.549   -21145166.21049 -16097075.31147  21421939.270    21421944.015
       242.000         207.000
  24095300.760    -6988524.59549  -5410290.61445  24095299.331    24095307.717
       214.000         159.000
 99  4 24  2 41 30.0000000  0  9G 9G 3G29G 8G31G21G17G23G 1
  23703688.614   -12700214.02349  -9869870.69746  23703688.658    23703695.050
       220.000         168.000
  21730464.321   -24451952.52649 -18297066.29047  21730464.592    21730469.005
       237.000         196.000
  21759563.906   -18716888.10149 -13082981.01447  21759564.037    21759568.656
       232.000         192.000
  23736603.132   -12306913.14449  -9290363.80945  23736602.872    23736608.845
       214.000         150.000
  24063023.636   -11132555.57749  -8641305.04945  24063024.994    24063028.027
       217.000         154.000
  21387957.558   -24066856.71449 -18386398.47747  21387957.135    21387962.163
       241.000         205.000
  21258566.366     2326674.18949   1825760.05747  21258566.141    21258571.391
       238.000         202.000
  21428722.602   -21109521.01649 -16069299.83347  21428722.284    21428726.757
       242.000         207.000
  24074874.883    -7095861.72949  -5493929.71545  24074873.482    24074882.272
       214.000         157.000
 99  4 24  2 42  0.0000000  0  9G 9G 3G29G 8G31G21G17G23G 1
  23699506.691   -12722190.29849  -9886995.02446  23699506.553    23699513.268
       221.000         170.000
  21725170.621   -24479771.05049 -18318743.05847  21725170.407    21725175.074
       237.000         196.000
  21744073.257   -18798291.55149 -13146412.21547  21744073.581    21744077.917
       233.000         191.000
  23722331.508   -12381910.78849  -9348803.45345  23722331.312    23722336.800
       215.000         150.000
  24047968.625   -11211670.78449  -8702953.25345  24047968.788    24047973.104
       217.000         153.000
  21383510.242   -24090227.15449 -18404609.19647  21383509.624    21383514.843
       241.000         205.000
  21266634.320     2369071.71549   1858797.07847  21266634.006    21266639.130
       239.000         202.000
  21435529.866   -21073748.40749 -16041425.06847  21435529.522    21435534.332
       242.000         206.000
  24054474.173    -7203066.96249  -5577466.01745  24054473.534    24054481.915
       212.000         158.000
 99  4 24  2 42 30.0000000  0  9G 9G 3G29G 8G31G21G17G23G 1
  23695400.687   -12743766.60849  -9903807.68246  23695400.655    23695406.904
       223.000         172.000
  21719977.298   -24507061.80049 -18340008.57147  21719977.133    21719981.554
       236.000         196.000
  21728632.854   -18879431.01949 -13209637.72247  21728632.831    21728637.553
       233.000         191.000
  23708072.781   -12456840.39549  -9407190.08745  23708072.133    23708078.121
       214.000         150.000
  24032974.668   -11290463.47049  -8764350.12245  24032974.368    24032978.830
       215.000         153.000
  21379084.847   -24113482.25749 -18422730.03847  21379084.388    21379089.540
       240.000         205.000
  21274756.576     2411754.21449   1892056.15447  21274756.163    21274761.578
       238.000         202.000
  21442346.941   -21037924.40049 -16013510.25747  21442346.682    21442351.254
       242.000         206.000
  24034084.401    -7310214.90349  -5660957.66345  24034082.971    24034091.125
       211.000         155.000
 99  4 24  2 43  0.0000000  0  9G 9G 3G29G 8G31G21G17G23G 1
  23691394.505   -12764819.53849  -9920212.52146  23691395.068    23691400.243
       223.000         172.000
  21714901.519   -24533735.24849 -18360793.07147  21714901.467    21714906.098
       238.000         196.000
  21713263.923   -18960194.98249 -13272570.63347  21713263.790    21713268.498
       234.000         191.000
  23693847.269   -12531594.67249  -9465440.09445  23693846.951    23693853.970
       216.000         152.000
  24018061.011   -11368834.59949  -8825418.49545  24018060.353    24018065.921
       212.000         153.000
  21374700.318   -24136522.68949 -18440683.60947  21374700.043    21374704.995
       240.000         205.000
  21282955.389     2454839.12949   1925628.79747  21282955.247    21282960.051
       239.000         202.000
  21449190.382   -21001961.98649 -15985487.59647  21449190.105    21449194.815
       242.000         206.000
  24013728.229    -7417185.86549  -5744311.44245  24013728.112    24013735.566
       215.000         155.000
 99  4 24  2 43 30.0000000  0  9G 9G 3G29G 8G31G21G17G23G 1
  23687481.025   -12785385.37549  -9936237.81146  23687480.409    23687487.219
       220.000         171.000
  21709934.646   -24559836.35749 -18381131.58747  21709934.565    21709939.362
       237.000         196.000
  21697962.908   -19040602.06149 -13335225.44547  21697962.833    21697967.697
       234.000         192.000
  23679652.646   -12606188.05849  -9523564.76345  23679651.838    23679659.050
       215.000         155.000
  24003218.120   -11446834.02549  -8886197.23645  24003217.748    24003223.022
       215.000         153.000
  21370350.481   -24159381.01449 -18458495.27247  21370350.204    21370355.327
       241.000         206.000
  21291224.855     2498295.16249   1959490.62247  21291224.272    21291229.537
       239.000         201.000
  21456051.744   -20965905.05149 -15957391.28247  21456051.515    21456056.143
       242.000         206.000
  23993400.643    -7524007.29149  -5827548.71645  23993399.665    23993407.756
       213.000         153.000
 99  4 24  2 44  0.0000000  0  9G 9G 3G29G 8G31G21G17G23G 1
  23683655.638   -12805487.36649  -9951901.65246  23683655.297    23683661.870
       219.000         170.000
  21705072.780   -24585384.85949 -18401039.50647  21705072.351    21705077.872
       236.000         196.000
  21682729.564   -19120653.40749 -13397603.07347  21682729.689    21682734.650
       233.000         192.000
  23665489.550   -12680614.70849  -9581559.47245  23665488.923    23665496.475
       215.000         158.000
  23988440.732   -11524489.87949  -8946708.27545  23988440.828    23988444.704
       216.000         153.000
  21366032.254   -24182073.30349 -18476177.56547  21366032.234    21366037.051
       241.000         207.000
  21299559.935     2542096.24449   1993621.31747  21299559.672    21299564.760
       239.000         201.000
  21462927.754   -20929771.59849 -15929235.34347  21462927.465    21462932.223
       242.000         206.000
  23973099.071    -7630690.70049  -5910678.41945  23973097.660    23973106.690
       211.000         151.000
 99  4 24  2 44 30.0000000  0  9G 9G 3G29G 8G31G21G17G23G 1
  23679919.674   -12825119.74149  -9967199.56446  23679919.643    23679925.912
       217.000         168.000
  21700316.789   -24610377.22249 -18420514.07047  21700316.324    21700321.780
       237.000         197.000
  21667567.207   -19200331.77449 -13459690.06747  21667567.415    21667572.159
       234.000         193.000
  23651361.636   -12754857.28049  -9639410.75745  23651361.053    23651368.479
       215.000         159.000
  23973729.067   -11601801.50649  -9006951.08845  23973728.423    23973732.855
       218.000         153.000
  21361745.106   -24204602.77149 -18493732.97647  21361744.842    21361749.710
       242.000         207.000
  21307961.834     2586248.34949   2028025.53447  21307961.775    21307966.513
       239.000         201.000
  21469817.800   -20893564.18949 -15901021.78047  21469817.325    21469822.207
       242.000         206.000
  23952825.059    -7737230.30749  -5993696.08445  23952824.734    23952832.863
       214.000         152.000
 99  4 24  2 45  0.0000000  0  9G 9G 3G29G 8G31G21G17G23G 1
  23676277.495   -12844259.29249  -9982113.46846  23676277.524    23676283.487
       218.000         165.000
  21695672.588   -24634782.66149 -18439531.28947  21695672.478    21695677.928
       238.000         197.000
  21652483.271   -19279598.38949 -13521456.21547  21652483.268    21652488.055
       233.000         193.000
  23637270.484   -12828907.10249  -9697111.85545  23637270.508    23637277.038
       217.000         160.000
  23959088.258   -11678739.85949  -9066903.03545  23959087.429    23959091.926
       216.000         154.000
  21357491.062   -24226958.03449 -18511152.65447  21357490.877    21357495.541
       242.000         207.000
  21316433.497     2630766.92149   2062715.31047  21316433.160    21316438.150
       239.000         201.000
  21476725.943   -20857261.50549 -15872733.98547  21476725.742    21476730.076
       241.000         205.000
  23932584.085    -7843597.53749  -6076579.45845  23932584.457    23932590.036
       214.000         151.000
 99  4 24  2 45 30.0000000  0  9G 9G 3G29G 8G31G21G17G23G 1
  23672727.469   -12862915.32549  -9996650.58246  23672726.722    23672733.201
       219.000         164.000
  21691139.864   -24658602.31049 -18458092.04847  21691139.796    21691145.070
       239.000         198.000
  21637476.146   -19358460.85749 -13582907.43647  21637476.227    21637481.115
       234.000         193.000
  23623215.921   -12902764.43549  -9754662.94145  23623214.979    23623222.316
       215.000         160.000
  23944520.402   -11755293.58049  -9126555.28245  23944520.064    23944523.454
       215.000         153.000
  21353269.209   -24249143.99549 -18528440.39847  21353268.900    21353273.797
       241.000         206.000
  21324973.155     2675643.27049   2097683.87947  21324972.629    21324977.779
       238.000         201.000
  21483656.692   -20820840.27349 -15844353.80547  21483656.584    21483661.247
       242.000         205.000
  23912372.503    -7949810.02849  -6159342.22445  23912371.760    23912379.603
       212.000         150.000
 99  4 24  2 46  0.0000000  0  9G 9G 3G29G 8G31G21G17G23G 1
  23669273.796   -12881063.68549 -10010792.12246  23669273.743    23669279.418
       220.000         164.000
  21686719.812   -24681830.15049 -18476191.66547  21686719.806    21686725.021
       239.000         198.000
  21622545.715   -19436920.86249 -13644045.07047  21622545.753    21622550.193
       235.000         193.000
  23609198.888   -12976423.84649  -9812059.83645  23609197.912    23609205.475
       213.000         158.000
  23930032.229   -11831428.71249  -9185881.36145  23930032.024    23930036.608
       216.000         152.000
  21349080.497   -24271155.55049 -18545592.25147  21349079.959    21349085.138
       240.000         206.000
  21333584.822     2720897.93849   2132947.23047  21333584.587    21333589.801
       238.000         200.000
  21490613.252   -20784283.49049 -15815868.01747  21490613.298    21490617.586
       242.000         205.000
  23892190.404    -8055867.30749  -6241984.04345  23892189.371    23892197.222
       213.000         152.000
 99  4 24  2 46 30.0000000  0  9G 9G 3G29G 8G31G21G17G23G 1
  23665914.056   -12898718.90949 -10024549.38346  23665914.059    23665919.492
       222.000         165.000
  21682407.392   -24704492.60249 -18493850.71447  21682407.382    21682412.173
       239.000         198.000
  21607687.601   -19515000.86549 -13704886.58547  21607688.009    21607692.627
       235.000         194.000
  23595213.824   -13049915.64449  -9869326.11145  23595212.954    23595219.565
       214.000         156.000
  23915620.609   -11907161.36549  -9244893.78845  23915619.591    23915625.006
       213.000         151.000
  21344919.826   -24293019.40149 -18562628.99847  21344919.320    21344924.519
       240.000         205.000
  21342266.114     2766518.43249   2168495.64847  21342265.917    21342270.798
       238.000         201.000
  21497590.680   -20747617.03849 -15787296.76447  21497590.578    21497595.162
       241.000         205.000
  23872032.688    -8161795.41649  -6324525.23045  23872031.566    23872039.270
       209.000         151.000
 99  4 24  2 47  0.0000000  0  9G 9G 3G29G 8G31G21G17G23G 1
  23662647.640   -12915883.80349 -10037924.55646  23662648.389    23662653.416
       223.000         167.000
  21678202.478   -24726589.68449 -18511069.21447  21678202.613    21678207.465
       239.000         199.000
  21592901.465   -19592702.50049 -13765433.26647  21592901.675    21592905.981
       236.000         194.000
  23581261.866   -13123233.48849  -9926456.83645  23581260.463    23581267.222
       214.000         156.000
  23901286.335   -11982487.60249  -9303589.54145  23901285.824    23901291.376
       214.000         152.000
  21340788.688   -24314728.34449 -18579545.03247  21340788.330    21340793.499
       240.000         205.000
  21351017.957     2812509.15949   2204332.57447  21351017.698    21351022.262
       239.000         200.000
  21504590.408   -20710833.07849 -15758633.94847  21504590.312    21504595.011
       241.000         205.000
  23851899.691    -8267592.51149  -6406964.30445  23851898.224    23851907.371
       212.000         149.000
 99  4 24  2 47 30.0000000  0  9G 9G 3G29G 8G31G21G17G23G 1
  23659475.649   -12932552.95849 -10050913.46346  23659475.266    23659481.449
       222.000         168.000
  21674105.959   -24748117.38249 -18527844.03947  21674106.069    21674110.921
       239.000         198.000
  21578188.417   -19670019.88049 -13825680.52547  21578188.551    21578193.084
       235.000         195.000
  23567350.168   -13196339.78949  -9983422.71545  23567349.314    23567356.160
       214.000         156.000
  23887032.956   -12057389.20849  -9361954.39545  23887033.841    23887038.184
       216.000         153.000
  21336693.543   -24336248.11749 -18596313.66547  21336692.955    21336698.400
       239.000         204.000
  21359844.385     2858892.32949   2240475.28847  21359844.038    21359849.143
       238.000         200.000
  21511616.654   -20673909.66349 -15729862.46447  21511616.368    21511620.870
       241.000         205.000
  23831794.561    -8373244.55649  -6489290.38745  23831794.112    23831801.786
       218.000         152.000
